Wetterdaten: Montag, 21.03.2016
Datum Zeit Temp. A. Feuchte A. Luftdruck Regen Wind Richtung Richtung Sonnenschein ET UV Solar Taupunkt Windchill Windben Empfang
21.03.2016 00:00 4,3 C 81 % 1015,7 hPa 0,0 l/m 5,8 km/h (2 Bft) W 259 0 min 0,000 mm 0,0 UV-I 0 W/m 1,3 C 4,3 C 9,7 km/h (2 Bft) 100,00 %
21.03.2016 00:02 4,3 C 81 % 1015,7 hPa 0,0 l/m 6,7 km/h (2 Bft) W-SW 247 0 min 0,000 mm 0,0 UV-I 0 W/m 1,3 C 4,0 C 12,9 km/h (3 Bft) 11,76 %
21.03.2016 00:03 4,3 C 81 % 1015,7 hPa 0,0 l/m 5,2 km/h (1 Bft) W-SW 248 0 min 0,000 mm 0,0 UV-I 0 W/m 1,3 C 4,3 C 6,4 km/h (2 Bft) 37,50 %
21.03.2016 00:04 4,3 C 81 % 1015,7 hPa 0,0 l/m 5,8 km/h (2 Bft) W 259 0 min 0,000 mm 0,0 UV-I 0 W/m 1,3 C 4,3 C 8,0 km/h (2 Bft) 100,00 %
21.03.2016 00:05 4,3 C 81 % 1015,7 hPa 0,0 l/m 4,8 km/h (1 Bft) W 266 0 min 0,000 mm 0,0 UV-I 0 W/m 1,3 C 4,3 C 6,4 km/h (2 Bft) 100,00 %
21.03.2016 00:06 4,2 C 81 % 1015,7 hPa 0,0 l/m 6,4 km/h (2 Bft) W 265 0 min 0,000 mm 0,0 UV-I 0 W/m 1,2 C 4,2 C 9,7 km/h (2 Bft) 100,00 %
21.03.2016 00:07 4,2 C 81 % 1015,7 hPa 0,0 l/m 5,6 km/h (1 Bft) W-SW 256 0 min 0,000 mm 0,0 UV-I 0 W/m 1,2 C 4,2 C 9,7 km/h (2 Bft) 100,00 %
21.03.2016 00:08 4,2 C 81 % 1015,8 hPa 0,0 l/m 5,1 km/h (1 Bft) W 261 0 min 0,000 mm 0,0 UV-I 0 W/m 1,2 C 4,2 C 6,4 km/h (2 Bft) 100,00 %
21.03.2016 00:09 4,2 C 81 % 1015,8 hPa 0,0 l/m 7,3 km/h (2 Bft) W-SW 257 0 min 0,000 mm 0,0 UV-I 0 W/m 1,2 C 3,4 C 12,9 km/h (3 Bft) 100,00 %
21.03.2016 00:10 4,2 C 81 % 1015,7 hPa 0,0 l/m 6,6 km/h (2 Bft) W-SW 252 0 min 0,000 mm 0,0 UV-I 0 W/m 1,2 C 4,0 C 11,3 km/h (2 Bft) 100,00 %
21.03.2016 00:11 4,2 C 81 % 1015,7 hPa 0,0 l/m 6,0 km/h (2 Bft) W 272 0 min 0,000 mm 0,0 UV-I 0 W/m 1,2 C 4,2 C 11,3 km/h (2 Bft) 100,00 %
21.03.2016 00:12 4,2 C 81 % 1015,7 hPa 0,0 l/m 8,9 km/h (2 Bft) W 275 0 min 0,000 mm 0,0 UV-I 0 W/m 1,2 C 2,0 C 12,9 km/h (3 Bft) 100,00 %
21.03.2016 00:13 4,2 C 81 % 1015,7 hPa 0,0 l/m 9,6 km/h (2 Bft) W 266 0 min 0,000 mm 0,0 UV-I 0 W/m 1,2 C 1,5 C 12,9 km/h (3 Bft) 100,00 %
21.03.2016 00:14 4,2 C 81 % 1015,7 hPa 0,0 l/m 7,4 km/h (2 Bft) W-NW 282 0 min 0,000 mm 0,0 UV-I 0 W/m 1,2 C 3,3 C 11,3 km/h (2 Bft) 100,00 %
21.03.2016 00:15 4,1 C 81 % 1015,7 hPa 0,0 l/m 4,3 km/h (1 Bft) W-SW 249 0 min 0,000 mm 0,0 UV-I 0 W/m 1,1 C 4,1 C 4,8 km/h (1 Bft) 100,00 %
21.03.2016 00:16 4,1 C 81 % 1015,7 hPa 0,0 l/m 6,2 km/h (2 Bft) W 273 0 min 0,000 mm 0,0 UV-I 0 W/m 1,1 C 4,1 C 8,0 km/h (2 Bft) 100,00 %
21.03.2016 00:17 4,1 C 81 % 1015,7 hPa 0,0 l/m 8,8 km/h (2 Bft) W 261 0 min 0,000 mm 0,0 UV-I 0 W/m 1,1 C 2,0 C 14,5 km/h (3 Bft) 90,91 %
21.03.2016 00:18 4,1 C 81 % 1015,7 hPa 0,0 l/m 8,2 km/h (2 Bft) W 265 0 min 0,000 mm 0,0 UV-I 0 W/m 1,1 C 2,5 C 11,3 km/h (2 Bft) 100,00 %
21.03.2016 00:19 4,1 C 81 % 1015,7 hPa 0,0 l/m 7,3 km/h (2 Bft) W-NW 286 0 min 0,000 mm 0,0 UV-I 0 W/m 1,1 C 3,3 C 11,3 km/h (2 Bft) 100,00 %
21.03.2016 00:20 4,1 C 81 % 1015,7 hPa 0,0 l/m 6,6 km/h (2 Bft) W-SW 254 0 min 0,000 mm 0,0 UV-I 0 W/m 1,1 C 3,9 C 9,7 km/h (2 Bft) 100,00 %
21.03.2016 00:21 4,1 C 81 % 1015,7 hPa 0,0 l/m 5,2 km/h (1 Bft) W-NW 288 0 min 0,000 mm 0,0 UV-I 0 W/m 1,1 C 4,1 C 9,7 km/h (2 Bft) 91,30 %
21.03.2016 00:22 4,1 C 81 % 1015,7 hPa 0,0 l/m 4,9 km/h (1 Bft) W 269 0 min 0,000 mm 0,0 UV-I 0 W/m 1,1 C 4,1 C 9,7 km/h (2 Bft) 100,00 %
21.03.2016 00:23 4,1 C 81 % 1015,7 hPa 0,0 l/m 8,3 km/h (2 Bft) W 263 0 min 0,000 mm 0,0 UV-I 0 W/m 1,1 C 2,4 C 11,3 km/h (2 Bft) 100,00 %
21.03.2016 00:24 4,0 C 81 % 1015,8 hPa 0,0 l/m 7,2 km/h (2 Bft) W 269 0 min 0,000 mm 0,0 UV-I 0 W/m 1,0 C 3,3 C 11,3 km/h (2 Bft) 100,00 %
21.03.2016 00:25 4,0 C 81 % 1015,8 hPa 0,0 l/m 5,2 km/h (1 Bft) W-NW 282 0 min 0,000 mm 0,0 UV-I 0 W/m 1,0 C 4,0 C 6,4 km/h (2 Bft) 100,00 %
21.03.2016 00:26 4,0 C 81 % 1015,8 hPa 0,0 l/m 5,1 km/h (1 Bft) W-SW 247 0 min 0,000 mm 0,0 UV-I 0 W/m 1,0 C 4,0 C 8,0 km/h (2 Bft) 100,00 %
21.03.2016 00:27 4,0 C 81 % 1015,8 hPa 0,0 l/m 9,2 km/h (2 Bft) W-SW 245 0 min 0,000 mm 0,0 UV-I 0 W/m 1,0 C 1,6 C 14,5 km/h (3 Bft) 95,94 %
21.03.2016 00:28 4,0 C 81 % 1015,8 hPa 0,0 l/m 4,6 km/h (1 Bft) W 259 0 min 0,000 mm 0,0 UV-I 0 W/m 1,0 C 4,0 C 11,3 km/h (2 Bft) 97,56 %
21.03.2016 00:29 4,0 C 81 % 1015,8 hPa 0,0 l/m 4,8 km/h (1 Bft) W 273 0 min 0,000 mm 0,0 UV-I 0 W/m 1,0 C 4,0 C 9,7 km/h (2 Bft) 100,00 %
21.03.2016 00:30 4,0 C 82 % 1015,9 hPa 0,0 l/m 8,5 km/h (2 Bft) W 268 0 min 0,000 mm 0,0 UV-I 0 W/m 1,2 C 2,1 C 12,9 km/h (3 Bft) 100,00 %
21.03.2016 00:31 4,0 C 81 % 1015,9 hPa 0,0 l/m 7,9 km/h (2 Bft) W 269 0 min 0,000 mm 0,0 UV-I 0 W/m 1,0 C 2,6 C 12,9 km/h (3 Bft) 100,00 %
21.03.2016 00:32 4,0 C 82 % 1015,9 hPa 0,0 l/m 6,8 km/h (2 Bft) W 269 0 min 0,000 mm 0,0 UV-I 0 W/m 1,2 C 3,6 C 11,3 km/h (2 Bft) 100,00 %
21.03.2016 00:33 3,9 C 82 % 1015,9 hPa 0,0 l/m 8,6 km/h (2 Bft) W-SW 255 0 min 0,000 mm 0,0 UV-I 0 W/m 1,1 C 1,9 C 11,3 km/h (2 Bft) 95,83 %
21.03.2016 00:34 3,9 C 82 % 1015,9 hPa 0,0 l/m 5,6 km/h (1 Bft) W 261 0 min 0,000 mm 0,0 UV-I 0 W/m 1,1 C 3,9 C 9,7 km/h (2 Bft) 100,00 %
21.03.2016 00:35 3,9 C 82 % 1015,9 hPa 0,0 l/m 5,6 km/h (1 Bft) W-NW 285 0 min 0,000 mm 0,0 UV-I 0 W/m 1,1 C 3,9 C 9,7 km/h (2 Bft) 100,00 %
21.03.2016 00:36 3,9 C 82 % 1015,9 hPa 0,0 l/m 7,4 km/h (2 Bft) W 281 0 min 0,000 mm 0,0 UV-I 0 W/m 1,1 C 3,0 C 12,9 km/h (3 Bft) 100,00 %
21.03.2016 00:37 3,9 C 82 % 1015,9 hPa 0,0 l/m 8,6 km/h (2 Bft) W 261 0 min 0,000 mm 0,0 UV-I 0 W/m 1,1 C 1,9 C 12,9 km/h (3 Bft) 100,00 %
21.03.2016 00:38 3,9 C 81 % 1015,9 hPa 0,0 l/m 7,4 km/h (2 Bft) W 272 0 min 0,000 mm 0,0 UV-I 0 W/m 0,9 C 3,0 C 12,9 km/h (3 Bft) 100,00 %
21.03.2016 00:39 3,9 C 81 % 1015,9 hPa 0,0 l/m 7,2 km/h (2 Bft) W 262 0 min 0,000 mm 0,0 UV-I 0 W/m 0,9 C 3,2 C 11,3 km/h (2 Bft) 100,00 %
21.03.2016 00:40 3,9 C 82 % 1016,0 hPa 0,0 l/m 10,1 km/h (2 Bft) W 273 0 min 0,000 mm 0,0 UV-I 0 W/m 1,1 C 0,8 C 16,1 km/h (3 Bft) 100,00 %
21.03.2016 00:41 3,9 C 81 % 1015,9 hPa 0,0 l/m 6,9 km/h (2 Bft) W-NW 285 0 min 0,000 mm 0,0 UV-I 0 W/m 0,9 C 3,4 C 9,7 km/h (2 Bft) 100,00 %
21.03.2016 00:42 3,9 C 82 % 1015,9 hPa 0,0 l/m 9,0 km/h (2 Bft) W 273 0 min 0,000 mm 0,0 UV-I 0 W/m 1,1 C 1,6 C 14,5 km/h (3 Bft) 100,00 %
21.03.2016 00:43 3,9 C 82 % 1015,9 hPa 0,0 l/m 8,7 km/h (2 Bft) W 263 0 min 0,000 mm 0,0 UV-I 0 W/m 1,1 C 1,9 C 14,5 km/h (3 Bft) 100,00 %
21.03.2016 00:44 3,9 C 81 % 1015,9 hPa 0,0 l/m 10,8 km/h (2 Bft) W-SW 251 0 min 0,000 mm 0,0 UV-I 0 W/m 0,9 C 0,3 C 16,1 km/h (3 Bft) 100,00 %
21.03.2016 00:45 3,9 C 81 % 1015,9 hPa 0,0 l/m 9,0 km/h (2 Bft) W-SW 252 0 min 0,000 mm 0,0 UV-I 0 W/m 0,9 C 1,6 C 14,5 km/h (3 Bft) 100,00 %
21.03.2016 00:46 3,9 C 81 % 1015,9 hPa 0,0 l/m 11,8 km/h (2 Bft) W 267 0 min 0,000 mm 0,0 UV-I 0 W/m 0,9 C -0,4 C 16,1 km/h (3 Bft) 100,00 %
21.03.2016 00:47 3,9 C 81 % 1015,9 hPa 0,0 l/m 12,5 km/h (3 Bft) W-NW 288 0 min 0,000 mm 0,0 UV-I 0 W/m 0,9 C -0,8 C 17,7 km/h (3 Bft) 95,65 %
21.03.2016 00:48 3,9 C 81 % 1015,9 hPa 0,0 l/m 7,0 km/h (2 Bft) W 259 0 min 0,000 mm 0,0 UV-I 0 W/m 0,9 C 3,4 C 9,7 km/h (2 Bft) 100,00 %
21.03.2016 00:49 3,9 C 82 % 1015,9 hPa 0,0 l/m 8,7 km/h (2 Bft) W 263 0 min 0,000 mm 0,0 UV-I 0 W/m 1,1 C 1,9 C 12,9 km/h (3 Bft) 91,30 %
21.03.2016 00:50 3,9 C 82 % 1015,9 hPa 0,0 l/m 6,2 km/h (2 Bft) W-SW 251 0 min 0,000 mm 0,0 UV-I 0 W/m 1,1 C 3,9 C 8,0 km/h (2 Bft) 96,30 %
21.03.2016 00:51 3,9 C 82 % 1016,0 hPa 0,0 l/m 5,8 km/h (2 Bft) W-SW 255 0 min 0,000 mm 0,0 UV-I 0 W/m 1,1 C 3,9 C 8,0 km/h (2 Bft) 100,00 %
21.03.2016 00:52 3,9 C 82 % 1016,1 hPa 0,0 l/m 6,8 km/h (2 Bft) W 264 0 min 0,000 mm 0,0 UV-I 0 W/m 1,1 C 3,5 C 11,3 km/h (2 Bft) 95,83 %
21.03.2016 00:53 3,8 C 82 % 1016,0 hPa 0,0 l/m 10,9 km/h (2 Bft) W 272 0 min 0,000 mm 0,0 UV-I 0 W/m 1,0 C 0,1 C 12,9 km/h (3 Bft) 100,00 %
21.03.2016 00:54 3,9 C 82 % 1016,1 hPa 0,0 l/m 11,7 km/h (2 Bft) W 262 0 min 0,000 mm 0,0 UV-I 0 W/m 1,1 C -0,3 C 19,3 km/h (3 Bft) 90,91 %
21.03.2016 00:55 3,8 C 82 % 1016,1 hPa 0,0 l/m 8,1 km/h (2 Bft) N 355 0 min 0,000 mm 0,0 UV-I 0 W/m 1,0 C 2,3 C 12,9 km/h (3 Bft) 96,15 %
21.03.2016 00:56 3,8 C 82 % 1016,1 hPa 0,0 l/m 6,4 km/h (2 Bft) W 280 0 min 0,000 mm 0,0 UV-I 0 W/m 1,0 C 3,8 C 11,3 km/h (2 Bft) 100,00 %
21.03.2016 00:57 3,8 C 82 % 1016,1 hPa 0,0 l/m 10,3 km/h (2 Bft) W 271 0 min 0,000 mm 0,0 UV-I 0 W/m 1,0 C 0,5 C 19,3 km/h (3 Bft) 96,55 %
21.03.2016 00:58 3,8 C 82 % 1016,1 hPa 0,0 l/m 9,3 km/h (2 Bft) W 267 0 min 0,000 mm 0,0 UV-I 0 W/m 1,0 C 1,3 C 19,3 km/h (3 Bft) 100,00 %
21.03.2016 00:59 3,8 C 82 % 1016,1 hPa 0,0 l/m 6,8 km/h (2 Bft) W-NW 300 0 min 0,000 mm 0,0 UV-I 0 W/m 1,0 C 3,4 C 9,7 km/h (2 Bft) 96,15 %
21.03.2016 01:00 3,8 C 81 % 1016,1 hPa 0,0 l/m 4,4 km/h (1 Bft) W-SW 255 0 min 0,025 mm 0,0 UV-I 0 W/m 0,8 C 3,8 C 6,4 km/h (2 Bft) 100,00 %
21.03.2016 01:02 3,8 C 82 % 1016,2 hPa 0,0 l/m 6,9 km/h (2 Bft) W-SW 258 0 min 0,000 mm 0,0 UV-I 0 W/m 1,0 C 3,3 C 12,9 km/h (3 Bft) 97,87 %
21.03.2016 01:03 3,8 C 82 % 1016,2 hPa 0,0 l/m 7,2 km/h (2 Bft) W 262 0 min 0,000 mm 0,0 UV-I 0 W/m 1,0 C 3,1 C 12,9 km/h (3 Bft) 95,83 %
21.03.2016 01:04 3,8 C 82 % 1016,3 hPa 0,0 l/m 6,5 km/h (2 Bft) W 281 0 min 0,000 mm 0,0 UV-I 0 W/m 1,0 C 3,7 C 9,7 km/h (2 Bft) 95,65 %
21.03.2016 01:05 3,8 C 82 % 1016,3 hPa 0,0 l/m 7,7 km/h (2 Bft) W-SW 242 0 min 0,000 mm 0,0 UV-I 0 W/m 1,0 C 2,6 C 14,5 km/h (3 Bft) 95,83 %
21.03.2016 01:06 3,8 C 82 % 1016,2 hPa 0,0 l/m 9,5 km/h (2 Bft) W 271 0 min 0,000 mm 0,0 UV-I 0 W/m 1,0 C 1,1 C 11,3 km/h (2 Bft) 96,15 %
21.03.2016 01:07 3,8 C 82 % 1016,2 hPa 0,0 l/m 6,1 km/h (2 Bft) W-SW 257 0 min 0,000 mm 0,0 UV-I 0 W/m 1,0 C 3,8 C 11,3 km/h (2 Bft) 100,00 %
21.03.2016 01:08 3,8 C 82 % 1016,2 hPa 0,0 l/m 8,7 km/h (2 Bft) W 274 0 min 0,000 mm 0,0 UV-I 0 W/m 1,0 C 1,8 C 14,5 km/h (3 Bft) 97,37 %
21.03.2016 01:09 3,8 C 82 % 1016,2 hPa 0,0 l/m 6,3 km/h (2 Bft) W 269 0 min 0,000 mm 0,0 UV-I 0 W/m 1,0 C 3,8 C 11,3 km/h (2 Bft) 100,00 %
21.03.2016 01:10 3,8 C 82 % 1016,2 hPa 0,0 l/m 5,4 km/h (1 Bft) W-SW 250 0 min 0,000 mm 0,0 UV-I 0 W/m 1,0 C 3,8 C 9,7 km/h (2 Bft) 93,33 %
21.03.2016 01:11 3,8 C 82 % 1016,2 hPa 0,0 l/m 5,1 km/h (1 Bft) W-SW 247 0 min 0,000 mm 0,0 UV-I 0 W/m 1,0 C 3,8 C 8,0 km/h (2 Bft) 100,00 %
21.03.2016 01:12 3,8 C 82 % 1016,2 hPa 0,0 l/m 11,1 km/h (2 Bft) W 273 0 min 0,000 mm 0,0 UV-I 0 W/m 1,0 C -0,0 C 16,1 km/h (3 Bft) 96,15 %
21.03.2016 01:13 3,8 C 82 % 1016,2 hPa 0,0 l/m 6,6 km/h (2 Bft) W 271 0 min 0,000 mm 0,0 UV-I 0 W/m 1,0 C 3,6 C 9,7 km/h (2 Bft) 100,00 %
21.03.2016 01:14 3,8 C 82 % 1016,2 hPa 0,0 l/m 8,7 km/h (2 Bft) W-SW 249 0 min 0,000 mm 0,0 UV-I 0 W/m 1,0 C 1,8 C 12,9 km/h (3 Bft) 96,15 %
21.03.2016 01:15 3,8 C 82 % 1016,2 hPa 0,0 l/m 6,4 km/h (2 Bft) NW 304 0 min 0,000 mm 0,0 UV-I 0 W/m 1,0 C 3,8 C 11,3 km/h (2 Bft) 100,00 %
21.03.2016 01:16 3,8 C 82 % 1016,2 hPa 0,0 l/m 6,0 km/h (2 Bft) W-NW 292 0 min 0,000 mm 0,0 UV-I 0 W/m 1,0 C 3,8 C 9,7 km/h (2 Bft) 96,55 %
21.03.2016 01:17 3,8 C 82 % 1016,3 hPa 0,0 l/m 5,2 km/h (1 Bft) W 261 0 min 0,000 mm 0,0 UV-I 0 W/m 1,0 C 3,8 C 9,7 km/h (2 Bft) 88,89 %
21.03.2016 01:18 3,7 C 82 % 1016,2 hPa 0,0 l/m 6,8 km/h (2 Bft) W-SW 252 0 min 0,000 mm 0,0 UV-I 0 W/m 0,9 C 3,3 C 11,3 km/h (2 Bft) 100,00 %
21.03.2016 01:19 3,7 C 82 % 1016,3 hPa 0,0 l/m 8,5 km/h (2 Bft) W-SW 243 0 min 0,000 mm 0,0 UV-I 0 W/m 0,9 C 1,8 C 12,9 km/h (3 Bft) 96,30 %
21.03.2016 01:20 3,7 C 82 % 1016,3 hPa 0,0 l/m 6,0 km/h (2 Bft) W 270 0 min 0,000 mm 0,0 UV-I 0 W/m 0,9 C 3,7 C 9,7 km/h (2 Bft) 100,00 %
21.03.2016 01:21 3,7 C 82 % 1016,2 hPa 0,0 l/m 13,4 km/h (3 Bft) W 263 0 min 0,000 mm 0,0 UV-I 0 W/m 0,9 C -1,6 C 19,3 km/h (3 Bft) 95,83 %
21.03.2016 01:22 3,7 C 82 % 1016,2 hPa 0,0 l/m 7,2 km/h (2 Bft) W-SW 254 0 min 0,000 mm 0,0 UV-I 0 W/m 0,9 C 3,0 C 11,3 km/h (2 Bft) 100,00 %
21.03.2016 01:23 3,7 C 82 % 1016,2 hPa 0,0 l/m 7,5 km/h (2 Bft) W 261 0 min 0,000 mm 0,0 UV-I 0 W/m 0,9 C 2,7 C 12,9 km/h (3 Bft) 100,00 %
21.03.2016 01:24 3,7 C 82 % 1016,2 hPa 0,0 l/m 10,1 km/h (2 Bft) W 281 0 min 0,000 mm 0,0 UV-I 0 W/m 0,9 C 0,6 C 12,9 km/h (3 Bft) 96,15 %
21.03.2016 01:25 3,7 C 82 % 1016,2 hPa 0,0 l/m 10,5 km/h (2 Bft) W 260 0 min 0,000 mm 0,0 UV-I 0 W/m 0,9 C 0,3 C 14,5 km/h (3 Bft) 91,67 %
21.03.2016 01:26 3,7 C 82 % 1016,2 hPa 0,0 l/m 13,3 km/h (3 Bft) W 276 0 min 0,000 mm 0,0 UV-I 0 W/m 0,9 C -1,5 C 16,1 km/h (3 Bft) 100,00 %
21.03.2016 01:27 3,7 C 81 % 1016,2 hPa 0,0 l/m 10,5 km/h (2 Bft) W-SW 255 0 min 0,000 mm 0,0 UV-I 0 W/m 0,7 C 0,3 C 14,5 km/h (3 Bft) 100,00 %
21.03.2016 01:28 3,7 C 81 % 1016,2 hPa 0,0 l/m 12,9 km/h (3 Bft) W-SW 257 0 min 0,000 mm 0,0 UV-I 0 W/m 0,7 C -1,3 C 16,1 km/h (3 Bft) 100,00 %
21.03.2016 01:29 3,7 C 81 % 1016,3 hPa 0,0 l/m 8,1 km/h (2 Bft) W-SW 248 0 min 0,000 mm 0,0 UV-I 0 W/m 0,7 C 2,2 C 11,3 km/h (2 Bft) 100,00 %
21.03.2016 01:30 3,7 C 81 % 1016,3 hPa 0,0 l/m 9,3 km/h (2 Bft) W-SW 258 0 min 0,000 mm 0,0 UV-I 0 W/m 0,7 C 1,2 C 14,5 km/h (3 Bft) 92,59 %
21.03.2016 01:31 3,7 C 81 % 1016,2 hPa 0,0 l/m 7,1 km/h (2 Bft) W-SW 252 0 min 0,000 mm 0,0 UV-I 0 W/m 0,7 C 3,1 C 11,3 km/h (2 Bft) 100,00 %
21.03.2016 01:32 3,7 C 81 % 1016,3 hPa 0,0 l/m 8,5 km/h (2 Bft) W 276 0 min 0,000 mm 0,0 UV-I 0 W/m 0,7 C 1,8 C 11,3 km/h (2 Bft) 100,00 %
21.03.2016 01:33 3,7 C 81 % 1016,2 hPa 0,0 l/m 11,1 km/h (2 Bft) W 277 0 min 0,000 mm 0,0 UV-I 0 W/m 0,7 C -0,1 C 12,9 km/h (3 Bft) 97,37 %
21.03.2016 01:34 3,6 C 81 % 1016,2 hPa 0,0 l/m 11,8 km/h (2 Bft) W-NW 286 0 min 0,000 mm 0,0 UV-I 0 W/m 0,7 C -0,7 C 17,7 km/h (3 Bft) 100,00 %
21.03.2016 01:35 3,6 C 81 % 1016,3 hPa 0,0 l/m 9,1 km/h (2 Bft) W-NW 292 0 min 0,000 mm 0,0 UV-I 0 W/m 0,7 C 1,2 C 16,1 km/h (3 Bft) 100,00 %
21.03.2016 01:36 3,6 C 81 % 1016,3 hPa 0,0 l/m 7,1 km/h (2 Bft) W-SW 258 0 min 0,000 mm 0,0 UV-I 0 W/m 0,7 C 3,0 C 12,9 km/h (3 Bft) 100,00 %
21.03.2016 01:37 3,6 C 81 % 1016,3 hPa 0,0 l/m 6,7 km/h (2 Bft) W-SW 252 0 min 0,000 mm 0,0 UV-I 0 W/m 0,7 C 3,3 C 9,7 km/h (2 Bft) 100,00 %
21.03.2016 01:38 3,6 C 81 % 1016,3 hPa 0,0 l/m 8,4 km/h (2 Bft) W 259 0 min 0,000 mm 0,0 UV-I 0 W/m 0,7 C 1,8 C 14,5 km/h (3 Bft) 100,00 %
21.03.2016 01:39 3,6 C 81 % 1016,4 hPa 0,0 l/m 8,7 km/h (2 Bft) W 269 0 min 0,000 mm 0,0 UV-I 0 W/m 0,7 C 1,5 C 14,5 km/h (3 Bft) 100,00 %
21.03.2016 01:40 3,6 C 81 % 1016,4 hPa 0,0 l/m 9,3 km/h (2 Bft) W-SW 254 0 min 0,000 mm 0,0 UV-I 0 W/m 0,7 C 1,1 C 12,9 km/h (3 Bft) 100,00 %
21.03.2016 01:41 3,6 C 81 % 1016,4 hPa 0,0 l/m 6,7 km/h (2 Bft) W-SW 254 0 min 0,000 mm 0,0 UV-I 0 W/m 0,7 C 3,3 C 9,7 km/h (2 Bft) 92,86 %
21.03.2016 01:42 3,6 C 81 % 1016,4 hPa 0,0 l/m 8,7 km/h (2 Bft) W-SW 249 0 min 0,000 mm 0,0 UV-I 0 W/m 0,7 C 1,5 C 12,9 km/h (3 Bft) 96,30 %
21.03.2016 01:43 3,6 C 81 % 1016,4 hPa 0,0 l/m 8,0 km/h (2 Bft) W-SW 240 0 min 0,000 mm 0,0 UV-I 0 W/m 0,7 C 2,1 C 11,3 km/h (2 Bft) 100,00 %
21.03.2016 01:44 3,6 C 81 % 1016,4 hPa 0,0 l/m 8,5 km/h (2 Bft) SW 235 0 min 0,000 mm 0,0 UV-I 0 W/m 0,7 C 1,7 C 11,3 km/h (2 Bft) 100,00 %
21.03.2016 01:45 3,6 C 81 % 1016,4 hPa 0,0 l/m 8,4 km/h (2 Bft) W-SW 241 0 min 0,000 mm 0,0 UV-I 0 W/m 0,7 C 1,8 C 11,3 km/h (2 Bft) 100,00 %
21.03.2016 01:46 3,6 C 82 % 1016,4 hPa 0,0 l/m 8,2 km/h (2 Bft) W 259 0 min 0,000 mm 0,0 UV-I 0 W/m 0,8 C 2,0 C 12,9 km/h (3 Bft) 100,00 %
21.03.2016 01:47 3,6 C 82 % 1016,4 hPa 0,0 l/m 6,3 km/h (2 Bft) W-SW 245 0 min 0,000 mm 0,0 UV-I 0 W/m 0,8 C 3,6 C 11,3 km/h (2 Bft) 100,00 %
21.03.2016 01:48 3,6 C 82 % 1016,4 hPa 0,0 l/m 13,9 km/h (3 Bft) W 259 0 min 0,000 mm 0,0 UV-I 0 W/m 0,8 C -2,0 C 19,3 km/h (3 Bft) 95,83 %
21.03.2016 01:49 3,6 C 82 % 1016,4 hPa 0,0 l/m 8,8 km/h (2 Bft) W-SW 246 0 min 0,000 mm 0,0 UV-I 0 W/m 0,8 C 1,5 C 16,1 km/h (3 Bft) 100,00 %
21.03.2016 01:50 3,5 C 81 % 1016,4 hPa 0,0 l/m 6,3 km/h (2 Bft) W-SW 257 0 min 0,000 mm 0,0 UV-I 0 W/m 0,6 C 3,5 C 9,7 km/h (2 Bft) 100,00 %
21.03.2016 01:51 3,6 C 81 % 1016,4 hPa 0,0 l/m 12,6 km/h (3 Bft) W-SW 251 0 min 0,000 mm 0,0 UV-I 0 W/m 0,7 C -1,2 C 16,1 km/h (3 Bft) 100,00 %
21.03.2016 01:52 3,6 C 81 % 1016,4 hPa 0,0 l/m 14,3 km/h (3 Bft) W 269 0 min 0,000 mm 0,0 UV-I 0 W/m 0,7 C -2,2 C 19,3 km/h (3 Bft) 100,00 %
21.03.2016 01:53 3,6 C 81 % 1016,4 hPa 0,0 l/m 14,9 km/h (3 Bft) W-SW 245 0 min 0,000 mm 0,0 UV-I 0 W/m 0,7 C -2,6 C 17,7 km/h (3 Bft) 96,30 %
21.03.2016 01:54 3,6 C 81 % 1016,4 hPa 0,0 l/m 11,0 km/h (2 Bft) W 269 0 min 0,000 mm 0,0 UV-I 0 W/m 0,7 C -0,2 C 14,5 km/h (3 Bft) 100,00 %
21.03.2016 01:55 3,5 C 81 % 1016,4 hPa 0,0 l/m 14,5 km/h (3 Bft) W-SW 256 0 min 0,000 mm 0,0 UV-I 0 W/m 0,6 C -2,5 C 20,9 km/h (4 Bft) 100,00 %
21.03.2016 01:56 3,5 C 81 % 1016,4 hPa 0,0 l/m 10,8 km/h (2 Bft) W 259 0 min 0,000 mm 0,0 UV-I 0 W/m 0,6 C -0,2 C 12,9 km/h (3 Bft) 100,00 %
21.03.2016 01:57 3,5 C 81 % 1016,4 hPa 0,0 l/m 14,0 km/h (3 Bft) W 266 0 min 0,000 mm 0,0 UV-I 0 W/m 0,6 C -2,2 C 17,7 km/h (3 Bft) 100,00 %
21.03.2016 01:58 3,5 C 81 % 1016,4 hPa 0,0 l/m 12,1 km/h (2 Bft) W-SW 253 0 min 0,000 mm 0,0 UV-I 0 W/m 0,6 C -1,0 C 16,1 km/h (3 Bft) 100,00 %
21.03.2016 01:59 3,5 C 81 % 1016,4 hPa 0,0 l/m 12,1 km/h (2 Bft) W-NW 292 0 min 0,000 mm 0,0 UV-I 0 W/m 0,6 C -1,0 C 16,1 km/h (3 Bft) 100,00 %
21.03.2016 02:00 3,5 C 81 % 1016,4 hPa 0,0 l/m 12,2 km/h (2 Bft) W 269 0 min 0,026 mm 0,0 UV-I 0 W/m 0,6 C -1,1 C 20,9 km/h (4 Bft) 100,00 %
21.03.2016 02:01 3,5 C 81 % 1016,4 hPa 0,0 l/m 16,4 km/h (3 Bft) W 261 0 min 0,000 mm 0,0 UV-I 0 W/m 0,6 C -3,5 C 20,9 km/h (4 Bft) 100,00 %
21.03.2016 02:02 3,5 C 80 % 1016,4 hPa 0,0 l/m 15,9 km/h (3 Bft) W-SW 254 0 min 0,000 mm 0,0 UV-I 0 W/m 0,4 C -3,2 C 22,5 km/h (4 Bft) 100,00 %
21.03.2016 02:03 3,5 C 80 % 1016,4 hPa 0,0 l/m 14,6 km/h (3 Bft) W-SW 244 0 min 0,000 mm 0,0 UV-I 0 W/m 0,4 C -2,5 C 17,7 km/h (3 Bft) 100,00 %
21.03.2016 02:04 3,5 C 80 % 1016,4 hPa 0,0 l/m 12,1 km/h (2 Bft) W-SW 246 0 min 0,000 mm 0,0 UV-I 0 W/m 0,4 C -1,0 C 16,1 km/h (3 Bft) 95,83 %
21.03.2016 02:05 3,4 C 80 % 1016,4 hPa 0,0 l/m 12,6 km/h (3 Bft) W 259 0 min 0,000 mm 0,0 UV-I 0 W/m 0,3 C -1,5 C 16,1 km/h (3 Bft) 100,00 %
21.03.2016 02:06 3,4 C 80 % 1016,4 hPa 0,0 l/m 10,8 km/h (2 Bft) W-NW 287 0 min 0,000 mm 0,0 UV-I 0 W/m 0,3 C -0,3 C 14,5 km/h (3 Bft) 100,00 %
21.03.2016 02:07 3,4 C 80 % 1016,4 hPa 0,0 l/m 12,6 km/h (3 Bft) W 262 0 min 0,000 mm 0,0 UV-I 0 W/m 0,3 C -1,5 C 16,1 km/h (3 Bft) 100,00 %
21.03.2016 02:08 3,4 C 80 % 1016,4 hPa 0,0 l/m 10,6 km/h (2 Bft) W-NW 297 0 min 0,000 mm 0,0 UV-I 0 W/m 0,3 C -0,1 C 14,5 km/h (3 Bft) 100,00 %
21.03.2016 02:09 3,4 C 80 % 1016,5 hPa 0,0 l/m 8,4 km/h (2 Bft) W-SW 247 0 min 0,000 mm 0,0 UV-I 0 W/m 0,3 C 1,6 C 12,9 km/h (3 Bft) 96,15 %
21.03.2016 02:10 3,4 C 80 % 1016,5 hPa 0,0 l/m 12,4 km/h (3 Bft) W 277 0 min 0,000 mm 0,0 UV-I 0 W/m 0,3 C -1,3 C 16,1 km/h (3 Bft) 100,00 %
21.03.2016 02:11 3,4 C 80 % 1016,4 hPa 0,0 l/m 9,5 km/h (2 Bft) W 263 0 min 0,000 mm 0,0 UV-I 0 W/m 0,3 C 0,7 C 14,5 km/h (3 Bft) 100,00 %
21.03.2016 02:12 3,4 C 80 % 1016,4 hPa 0,0 l/m 9,6 km/h (2 Bft) W-SW 254 0 min 0,000 mm 0,0 UV-I 0 W/m 0,3 C 0,6 C 12,9 km/h (3 Bft) 100,00 %
21.03.2016 02:13 3,4 C 80 % 1016,4 hPa 0,0 l/m 4,9 km/h (1 Bft) W-SW 252 0 min 0,000 mm 0,0 UV-I 0 W/m 0,3 C 3,4 C 6,4 km/h (2 Bft) 100,00 %
21.03.2016 02:14 3,4 C 80 % 1016,4 hPa 0,0 l/m 8,6 km/h (2 Bft) W 261 0 min 0,000 mm 0,0 UV-I 0 W/m 0,3 C 1,4 C 11,3 km/h (2 Bft) 95,83 %
21.03.2016 02:15 3,4 C 80 % 1016,4 hPa 0,0 l/m 8,6 km/h (2 Bft) W-SW 252 0 min 0,000 mm 0,0 UV-I 0 W/m 0,3 C 1,4 C 11,3 km/h (2 Bft) 97,96 %
21.03.2016 02:16 3,4 C 80 % 1016,4 hPa 0,0 l/m 6,4 km/h (2 Bft) W 262 0 min 0,000 mm 0,0 UV-I 0 W/m 0,3 C 3,4 C 9,7 km/h (2 Bft) 100,00 %
21.03.2016 02:17 3,4 C 80 % 1016,3 hPa 0,0 l/m 9,5 km/h (2 Bft) W-SW 249 0 min 0,000 mm 0,0 UV-I 0 W/m 0,3 C 0,7 C 11,3 km/h (2 Bft) 100,00 %
21.03.2016 02:18 3,4 C 80 % 1016,3 hPa 0,0 l/m 7,4 km/h (2 Bft) W 261 0 min 0,000 mm 0,0 UV-I 0 W/m 0,3 C 2,5 C 11,3 km/h (2 Bft) 100,00 %
21.03.2016 02:19 3,4 C 80 % 1016,3 hPa 0,0 l/m 10,8 km/h (2 Bft) W 267 0 min 0,000 mm 0,0 UV-I 0 W/m 0,3 C -0,3 C 14,5 km/h (3 Bft) 100,00 %
21.03.2016 02:20 3,4 C 80 % 1016,3 hPa 0,0 l/m 8,9 km/h (2 Bft) W-SW 250 0 min 0,000 mm 0,0 UV-I 0 W/m 0,3 C 1,2 C 12,9 km/h (3 Bft) 100,00 %
21.03.2016 02:21 3,4 C 80 % 1016,3 hPa 0,0 l/m 6,0 km/h (2 Bft) W-SW 256 0 min 0,000 mm 0,0 UV-I 0 W/m 0,3 C 3,4 C 8,0 km/h (2 Bft) 100,00 %
21.03.2016 02:22 3,4 C 80 % 1016,3 hPa 0,0 l/m 8,1 km/h (2 Bft) W-SW 256 0 min 0,000 mm 0,0 UV-I 0 W/m 0,3 C 1,8 C 11,3 km/h (2 Bft) 100,00 %
21.03.2016 02:23 3,3 C 80 % 1016,3 hPa 0,0 l/m 6,8 km/h (2 Bft) W-SW 250 0 min 0,000 mm 0,0 UV-I 0 W/m 0,2 C 2,9 C 11,3 km/h (2 Bft) 100,00 %
21.03.2016 02:24 3,3 C 80 % 1016,3 hPa 0,0 l/m 7,4 km/h (2 Bft) W-SW 252 0 min 0,000 mm 0,0 UV-I 0 W/m 0,2 C 2,4 C 9,7 km/h (2 Bft) 100,00 %
21.03.2016 02:25 3,3 C 80 % 1016,3 hPa 0,0 l/m 5,1 km/h (1 Bft) SW 229 0 min 0,000 mm 0,0 UV-I 0 W/m 0,2 C 3,3 C 6,4 km/h (2 Bft) 100,00 %
21.03.2016 02:26 3,3 C 80 % 1016,3 hPa 0,0 l/m 5,8 km/h (2 Bft) SW 235 0 min 0,000 mm 0,0 UV-I 0 W/m 0,2 C 3,3 C 9,7 km/h (2 Bft) 100,00 %
21.03.2016 02:27 3,3 C 80 % 1016,3 hPa 0,0 l/m 7,3 km/h (2 Bft) W-NW 290 0 min 0,000 mm 0,0 UV-I 0 W/m 0,2 C 2,5 C 12,9 km/h (3 Bft) 100,00 %
21.03.2016 02:28 3,3 C 80 % 1016,3 hPa 0,0 l/m 5,8 km/h (2 Bft) W 259 0 min 0,000 mm 0,0 UV-I 0 W/m 0,2 C 3,3 C 9,7 km/h (2 Bft) 100,00 %
21.03.2016 02:29 3,3 C 80 % 1016,3 hPa 0,0 l/m 5,7 km/h (1 Bft) W 276 0 min 0,000 mm 0,0 UV-I 0 W/m 0,2 C 3,3 C 8,0 km/h (2 Bft) 100,00 %
21.03.2016 02:30 3,3 C 80 % 1016,3 hPa 0,0 l/m 5,3 km/h (1 Bft) W-SW 257 0 min 0,000 mm 0,0 UV-I 0 W/m 0,2 C 3,3 C 11,3 km/h (2 Bft) 100,00 %
21.03.2016 02:31 3,3 C 80 % 1016,3 hPa 0,0 l/m 10,0 km/h (2 Bft) W 264 0 min 0,000 mm 0,0 UV-I 0 W/m 0,2 C 0,2 C 12,9 km/h (3 Bft) 100,00 %
21.03.2016 02:32 3,3 C 80 % 1016,3 hPa 0,0 l/m 11,7 km/h (2 Bft) W 260 0 min 0,000 mm 0,0 UV-I 0 W/m 0,2 C -1,0 C 16,1 km/h (3 Bft) 100,00 %
21.03.2016 02:33 3,3 C 80 % 1016,3 hPa 0,0 l/m 6,1 km/h (2 Bft) W-SW 243 0 min 0,000 mm 0,0 UV-I 0 W/m 0,2 C 3,3 C 9,7 km/h (2 Bft) 100,00 %
21.03.2016 02:34 3,3 C 80 % 1016,3 hPa 0,0 l/m 6,9 km/h (2 Bft) W-SW 250 0 min 0,000 mm 0,0 UV-I 0 W/m 0,2 C 2,8 C 14,5 km/h (3 Bft) 100,00 %
21.03.2016 02:35 3,3 C 80 % 1016,3 hPa 0,0 l/m 9,1 km/h (2 Bft) W-SW 255 0 min 0,000 mm 0,0 UV-I 0 W/m 0,2 C 0,9 C 14,5 km/h (3 Bft) 100,00 %
21.03.2016 02:36 3,3 C 80 % 1016,4 hPa 0,0 l/m 3,9 km/h (1 Bft) W 277 0 min 0,000 mm 0,0 UV-I 0 W/m 0,2 C 3,3 C 4,8 km/h (1 Bft) 100,00 %
21.03.2016 02:37 3,3 C 80 % 1016,4 hPa 0,0 l/m 3,4 km/h (1 Bft) W-SW 252 0 min 0,000 mm 0,0 UV-I 0 W/m 0,2 C 3,3 C 6,4 km/h (2 Bft) 100,00 %
21.03.2016 02:38 3,3 C 80 % 1016,4 hPa 0,0 l/m 6,0 km/h (2 Bft) W-SW 253 0 min 0,000 mm 0,0 UV-I 0 W/m 0,2 C 3,3 C 9,7 km/h (2 Bft) 100,00 %
21.03.2016 02:39 3,3 C 80 % 1016,4 hPa 0,0 l/m 4,3 km/h (1 Bft) W 277 0 min 0,000 mm 0,0 UV-I 0 W/m 0,2 C 3,3 C 6,4 km/h (2 Bft) 100,00 %
21.03.2016 02:40 3,3 C 80 % 1016,4 hPa 0,0 l/m 5,4 km/h (1 Bft) W-SW 250 0 min 0,000 mm 0,0 UV-I 0 W/m 0,2 C 3,3 C 6,4 km/h (2 Bft) 100,00 %
21.03.2016 02:41 3,3 C 80 % 1016,4 hPa 0,0 l/m 4,0 km/h (1 Bft) W-SW 249 0 min 0,000 mm 0,0 UV-I 0 W/m 0,2 C 3,3 C 6,4 km/h (2 Bft) 100,00 %
21.03.2016 02:42 3,3 C 80 % 1016,4 hPa 0,0 l/m 5,0 km/h (1 Bft) SW 235 0 min 0,000 mm 0,0 UV-I 0 W/m 0,2 C 3,3 C 8,0 km/h (2 Bft) 100,00 %
21.03.2016 02:43 3,3 C 80 % 1016,4 hPa 0,0 l/m 4,6 km/h (1 Bft) W-SW 242 0 min 0,000 mm 0,0 UV-I 0 W/m 0,2 C 3,3 C 6,4 km/h (2 Bft) 100,00 %
21.03.2016 02:44 3,3 C 80 % 1016,4 hPa 0,0 l/m 6,6 km/h (2 Bft) W 274 0 min 0,000 mm 0,0 UV-I 0 W/m 0,2 C 3,1 C 11,3 km/h (2 Bft) 100,00 %
21.03.2016 02:45 3,3 C 80 % 1016,4 hPa 0,0 l/m 7,1 km/h (2 Bft) W 269 0 min 0,000 mm 0,0 UV-I 0 W/m 0,2 C 2,6 C 11,3 km/h (2 Bft) 100,00 %
21.03.2016 02:46 3,3 C 80 % 1016,4 hPa 0,0 l/m 5,6 km/h (1 Bft) W-SW 237 0 min 0,000 mm 0,0 UV-I 0 W/m 0,2 C 3,3 C 9,7 km/h (2 Bft) 100,00 %
21.03.2016 02:47 3,3 C 80 % 1016,4 hPa 0,0 l/m 3,6 km/h (1 Bft) W 271 0 min 0,000 mm 0,0 UV-I 0 W/m 0,2 C 3,3 C 6,4 km/h (2 Bft) 100,00 %
21.03.2016 02:48 3,2 C 80 % 1016,4 hPa 0,0 l/m 4,8 km/h (1 Bft) W-SW 257 0 min 0,000 mm 0,0 UV-I 0 W/m 0,1 C 3,2 C 6,4 km/h (2 Bft) 100,00 %
21.03.2016 02:49 3,3 C 80 % 1016,4 hPa 0,0 l/m 6,7 km/h (2 Bft) W-SW 254 0 min 0,000 mm 0,0 UV-I 0 W/m 0,2 C 3,0 C 11,3 km/h (2 Bft) 100,00 %
21.03.2016 02:50 3,3 C 80 % 1016,4 hPa 0,0 l/m 7,9 km/h (2 Bft) W-SW 246 0 min 0,000 mm 0,0 UV-I 0 W/m 0,2 C 1,9 C 11,3 km/h (2 Bft) 91,67 %
21.03.2016 02:51 3,2 C 80 % 1016,4 hPa 0,0 l/m 5,5 km/h (1 Bft) SW 223 0 min 0,000 mm 0,0 UV-I 0 W/m 0,1 C 3,2 C 9,7 km/h (2 Bft) 96,43 %
21.03.2016 02:52 3,2 C 80 % 1016,4 hPa 0,0 l/m 5,6 km/h (1 Bft) W-SW 248 0 min 0,000 mm 0,0 UV-I 0 W/m 0,1 C 3,2 C 11,3 km/h (2 Bft) 93,33 %
21.03.2016 02:53 3,2 C 80 % 1016,4 hPa 0,0 l/m 7,7 km/h (2 Bft) S-SW 205 0 min 0,000 mm 0,0 UV-I 0 W/m 0,1 C 2,0 C 11,3 km/h (2 Bft) 100,00 %
21.03.2016 02:54 3,2 C 80 % 1016,4 hPa 0,0 l/m 7,6 km/h (2 Bft) W-SW 241 0 min 0,000 mm 0,0 UV-I 0 W/m 0,1 C 2,1 C 11,3 km/h (2 Bft) 91,67 %
21.03.2016 02:55 3,2 C 80 % 1016,3 hPa 0,0 l/m 10,1 km/h (2 Bft) W 259 0 min 0,000 mm 0,0 UV-I 0 W/m 0,1 C 0,0 C 12,9 km/h (3 Bft) 100,00 %
21.03.2016 02:56 3,2 C 80 % 1016,4 hPa 0,0 l/m 9,3 km/h (2 Bft) W 261 0 min 0,000 mm 0,0 UV-I 0 W/m 0,1 C 0,6 C 12,9 km/h (3 Bft) 96,67 %
21.03.2016 02:57 3,2 C 80 % 1016,3 hPa 0,0 l/m 5,5 km/h (1 Bft) SW 223 0 min 0,000 mm 0,0 UV-I 0 W/m 0,1 C 3,2 C 6,4 km/h (2 Bft) 96,15 %
21.03.2016 02:58 3,2 C 80 % 1016,4 hPa 0,0 l/m 8,3 km/h (2 Bft) W-SW 238 0 min 0,000 mm 0,0 UV-I 0 W/m 0,1 C 1,5 C 12,9 km/h (3 Bft) 100,00 %
21.03.2016 02:59 3,2 C 80 % 1016,4 hPa 0,0 l/m 9,3 km/h (2 Bft) W-SW 251 0 min 0,000 mm 0,0 UV-I 0 W/m 0,1 C 0,6 C 12,9 km/h (3 Bft) 93,10 %
21.03.2016 03:00 3,2 C 80 % 1016,3 hPa 0,0 l/m 6,7 km/h (2 Bft) W-SW 243 0 min 0,025 mm 0,0 UV-I 0 W/m 0,1 C 2,9 C 11,3 km/h (2 Bft) 100,00 %
21.03.2016 03:01 3,2 C 80 % 1016,3 hPa 0,0 l/m 3,7 km/h (1 Bft) SW 223 0 min 0,000 mm 0,0 UV-I 0 W/m 0,1 C 3,2 C 6,4 km/h (2 Bft) 95,65 %
21.03.2016 03:02 3,2 C 80 % 1016,3 hPa 0,0 l/m 7,1 km/h (2 Bft) W-SW 251 0 min 0,000 mm 0,0 UV-I 0 W/m 0,1 C 2,5 C 9,7 km/h (2 Bft) 100,00 %
21.03.2016 03:03 3,2 C 80 % 1016,3 hPa 0,0 l/m 8,1 km/h (2 Bft) SW 223 0 min 0,000 mm 0,0 UV-I 0 W/m 0,1 C 1,6 C 11,3 km/h (2 Bft) 93,33 %
21.03.2016 03:04 3,2 C 80 % 1016,3 hPa 0,0 l/m 7,7 km/h (2 Bft) SW 224 0 min 0,000 mm 0,0 UV-I 0 W/m 0,1 C 2,0 C 12,9 km/h (3 Bft) 100,00 %
21.03.2016 03:05 3,2 C 80 % 1016,3 hPa 0,0 l/m 6,8 km/h (2 Bft) SW 236 0 min 0,000 mm 0,0 UV-I 0 W/m 0,1 C 2,8 C 11,3 km/h (2 Bft) 96,15 %
21.03.2016 03:06 3,2 C 80 % 1016,4 hPa 0,0 l/m 6,4 km/h (2 Bft) SW 230 0 min 0,000 mm 0,0 UV-I 0 W/m 0,1 C 3,2 C 9,7 km/h (2 Bft) 96,30 %
21.03.2016 03:07 3,2 C 80 % 1016,4 hPa 0,0 l/m 4,5 km/h (1 Bft) SW 234 0 min 0,000 mm 0,0 UV-I 0 W/m 0,1 C 3,2 C 8,0 km/h (2 Bft) 100,00 %
21.03.2016 03:08 3,2 C 80 % 1016,4 hPa 0,0 l/m 4,9 km/h (1 Bft) W-SW 246 0 min 0,000 mm 0,0 UV-I 0 W/m 0,1 C 3,2 C 8,0 km/h (2 Bft) 96,15 %
21.03.2016 03:09 3,2 C 80 % 1016,3 hPa 0,0 l/m 7,5 km/h (2 Bft) S-SW 213 0 min 0,000 mm 0,0 UV-I 0 W/m 0,1 C 2,2 C 12,9 km/h (3 Bft) 100,00 %
21.03.2016 03:10 3,2 C 80 % 1016,4 hPa 0,0 l/m 9,1 km/h (2 Bft) W-SW 244 0 min 0,000 mm 0,0 UV-I 0 W/m 0,1 C 0,8 C 14,5 km/h (3 Bft) 93,33 %
21.03.2016 03:11 3,2 C 80 % 1016,3 hPa 0,0 l/m 7,4 km/h (2 Bft) SW 217 0 min 0,000 mm 0,0 UV-I 0 W/m 0,1 C 2,3 C 9,7 km/h (2 Bft) 100,00 %
21.03.2016 03:12 3,2 C 80 % 1016,3 hPa 0,0 l/m 4,8 km/h (1 Bft) SW 236 0 min 0,000 mm 0,0 UV-I 0 W/m 0,1 C 3,2 C 6,4 km/h (2 Bft) 96,15 %
21.03.2016 03:13 3,2 C 80 % 1016,4 hPa 0,0 l/m 6,9 km/h (2 Bft) W-SW 246 0 min 0,000 mm 0,0 UV-I 0 W/m 0,1 C 2,7 C 11,3 km/h (2 Bft) 100,00 %
21.03.2016 03:14 3,2 C 80 % 1016,3 hPa 0,0 l/m 6,2 km/h (2 Bft) W-SW 245 0 min 0,000 mm 0,0 UV-I 0 W/m 0,1 C 3,2 C 8,0 km/h (2 Bft) 92,86 %
21.03.2016 03:15 3,2 C 80 % 1016,3 hPa 0,0 l/m 7,7 km/h (2 Bft) SW 231 0 min 0,000 mm 0,0 UV-I 0 W/m 0,1 C 2,0 C 11,3 km/h (2 Bft) 96,67 %
21.03.2016 03:16 3,2 C 80 % 1016,4 hPa 0,0 l/m 10,1 km/h (2 Bft) W-SW 238 0 min 0,000 mm 0,0 UV-I 0 W/m 0,1 C 0,0 C 12,9 km/h (3 Bft) 100,00 %
21.03.2016 03:17 3,2 C 80 % 1016,3 hPa 0,0 l/m 7,5 km/h (2 Bft) S-SW 209 0 min 0,000 mm 0,0 UV-I 0 W/m 0,1 C 2,2 C 9,7 km/h (2 Bft) 100,00 %
21.03.2016 03:18 3,2 C 80 % 1016,3 hPa 0,0 l/m 7,1 km/h (2 Bft) SW 235 0 min 0,000 mm 0,0 UV-I 0 W/m 0,1 C 2,5 C 8,0 km/h (2 Bft) 96,43 %
21.03.2016 03:19 3,2 C 80 % 1016,3 hPa 0,0 l/m 8,5 km/h (2 Bft) W-SW 244 0 min 0,000 mm 0,0 UV-I 0 W/m 0,1 C 1,3 C 11,3 km/h (2 Bft) 96,30 %
21.03.2016 03:20 3,2 C 80 % 1016,3 hPa 0,0 l/m 5,3 km/h (1 Bft) SW 225 0 min 0,000 mm 0,0 UV-I 0 W/m 0,1 C 3,2 C 9,7 km/h (2 Bft) 100,00 %
21.03.2016 03:21 3,2 C 80 % 1016,3 hPa 0,0 l/m 8,8 km/h (2 Bft) SW 218 0 min 0,000 mm 0,0 UV-I 0 W/m 0,1 C 1,0 C 12,9 km/h (3 Bft) 94,74 %
21.03.2016 03:22 3,2 C 80 % 1016,3 hPa 0,0 l/m 6,9 km/h (2 Bft) W-SW 252 0 min 0,000 mm 0,0 UV-I 0 W/m 0,1 C 2,7 C 8,0 km/h (2 Bft) 100,00 %
21.03.2016 03:23 3,2 C 80 % 1016,4 hPa 0,0 l/m 6,3 km/h (2 Bft) W 269 0 min 0,000 mm 0,0 UV-I 0 W/m 0,1 C 3,2 C 9,7 km/h (2 Bft) 95,65 %
21.03.2016 03:24 3,2 C 81 % 1016,3 hPa 0,0 l/m 6,5 km/h (2 Bft) W 259 0 min 0,000 mm 0,0 UV-I 0 W/m 0,3 C 3,1 C 9,7 km/h (2 Bft) 100,00 %
21.03.2016 03:25 3,2 C 80 % 1016,4 hPa 0,0 l/m 4,4 km/h (1 Bft) W-SW 252 0 min 0,000 mm 0,0 UV-I 0 W/m 0,1 C 3,2 C 4,8 km/h (1 Bft) 100,00 %
21.03.2016 03:26 3,2 C 80 % 1016,3 hPa 0,0 l/m 5,4 km/h (1 Bft) SW 222 0 min 0,000 mm 0,0 UV-I 0 W/m 0,1 C 3,2 C 8,0 km/h (2 Bft) 100,00 %
21.03.2016 03:27 3,2 C 80 % 1016,3 hPa 0,0 l/m 6,9 km/h (2 Bft) SW 232 0 min 0,000 mm 0,0 UV-I 0 W/m 0,1 C 2,7 C 12,9 km/h (3 Bft) 100,00 %
21.03.2016 03:28 3,2 C 80 % 1016,3 hPa 0,0 l/m 7,7 km/h (2 Bft) SW 227 0 min 0,000 mm 0,0 UV-I 0 W/m 0,1 C 2,0 C 11,3 km/h (2 Bft) 100,00 %
21.03.2016 03:29 3,2 C 80 % 1016,3 hPa 0,0 l/m 9,6 km/h (2 Bft) SW 229 0 min 0,000 mm 0,0 UV-I 0 W/m 0,1 C 0,4 C 12,9 km/h (3 Bft) 100,00 %
21.03.2016 03:30 3,2 C 79 % 1016,3 hPa 0,0 l/m 5,0 km/h (1 Bft) S-SW 206 0 min 0,000 mm 0,0 UV-I 0 W/m -0,1 C 3,2 C 8,0 km/h (2 Bft) 96,30 %
21.03.2016 03:31 3,2 C 79 % 1016,3 hPa 0,0 l/m 5,1 km/h (1 Bft) SW 226 0 min 0,000 mm 0,0 UV-I 0 W/m -0,1 C 3,2 C 8,0 km/h (2 Bft) 100,00 %
21.03.2016 03:32 3,2 C 79 % 1016,3 hPa 0,0 l/m 8,4 km/h (2 Bft) W-SW 258 0 min 0,000 mm 0,0 UV-I 0 W/m -0,1 C 1,4 C 12,9 km/h (3 Bft) 100,00 %
21.03.2016 03:33 3,2 C 79 % 1016,3 hPa 0,0 l/m 10,2 km/h (2 Bft) W 261 0 min 0,000 mm 0,0 UV-I 0 W/m -0,1 C -0,1 C 12,9 km/h (3 Bft) 100,00 %
21.03.2016 03:34 3,2 C 80 % 1016,3 hPa 0,0 l/m 6,7 km/h (2 Bft) W 264 0 min 0,000 mm 0,0 UV-I 0 W/m 0,1 C 2,9 C 9,7 km/h (2 Bft) 100,00 %
21.03.2016 03:35 3,2 C 80 % 1016,3 hPa 0,0 l/m 4,3 km/h (1 Bft) W-SW 251 0 min 0,000 mm 0,0 UV-I 0 W/m 0,1 C 3,2 C 8,0 km/h (2 Bft) 100,00 %
21.03.2016 03:36 3,2 C 79 % 1016,3 hPa 0,0 l/m 8,9 km/h (2 Bft) SW 234 0 min 0,000 mm 0,0 UV-I 0 W/m -0,1 C 0,9 C 14,5 km/h (3 Bft) 100,00 %
21.03.2016 03:37 3,2 C 79 % 1016,4 hPa 0,0 l/m 8,0 km/h (2 Bft) W-SW 246 0 min 0,000 mm 0,0 UV-I 0 W/m -0,1 C 1,7 C 12,9 km/h (3 Bft) 92,31 %
21.03.2016 03:38 3,2 C 79 % 1016,4 hPa 0,0 l/m 11,7 km/h (2 Bft) SW 215 0 min 0,000 mm 0,0 UV-I 0 W/m -0,1 C -1,1 C 16,1 km/h (3 Bft) 100,00 %
21.03.2016 03:39 3,2 C 79 % 1016,4 hPa 0,0 l/m 10,0 km/h (2 Bft) W-SW 248 0 min 0,000 mm 0,0 UV-I 0 W/m -0,1 C 0,1 C 16,1 km/h (3 Bft) 100,00 %
21.03.2016 03:40 3,2 C 79 % 1016,4 hPa 0,0 l/m 7,2 km/h (2 Bft) W-SW 238 0 min 0,000 mm 0,0 UV-I 0 W/m -0,1 C 2,4 C 11,3 km/h (2 Bft) 96,30 %
21.03.2016 03:41 3,2 C 79 % 1016,4 hPa 0,0 l/m 8,6 km/h (2 Bft) SW 234 0 min 0,000 mm 0,0 UV-I 0 W/m -0,1 C 1,2 C 11,3 km/h (2 Bft) 100,00 %
21.03.2016 03:42 3,2 C 79 % 1016,4 hPa 0,0 l/m 5,4 km/h (1 Bft) SW 234 0 min 0,000 mm 0,0 UV-I 0 W/m -0,1 C 3,2 C 8,0 km/h (2 Bft) 100,00 %
21.03.2016 03:43 3,2 C 80 % 1016,4 hPa 0,0 l/m 5,2 km/h (1 Bft) SW 221 0 min 0,000 mm 0,0 UV-I 0 W/m 0,1 C 3,2 C 8,0 km/h (2 Bft) 100,00 %
21.03.2016 03:44 3,2 C 80 % 1016,3 hPa 0,0 l/m 8,1 km/h (2 Bft) W 277 0 min 0,000 mm 0,0 UV-I 0 W/m 0,1 C 1,6 C 11,3 km/h (2 Bft) 96,30 %
21.03.2016 03:45 3,2 C 80 % 1016,4 hPa 0,0 l/m 8,3 km/h (2 Bft) W-SW 257 0 min 0,000 mm 0,0 UV-I 0 W/m 0,1 C 1,5 C 11,3 km/h (2 Bft) 100,00 %
21.03.2016 03:46 3,2 C 80 % 1016,4 hPa 0,0 l/m 8,4 km/h (2 Bft) W-SW 252 0 min 0,000 mm 0,0 UV-I 0 W/m 0,1 C 1,4 C 11,3 km/h (2 Bft) 100,00 %
21.03.2016 03:47 3,2 C 80 % 1016,4 hPa 0,0 l/m 11,3 km/h (2 Bft) SW 232 0 min 0,000 mm 0,0 UV-I 0 W/m 0,1 C -0,8 C 16,1 km/h (3 Bft) 100,00 %
21.03.2016 03:48 3,2 C 80 % 1016,4 hPa 0,0 l/m 6,2 km/h (2 Bft) W-SW 246 0 min 0,000 mm 0,0 UV-I 0 W/m 0,1 C 3,2 C 9,7 km/h (2 Bft) 100,00 %
21.03.2016 03:49 3,2 C 80 % 1016,4 hPa 0,0 l/m 9,5 km/h (2 Bft) W 260 0 min 0,000 mm 0,0 UV-I 0 W/m 0,1 C 0,5 C 16,1 km/h (3 Bft) 100,00 %
21.03.2016 03:50 3,2 C 79 % 1016,4 hPa 0,0 l/m 11,3 km/h (2 Bft) W-SW 237 0 min 0,000 mm 0,0 UV-I 0 W/m -0,1 C -0,8 C 14,5 km/h (3 Bft) 100,00 %
21.03.2016 03:51 3,2 C 79 % 1016,4 hPa 0,0 l/m 9,9 km/h (2 Bft) W-SW 248 0 min 0,000 mm 0,0 UV-I 0 W/m -0,1 C 0,2 C 14,5 km/h (3 Bft) 100,00 %
21.03.2016 03:52 3,2 C 79 % 1016,5 hPa 0,0 l/m 11,0 km/h (2 Bft) SW 229 0 min 0,000 mm 0,0 UV-I 0 W/m -0,1 C -0,6 C 14,5 km/h (3 Bft) 100,00 %
21.03.2016 03:53 3,2 C 79 % 1016,5 hPa 0,0 l/m 10,6 km/h (2 Bft) W 259 0 min 0,000 mm 0,0 UV-I 0 W/m -0,1 C -0,4 C 12,9 km/h (3 Bft) 100,00 %
21.03.2016 03:54 3,2 C 79 % 1016,5 hPa 0,0 l/m 8,0 km/h (2 Bft) W 260 0 min 0,000 mm 0,0 UV-I 0 W/m -0,1 C 1,7 C 14,5 km/h (3 Bft) 100,00 %
21.03.2016 03:55 3,2 C 79 % 1016,5 hPa 0,0 l/m 7,0 km/h (2 Bft) W 260 0 min 0,000 mm 0,0 UV-I 0 W/m -0,1 C 2,6 C 11,3 km/h (2 Bft) 100,00 %
21.03.2016 03:56 3,2 C 79 % 1016,5 hPa 0,0 l/m 9,3 km/h (2 Bft) W 271 0 min 0,000 mm 0,0 UV-I 0 W/m -0,1 C 0,6 C 12,9 km/h (3 Bft) 100,00 %
21.03.2016 03:57 3,2 C 79 % 1016,5 hPa 0,0 l/m 11,3 km/h (2 Bft) W 263 0 min 0,000 mm 0,0 UV-I 0 W/m -0,1 C -0,8 C 17,7 km/h (3 Bft) 96,30 %
21.03.2016 03:58 3,2 C 79 % 1016,4 hPa 0,0 l/m 12,7 km/h (3 Bft) W-SW 250 0 min 0,000 mm 0,0 UV-I 0 W/m -0,1 C -1,8 C 20,9 km/h (4 Bft) 100,00 %
21.03.2016 03:59 3,2 C 79 % 1016,4 hPa 0,0 l/m 11,6 km/h (2 Bft) S-SW 209 0 min 0,000 mm 0,0 UV-I 0 W/m -0,1 C -1,1 C 16,1 km/h (3 Bft) 100,00 %
21.03.2016 04:00 3,2 C 79 % 1016,4 hPa 0,0 l/m 10,5 km/h (2 Bft) W-SW 252 0 min 0,026 mm 0,0 UV-I 0 W/m -0,1 C -0,3 C 14,5 km/h (3 Bft) 95,65 %
21.03.2016 04:03 3,2 C 79 % 1016,3 hPa 0,0 l/m 9,0 km/h (2 Bft) W 264 0 min 0,000 mm 0,0 UV-I 0 W/m -0,1 C 0,9 C 14,5 km/h (3 Bft) 100,00 %
21.03.2016 04:04 3,2 C 79 % 1016,3 hPa 0,0 l/m 10,2 km/h (2 Bft) W-SW 258 0 min 0,000 mm 0,0 UV-I 0 W/m -0,1 C -0,1 C 14,5 km/h (3 Bft) 100,00 %
21.03.2016 04:05 3,2 C 79 % 1016,3 hPa 0,0 l/m 7,9 km/h (2 Bft) W-SW 247 0 min 0,000 mm 0,0 UV-I 0 W/m -0,1 C 1,8 C 12,9 km/h (3 Bft) 100,00 %
21.03.2016 04:06 3,2 C 79 % 1016,3 hPa 0,0 l/m 9,7 km/h (2 Bft) W-SW 241 0 min 0,000 mm 0,0 UV-I 0 W/m -0,1 C 0,3 C 12,9 km/h (3 Bft) 100,00 %
21.03.2016 04:07 3,2 C 79 % 1016,4 hPa 0,0 l/m 8,5 km/h (2 Bft) W-SW 253 0 min 0,000 mm 0,0 UV-I 0 W/m -0,1 C 1,3 C 12,9 km/h (3 Bft) 96,30 %
21.03.2016 04:08 3,2 C 79 % 1016,4 hPa 0,0 l/m 9,5 km/h (2 Bft) W-SW 240 0 min 0,000 mm 0,0 UV-I 0 W/m -0,1 C 0,5 C 12,9 km/h (3 Bft) 100,00 %
21.03.2016 04:09 3,2 C 79 % 1016,3 hPa 0,0 l/m 8,9 km/h (2 Bft) W-SW 248 0 min 0,000 mm 0,0 UV-I 0 W/m -0,1 C 0,9 C 11,3 km/h (2 Bft) 100,00 %
21.03.2016 04:10 3,2 C 79 % 1016,3 hPa 0,0 l/m 10,4 km/h (2 Bft) W 261 0 min 0,000 mm 0,0 UV-I 0 W/m -0,1 C -0,2 C 14,5 km/h (3 Bft) 100,00 %
21.03.2016 04:11 3,2 C 80 % 1016,3 hPa 0,0 l/m 11,0 km/h (2 Bft) W 264 0 min 0,000 mm 0,0 UV-I 0 W/m 0,1 C -0,6 C 14,5 km/h (3 Bft) 100,00 %
21.03.2016 04:12 3,2 C 80 % 1016,3 hPa 0,0 l/m 6,4 km/h (2 Bft) SW 235 0 min 0,000 mm 0,0 UV-I 0 W/m 0,1 C 3,2 C 9,7 km/h (2 Bft) 96,30 %
21.03.2016 04:13 3,2 C 80 % 1016,3 hPa 0,0 l/m 7,8 km/h (2 Bft) SW 231 0 min 0,000 mm 0,0 UV-I 0 W/m 0,1 C 1,9 C 11,3 km/h (2 Bft) 100,00 %
21.03.2016 04:14 3,2 C 80 % 1016,3 hPa 0,0 l/m 9,4 km/h (2 Bft) W 265 0 min 0,000 mm 0,0 UV-I 0 W/m 0,1 C 0,5 C 12,9 km/h (3 Bft) 100,00 %
21.03.2016 04:15 3,2 C 80 % 1016,3 hPa 0,0 l/m 7,9 km/h (2 Bft) W 260 0 min 0,000 mm 0,0 UV-I 0 W/m 0,1 C 1,8 C 11,3 km/h (2 Bft) 100,00 %
21.03.2016 04:16 3,2 C 80 % 1016,3 hPa 0,0 l/m 13,3 km/h (3 Bft) W-SW 253 0 min 0,000 mm 0,0 UV-I 0 W/m 0,1 C -2,1 C 17,7 km/h (3 Bft) 100,00 %
21.03.2016 04:17 3,2 C 80 % 1016,3 hPa 0,0 l/m 8,8 km/h (2 Bft) W 264 0 min 0,000 mm 0,0 UV-I 0 W/m 0,1 C 1,0 C 12,9 km/h (3 Bft) 100,00 %
21.03.2016 04:18 3,2 C 80 % 1016,3 hPa 0,0 l/m 14,4 km/h (3 Bft) W-SW 255 0 min 0,000 mm 0,0 UV-I 0 W/m 0,1 C -2,8 C 17,7 km/h (3 Bft) 100,00 %
21.03.2016 04:19 3,2 C 80 % 1016,3 hPa 0,0 l/m 9,7 km/h (2 Bft) W 265 0 min 0,000 mm 0,0 UV-I 0 W/m 0,1 C 0,3 C 14,5 km/h (3 Bft) 100,00 %
21.03.2016 04:20 3,2 C 80 % 1016,3 hPa 0,0 l/m 10,6 km/h (2 Bft) W-SW 246 0 min 0,000 mm 0,0 UV-I 0 W/m 0,1 C -0,4 C 14,5 km/h (3 Bft) 100,00 %
21.03.2016 04:21 3,2 C 80 % 1016,3 hPa 0,0 l/m 9,5 km/h (2 Bft) W-SW 252 0 min 0,000 mm 0,0 UV-I 0 W/m 0,1 C 0,5 C 14,5 km/h (3 Bft) 100,00 %
21.03.2016 04:22 3,2 C 80 % 1016,3 hPa 0,0 l/m 10,3 km/h (2 Bft) W 259 0 min 0,000 mm 0,0 UV-I 0 W/m 0,1 C -0,1 C 16,1 km/h (3 Bft) 100,00 %
21.03.2016 04:23 3,2 C 80 % 1016,3 hPa 0,0 l/m 10,9 km/h (2 Bft) W 269 0 min 0,000 mm 0,0 UV-I 0 W/m 0,1 C -0,6 C 16,1 km/h (3 Bft) 100,00 %
21.03.2016 04:24 3,2 C 80 % 1016,3 hPa 0,0 l/m 9,3 km/h (2 Bft) W-SW 254 0 min 0,000 mm 0,0 UV-I 0 W/m 0,1 C 0,6 C 14,5 km/h (3 Bft) 93,10 %
21.03.2016 04:25 3,2 C 80 % 1016,3 hPa 0,0 l/m 8,5 km/h (2 Bft) SW 227 0 min 0,000 mm 0,0 UV-I 0 W/m 0,1 C 1,3 C 12,9 km/h (3 Bft) 100,00 %
21.03.2016 04:26 3,2 C 80 % 1016,3 hPa 0,0 l/m 9,4 km/h (2 Bft) SW 236 0 min 0,000 mm 0,0 UV-I 0 W/m 0,1 C 0,5 C 14,5 km/h (3 Bft) 100,00 %
21.03.2016 04:27 3,2 C 80 % 1016,3 hPa 0,0 l/m 8,4 km/h (2 Bft) SW 230 0 min 0,000 mm 0,0 UV-I 0 W/m 0,1 C 1,4 C 12,9 km/h (3 Bft) 93,33 %
21.03.2016 04:28 3,2 C 80 % 1016,4 hPa 0,0 l/m 12,2 km/h (2 Bft) W 273 0 min 0,000 mm 0,0 UV-I 0 W/m 0,1 C -1,4 C 19,3 km/h (3 Bft) 97,56 %
21.03.2016 04:29 3,2 C 80 % 1016,3 hPa 0,0 l/m 8,3 km/h (2 Bft) SW 216 0 min 0,000 mm 0,0 UV-I 0 W/m 0,1 C 1,5 C 11,3 km/h (2 Bft) 100,00 %
21.03.2016 04:30 3,2 C 80 % 1016,3 hPa 0,0 l/m 11,1 km/h (2 Bft) W-SW 237 0 min 0,000 mm 0,0 UV-I 0 W/m 0,1 C -0,7 C 14,5 km/h (3 Bft) 100,00 %
21.03.2016 04:31 3,2 C 80 % 1016,3 hPa 0,0 l/m 8,7 km/h (2 Bft) SW 230 0 min 0,000 mm 0,0 UV-I 0 W/m 0,1 C 1,1 C 11,3 km/h (2 Bft) 100,00 %
21.03.2016 04:32 3,2 C 80 % 1016,3 hPa 0,0 l/m 8,9 km/h (2 Bft) W-SW 252 0 min 0,000 mm 0,0 UV-I 0 W/m 0,1 C 0,9 C 14,5 km/h (3 Bft) 100,00 %
21.03.2016 04:33 3,2 C 80 % 1016,4 hPa 0,0 l/m 8,2 km/h (2 Bft) W-SW 244 0 min 0,000 mm 0,0 UV-I 0 W/m 0,1 C 1,5 C 12,9 km/h (3 Bft) 100,00 %
21.03.2016 04:34 3,2 C 80 % 1016,4 hPa 0,0 l/m 9,2 km/h (2 Bft) SW 226 0 min 0,000 mm 0,0 UV-I 0 W/m 0,1 C 0,7 C 14,5 km/h (3 Bft) 100,00 %
21.03.2016 04:35 3,2 C 80 % 1016,4 hPa 0,0 l/m 7,9 km/h (2 Bft) W-SW 255 0 min 0,000 mm 0,0 UV-I 0 W/m 0,1 C 1,8 C 11,3 km/h (2 Bft) 100,00 %
21.03.2016 04:36 3,2 C 80 % 1016,4 hPa 0,0 l/m 11,7 km/h (2 Bft) W-SW 240 0 min 0,000 mm 0,0 UV-I 0 W/m 0,1 C -1,1 C 14,5 km/h (3 Bft) 100,00 %
21.03.2016 04:37 3,2 C 80 % 1016,4 hPa 0,0 l/m 9,9 km/h (2 Bft) SW 232 0 min 0,000 mm 0,0 UV-I 0 W/m 0,1 C 0,2 C 14,5 km/h (3 Bft) 100,00 %
21.03.2016 04:38 3,2 C 80 % 1016,4 hPa 0,0 l/m 11,8 km/h (2 Bft) SW 236 0 min 0,000 mm 0,0 UV-I 0 W/m 0,1 C -1,2 C 16,1 km/h (3 Bft) 100,00 %
21.03.2016 04:39 3,2 C 80 % 1016,3 hPa 0,0 l/m 8,5 km/h (2 Bft) W-SW 247 0 min 0,000 mm 0,0 UV-I 0 W/m 0,1 C 1,3 C 16,1 km/h (3 Bft) 100,00 %
21.03.2016 04:40 3,2 C 81 % 1016,3 hPa 0,0 l/m 12,0 km/h (2 Bft) W-SW 258 0 min 0,000 mm 0,0 UV-I 0 W/m 0,3 C -1,3 C 17,7 km/h (3 Bft) 100,00 %
21.03.2016 04:41 3,2 C 81 % 1016,4 hPa 0,0 l/m 8,4 km/h (2 Bft) W-SW 250 0 min 0,000 mm 0,0 UV-I 0 W/m 0,3 C 1,4 C 12,9 km/h (3 Bft) 93,33 %
21.03.2016 04:42 3,2 C 81 % 1016,3 hPa 0,0 l/m 7,7 km/h (2 Bft) W-SW 242 0 min 0,000 mm 0,0 UV-I 0 W/m 0,3 C 2,0 C 9,7 km/h (2 Bft) 100,00 %
21.03.2016 04:43 3,2 C 81 % 1016,4 hPa 0,0 l/m 11,5 km/h (2 Bft) W-SW 255 0 min 0,000 mm 0,0 UV-I 0 W/m 0,3 C -1,0 C 16,1 km/h (3 Bft) 96,67 %
21.03.2016 04:44 3,2 C 81 % 1016,4 hPa 0,0 l/m 8,0 km/h (2 Bft) W-SW 256 0 min 0,000 mm 0,0 UV-I 0 W/m 0,3 C 1,7 C 11,3 km/h (2 Bft) 100,00 %
21.03.2016 04:45 3,2 C 81 % 1016,4 hPa 0,0 l/m 9,3 km/h (2 Bft) W-SW 240 0 min 0,000 mm 0,0 UV-I 0 W/m 0,3 C 0,6 C 12,9 km/h (3 Bft) 100,00 %
21.03.2016 04:46 3,2 C 81 % 1016,4 hPa 0,0 l/m 8,2 km/h (2 Bft) W-SW 246 0 min 0,000 mm 0,0 UV-I 0 W/m 0,3 C 1,5 C 12,9 km/h (3 Bft) 96,67 %
21.03.2016 04:47 3,1 C 81 % 1016,4 hPa 0,0 l/m 10,4 km/h (2 Bft) SW 228 0 min 0,000 mm 0,0 UV-I 0 W/m 0,2 C -0,3 C 16,1 km/h (3 Bft) 100,00 %
21.03.2016 04:48 3,2 C 81 % 1016,4 hPa 0,0 l/m 9,8 km/h (2 Bft) W-SW 252 0 min 0,000 mm 0,0 UV-I 0 W/m 0,3 C 0,2 C 14,5 km/h (3 Bft) 100,00 %
21.03.2016 04:49 3,1 C 81 % 1016,4 hPa 0,0 l/m 10,4 km/h (2 Bft) W-SW 241 0 min 0,000 mm 0,0 UV-I 0 W/m 0,2 C -0,3 C 16,1 km/h (3 Bft) 100,00 %
21.03.2016 04:50 3,1 C 81 % 1016,4 hPa 0,0 l/m 12,2 km/h (2 Bft) W-SW 240 0 min 0,000 mm 0,0 UV-I 0 W/m 0,2 C -1,6 C 16,1 km/h (3 Bft) 100,00 %
21.03.2016 04:51 3,1 C 81 % 1016,4 hPa 0,0 l/m 10,6 km/h (2 Bft) SW 215 0 min 0,000 mm 0,0 UV-I 0 W/m 0,2 C -0,5 C 14,5 km/h (3 Bft) 100,00 %
21.03.2016 04:52 3,1 C 81 % 1016,4 hPa 0,0 l/m 11,3 km/h (2 Bft) SW 226 0 min 0,000 mm 0,0 UV-I 0 W/m 0,2 C -1,0 C 17,7 km/h (3 Bft) 100,00 %
21.03.2016 04:53 3,1 C 81 % 1016,4 hPa 0,0 l/m 12,1 km/h (2 Bft) SW 226 0 min 0,000 mm 0,0 UV-I 0 W/m 0,2 C -1,5 C 16,1 km/h (3 Bft) 92,31 %
21.03.2016 04:54 3,1 C 81 % 1016,4 hPa 0,0 l/m 9,6 km/h (2 Bft) SW 225 0 min 0,000 mm 0,0 UV-I 0 W/m 0,2 C 0,3 C 12,9 km/h (3 Bft) 96,97 %
21.03.2016 04:55 3,1 C 81 % 1016,4 hPa 0,0 l/m 7,3 km/h (2 Bft) W-SW 250 0 min 0,000 mm 0,0 UV-I 0 W/m 0,2 C 2,2 C 11,3 km/h (2 Bft) 100,00 %
21.03.2016 04:56 3,1 C 81 % 1016,4 hPa 0,0 l/m 9,9 km/h (2 Bft) W-SW 254 0 min 0,000 mm 0,0 UV-I 0 W/m 0,2 C 0,0 C 16,1 km/h (3 Bft) 96,67 %
21.03.2016 04:57 3,1 C 81 % 1016,4 hPa 0,0 l/m 8,8 km/h (2 Bft) W-SW 256 0 min 0,000 mm 0,0 UV-I 0 W/m 0,2 C 0,9 C 14,5 km/h (3 Bft) 100,00 %
21.03.2016 04:58 3,1 C 81 % 1016,4 hPa 0,0 l/m 11,1 km/h (2 Bft) W 259 0 min 0,000 mm 0,0 UV-I 0 W/m 0,2 C -0,8 C 16,1 km/h (3 Bft) 96,55 %
21.03.2016 04:59 3,1 C 81 % 1016,5 hPa 0,0 l/m 10,5 km/h (2 Bft) W 264 0 min 0,000 mm 0,0 UV-I 0 W/m 0,2 C -0,4 C 14,5 km/h (3 Bft) 100,00 %
21.03.2016 05:00 3,1 C 81 % 1016,5 hPa 0,0 l/m 9,6 km/h (2 Bft) W-SW 247 0 min 0,025 mm 0,0 UV-I 0 W/m 0,2 C 0,3 C 12,9 km/h (3 Bft) 95,83 %
21.03.2016 05:02 3,1 C 81 % 1016,5 hPa 0,0 l/m 11,2 km/h (2 Bft) W-SW 248 0 min 0,000 mm 0,0 UV-I 0 W/m 0,2 C -0,9 C 16,1 km/h (3 Bft) 98,11 %
21.03.2016 05:03 3,1 C 81 % 1016,5 hPa 0,0 l/m 13,7 km/h (3 Bft) W 276 0 min 0,000 mm 0,0 UV-I 0 W/m 0,2 C -2,5 C 16,1 km/h (3 Bft) 91,67 %
21.03.2016 05:04 3,1 C 81 % 1016,5 hPa 0,0 l/m 12,1 km/h (2 Bft) W-SW 251 0 min 0,000 mm 0,0 UV-I 0 W/m 0,2 C -1,5 C 17,7 km/h (3 Bft) 100,00 %
21.03.2016 05:05 3,1 C 81 % 1016,5 hPa 0,0 l/m 10,6 km/h (2 Bft) W-SW 254 0 min 0,000 mm 0,0 UV-I 0 W/m 0,2 C -0,5 C 14,5 km/h (3 Bft) 96,30 %
21.03.2016 05:06 3,1 C 81 % 1016,5 hPa 0,0 l/m 12,3 km/h (3 Bft) W-SW 244 0 min 0,000 mm 0,0 UV-I 0 W/m 0,2 C -1,6 C 16,1 km/h (3 Bft) 96,15 %
21.03.2016 05:07 3,1 C 81 % 1016,6 hPa 0,0 l/m 8,6 km/h (2 Bft) W-SW 254 0 min 0,000 mm 0,0 UV-I 0 W/m 0,2 C 1,1 C 12,9 km/h (3 Bft) 100,00 %
21.03.2016 05:08 3,1 C 81 % 1016,6 hPa 0,0 l/m 11,0 km/h (2 Bft) W-SW 243 0 min 0,000 mm 0,0 UV-I 0 W/m 0,2 C -0,8 C 14,5 km/h (3 Bft) 96,15 %
21.03.2016 05:09 3,1 C 81 % 1016,6 hPa 0,0 l/m 12,2 km/h (2 Bft) W 263 0 min 0,000 mm 0,0 UV-I 0 W/m 0,2 C -1,6 C 16,1 km/h (3 Bft) 100,00 %
21.03.2016 05:10 3,1 C 81 % 1016,6 hPa 0,0 l/m 9,2 km/h (2 Bft) W-SW 238 0 min 0,000 mm 0,0 UV-I 0 W/m 0,2 C 0,6 C 11,3 km/h (2 Bft) 94,12 %
21.03.2016 05:11 3,1 C 81 % 1016,6 hPa 0,0 l/m 8,9 km/h (2 Bft) W-SW 255 0 min 0,000 mm 0,0 UV-I 0 W/m 0,2 C 0,8 C 14,5 km/h (3 Bft) 100,00 %
21.03.2016 05:12 3,1 C 81 % 1016,6 hPa 0,0 l/m 8,3 km/h (2 Bft) W 269 0 min 0,000 mm 0,0 UV-I 0 W/m 0,2 C 1,3 C 14,5 km/h (3 Bft) 95,65 %
21.03.2016 05:13 3,1 C 81 % 1016,6 hPa 0,0 l/m 5,5 km/h (1 Bft) W-SW 257 0 min 0,000 mm 0,0 UV-I 0 W/m 0,2 C 3,1 C 9,7 km/h (2 Bft) 100,00 %
21.03.2016 05:14 3,1 C 81 % 1016,6 hPa 0,0 l/m 5,8 km/h (2 Bft) W-SW 252 0 min 0,000 mm 0,0 UV-I 0 W/m 0,2 C 3,1 C 11,3 km/h (2 Bft) 96,15 %
21.03.2016 05:15 3,1 C 81 % 1016,6 hPa 0,0 l/m 6,5 km/h (2 Bft) W-SW 238 0 min 0,000 mm 0,0 UV-I 0 W/m 0,2 C 3,0 C 11,3 km/h (2 Bft) 87,50 %
21.03.2016 05:16 3,1 C 81 % 1016,6 hPa 0,0 l/m 9,9 km/h (2 Bft) W-SW 248 0 min 0,000 mm 0,0 UV-I 0 W/m 0,2 C 0,0 C 14,5 km/h (3 Bft) 100,00 %
21.03.2016 05:17 3,1 C 81 % 1016,6 hPa 0,0 l/m 4,7 km/h (1 Bft) W-SW 239 0 min 0,000 mm 0,0 UV-I 0 W/m 0,2 C 3,1 C 9,7 km/h (2 Bft) 96,30 %
21.03.2016 05:18 3,1 C 81 % 1016,6 hPa 0,0 l/m 13,8 km/h (3 Bft) W-SW 257 0 min 0,000 mm 0,0 UV-I 0 W/m 0,2 C -2,5 C 16,1 km/h (3 Bft) 100,00 %
21.03.2016 05:19 3,1 C 81 % 1016,6 hPa 0,0 l/m 11,0 km/h (2 Bft) W-SW 252 0 min 0,000 mm 0,0 UV-I 0 W/m 0,2 C -0,8 C 12,9 km/h (3 Bft) 95,83 %
21.03.2016 05:20 3,1 C 81 % 1016,6 hPa 0,0 l/m 9,2 km/h (2 Bft) W-SW 258 0 min 0,000 mm 0,0 UV-I 0 W/m 0,2 C 0,6 C 12,9 km/h (3 Bft) 100,00 %
21.03.2016 05:21 3,1 C 81 % 1016,6 hPa 0,0 l/m 10,6 km/h (2 Bft) W 261 0 min 0,000 mm 0,0 UV-I 0 W/m 0,2 C -0,5 C 12,9 km/h (3 Bft) 96,30 %
21.03.2016 05:22 3,1 C 81 % 1016,6 hPa 0,0 l/m 8,8 km/h (2 Bft) W 263 0 min 0,000 mm 0,0 UV-I 0 W/m 0,2 C 0,9 C 12,9 km/h (3 Bft) 100,00 %
21.03.2016 05:23 3,1 C 81 % 1016,6 hPa 0,0 l/m 9,8 km/h (2 Bft) W 277 0 min 0,000 mm 0,0 UV-I 0 W/m 0,2 C 0,1 C 12,9 km/h (3 Bft) 96,15 %
21.03.2016 05:24 3,1 C 81 % 1016,7 hPa 0,0 l/m 6,5 km/h (2 Bft) W-SW 253 0 min 0,000 mm 0,0 UV-I 0 W/m 0,2 C 3,0 C 11,3 km/h (2 Bft) 96,30 %
21.03.2016 05:25 3,1 C 81 % 1016,6 hPa 0,0 l/m 8,9 km/h (2 Bft) SW 225 0 min 0,000 mm 0,0 UV-I 0 W/m 0,2 C 0,8 C 12,9 km/h (3 Bft) 96,55 %
21.03.2016 05:26 3,1 C 81 % 1016,6 hPa 0,0 l/m 8,3 km/h (2 Bft) W 259 0 min 0,000 mm 0,0 UV-I 0 W/m 0,2 C 1,3 C 11,3 km/h (2 Bft) 100,00 %
21.03.2016 05:27 3,1 C 81 % 1016,7 hPa 0,0 l/m 6,7 km/h (2 Bft) W-SW 242 0 min 0,000 mm 0,0 UV-I 0 W/m 0,2 C 2,8 C 9,7 km/h (2 Bft) 96,15 %
21.03.2016 05:28 3,1 C 81 % 1016,7 hPa 0,0 l/m 8,2 km/h (2 Bft) W-SW 244 0 min 0,000 mm 0,0 UV-I 0 W/m 0,2 C 1,4 C 16,1 km/h (3 Bft) 96,30 %
21.03.2016 05:29 3,1 C 81 % 1016,7 hPa 0,0 l/m 11,1 km/h (2 Bft) W 267 0 min 0,000 mm 0,0 UV-I 0 W/m 0,2 C -0,8 C 16,1 km/h (3 Bft) 100,00 %
21.03.2016 05:30 3,1 C 81 % 1016,7 hPa 0,0 l/m 7,9 km/h (2 Bft) W 264 0 min 0,000 mm 0,0 UV-I 0 W/m 0,2 C 1,7 C 12,9 km/h (3 Bft) 100,00 %
21.03.2016 05:31 3,1 C 81 % 1016,7 hPa 0,0 l/m 3,0 km/h (1 Bft) W 273 0 min 0,000 mm 0,0 UV-I 0 W/m 0,2 C 3,1 C 4,8 km/h (1 Bft) 100,00 %
21.03.2016 05:32 3,1 C 81 % 1016,8 hPa 0,0 l/m 5,5 km/h (1 Bft) W 265 0 min 0,000 mm 0,0 UV-I 0 W/m 0,2 C 3,1 C 6,4 km/h (2 Bft) 100,00 %
21.03.2016 05:33 3,1 C 81 % 1016,8 hPa 0,0 l/m 7,2 km/h (2 Bft) W-SW 237 0 min 0,000 mm 0,0 UV-I 0 W/m 0,2 C 2,3 C 9,7 km/h (2 Bft) 100,00 %
21.03.2016 05:34 3,1 C 81 % 1016,7 hPa 0,0 l/m 7,5 km/h (2 Bft) W-SW 257 0 min 0,000 mm 0,0 UV-I 0 W/m 0,2 C 2,1 C 11,3 km/h (2 Bft) 96,30 %
21.03.2016 05:35 3,1 C 81 % 1016,7 hPa 0,0 l/m 6,6 km/h (2 Bft) SW 235 0 min 0,000 mm 0,0 UV-I 0 W/m 0,2 C 2,9 C 12,9 km/h (3 Bft) 91,30 %
21.03.2016 05:36 3,1 C 81 % 1016,7 hPa 0,0 l/m 6,8 km/h (2 Bft) W-SW 245 0 min 0,000 mm 0,0 UV-I 0 W/m 0,2 C 2,7 C 9,7 km/h (2 Bft) 100,00 %
21.03.2016 05:37 3,1 C 81 % 1016,7 hPa 0,0 l/m 11,2 km/h (2 Bft) SW 232 0 min 0,000 mm 0,0 UV-I 0 W/m 0,2 C -0,9 C 16,1 km/h (3 Bft) 95,65 %
21.03.2016 05:38 3,1 C 81 % 1016,7 hPa 0,0 l/m 9,7 km/h (2 Bft) W-SW 244 0 min 0,000 mm 0,0 UV-I 0 W/m 0,2 C 0,2 C 12,9 km/h (3 Bft) 100,00 %
21.03.2016 05:39 3,1 C 81 % 1016,7 hPa 0,0 l/m 6,0 km/h (2 Bft) SW 233 0 min 0,000 mm 0,0 UV-I 0 W/m 0,2 C 3,1 C 8,0 km/h (2 Bft) 100,00 %
21.03.2016 05:40 3,1 C 81 % 1016,7 hPa 0,0 l/m 7,0 km/h (2 Bft) W-SW 250 0 min 0,000 mm 0,0 UV-I 0 W/m 0,2 C 2,5 C 12,9 km/h (3 Bft) 100,00 %
21.03.2016 05:41 3,1 C 81 % 1016,8 hPa 0,0 l/m 5,3 km/h (1 Bft) W 259 0 min 0,000 mm 0,0 UV-I 0 W/m 0,2 C 3,1 C 8,0 km/h (2 Bft) 100,00 %
21.03.2016 05:42 3,1 C 81 % 1016,8 hPa 0,0 l/m 8,0 km/h (2 Bft) W-SW 246 0 min 0,000 mm 0,0 UV-I 0 W/m 0,2 C 1,6 C 12,9 km/h (3 Bft) 100,00 %
21.03.2016 05:43 3,1 C 81 % 1016,7 hPa 0,0 l/m 10,0 km/h (2 Bft) W-SW 256 0 min 0,000 mm 0,0 UV-I 0 W/m 0,2 C -0,0 C 14,5 km/h (3 Bft) 100,00 %
21.03.2016 05:44 3,1 C 81 % 1016,7 hPa 0,0 l/m 8,0 km/h (2 Bft) W 267 0 min 0,000 mm 0,0 UV-I 0 W/m 0,2 C 1,6 C 9,7 km/h (2 Bft) 100,00 %
21.03.2016 05:45 3,1 C 81 % 1016,8 hPa 0,0 l/m 10,3 km/h (2 Bft) W-SW 248 0 min 0,000 mm 0,0 UV-I 0 W/m 0,2 C -0,2 C 12,9 km/h (3 Bft) 100,00 %
21.03.2016 05:46 3,1 C 81 % 1016,8 hPa 0,0 l/m 6,3 km/h (2 Bft) W-SW 247 0 min 0,000 mm 0,0 UV-I 0 W/m 0,2 C 3,1 C 9,7 km/h (2 Bft) 100,00 %
21.03.2016 05:47 3,1 C 81 % 1016,8 hPa 0,0 l/m 8,5 km/h (2 Bft) SW 236 0 min 0,000 mm 0,0 UV-I 0 W/m 0,2 C 1,2 C 12,9 km/h (3 Bft) 100,00 %
21.03.2016 05:48 3,1 C 81 % 1016,8 hPa 0,0 l/m 7,1 km/h (2 Bft) SW 231 0 min 0,000 mm 0,0 UV-I 0 W/m 0,2 C 2,4 C 11,3 km/h (2 Bft) 100,00 %
21.03.2016 05:49 3,1 C 81 % 1016,9 hPa 0,0 l/m 8,7 km/h (2 Bft) W-SW 251 0 min 0,000 mm 0,0 UV-I 0 W/m 0,2 C 1,0 C 11,3 km/h (2 Bft) 100,00 %
21.03.2016 05:50 3,1 C 81 % 1016,9 hPa 0,0 l/m 9,1 km/h (2 Bft) W-SW 257 0 min 0,000 mm 0,0 UV-I 0 W/m 0,2 C 0,7 C 12,9 km/h (3 Bft) 100,00 %
21.03.2016 05:51 3,1 C 81 % 1016,9 hPa 0,0 l/m 7,3 km/h (2 Bft) W-SW 246 0 min 0,000 mm 0,0 UV-I 0 W/m 0,2 C 2,2 C 11,3 km/h (2 Bft) 100,00 %
21.03.2016 05:52 3,1 C 81 % 1016,9 hPa 0,0 l/m 6,2 km/h (2 Bft) W-SW 240 0 min 0,000 mm 0,0 UV-I 0 W/m 0,2 C 3,1 C 11,3 km/h (2 Bft) 100,00 %
21.03.2016 05:53 3,1 C 81 % 1016,9 hPa 0,0 l/m 7,3 km/h (2 Bft) W-SW 246 0 min 0,000 mm 0,0 UV-I 0 W/m 0,2 C 2,2 C 11,3 km/h (2 Bft) 100,00 %
21.03.2016 05:54 3,1 C 82 % 1016,9 hPa 0,0 l/m 7,2 km/h (2 Bft) SW 225 0 min 0,000 mm 0,0 UV-I 0 W/m 0,3 C 2,3 C 11,3 km/h (2 Bft) 100,00 %
21.03.2016 05:55 3,1 C 82 % 1016,9 hPa 0,0 l/m 8,5 km/h (2 Bft) W-SW 248 0 min 0,000 mm 0,0 UV-I 0 W/m 0,3 C 1,2 C 12,9 km/h (3 Bft) 100,00 %
21.03.2016 05:56 3,1 C 82 % 1016,9 hPa 0,0 l/m 7,0 km/h (2 Bft) W 260 0 min 0,000 mm 0,0 UV-I 0 W/m 0,3 C 2,5 C 9,7 km/h (2 Bft) 100,00 %
21.03.2016 05:57 3,1 C 82 % 1017,0 hPa 0,0 l/m 6,0 km/h (2 Bft) W 260 0 min 0,000 mm 0,0 UV-I 0 W/m 0,3 C 3,1 C 8,0 km/h (2 Bft) 100,00 %
21.03.2016 05:58 3,1 C 82 % 1016,9 hPa 0,0 l/m 8,9 km/h (2 Bft) W-SW 252 0 min 0,000 mm 0,0 UV-I 0 W/m 0,3 C 0,8 C 12,9 km/h (3 Bft) 100,00 %
21.03.2016 05:59 3,1 C 82 % 1016,9 hPa 0,0 l/m 7,0 km/h (2 Bft) W 263 0 min 0,000 mm 0,0 UV-I 0 W/m 0,3 C 2,5 C 11,3 km/h (2 Bft) 100,00 %
21.03.2016 06:00 3,1 C 82 % 1016,9 hPa 0,0 l/m 8,9 km/h (2 Bft) W 271 0 min 0,000 mm 0,0 UV-I 0 W/m 0,3 C 0,8 C 11,3 km/h (2 Bft) 96,15 %
21.03.2016 06:01 3,1 C 82 % 1017,0 hPa 0,0 l/m 8,2 km/h (2 Bft) W 265 0 min 0,025 mm 0,0 UV-I 0 W/m 0,3 C 1,4 C 12,9 km/h (3 Bft) 93,33 %
21.03.2016 06:02 3,1 C 82 % 1017,0 hPa 0,0 l/m 9,9 km/h (2 Bft) W 281 0 min 0,000 mm 0,0 UV-I 0 W/m 0,3 C 0,0 C 12,9 km/h (3 Bft) 100,00 %
21.03.2016 06:03 3,1 C 82 % 1016,9 hPa 0,0 l/m 8,9 km/h (2 Bft) SW 232 0 min 0,000 mm 0,0 UV-I 0 W/m 0,3 C 0,8 C 12,9 km/h (3 Bft) 100,00 %
21.03.2016 06:04 3,1 C 82 % 1016,9 hPa 0,0 l/m 7,4 km/h (2 Bft) W-SW 249 0 min 0,000 mm 0,0 UV-I 0 W/m 0,3 C 2,2 C 12,9 km/h (3 Bft) 100,00 %
21.03.2016 06:05 3,1 C 82 % 1016,9 hPa 0,0 l/m 9,4 km/h (2 Bft) W-SW 239 0 min 0,000 mm 0,0 UV-I 0 W/m 0,3 C 0,4 C 12,9 km/h (3 Bft) 100,00 %
21.03.2016 06:06 3,1 C 82 % 1017,0 hPa 0,0 l/m 6,3 km/h (2 Bft) W 261 0 min 0,000 mm 0,0 UV-I 0 W/m 0,3 C 3,1 C 11,3 km/h (2 Bft) 100,00 %
21.03.2016 06:07 3,1 C 82 % 1017,0 hPa 0,0 l/m 7,9 km/h (2 Bft) W-SW 253 0 min 0,000 mm 0,0 UV-I 0 W/m 0,3 C 1,7 C 12,9 km/h (3 Bft) 100,00 %
21.03.2016 06:08 3,1 C 82 % 1017,0 hPa 0,0 l/m 8,4 km/h (2 Bft) W 281 0 min 0,000 mm 0,0 UV-I 0 W/m 0,3 C 1,3 C 11,3 km/h (2 Bft) 100,00 %
21.03.2016 06:09 3,1 C 82 % 1017,0 hPa 0,0 l/m 8,0 km/h (2 Bft) W-SW 258 0 min 0,000 mm 0,0 UV-I 0 W/m 0,3 C 1,6 C 11,3 km/h (2 Bft) 100,00 %
21.03.2016 06:10 3,1 C 82 % 1017,1 hPa 0,0 l/m 6,0 km/h (2 Bft) W 262 0 min 0,000 mm 0,0 UV-I 0 W/m 0,3 C 3,1 C 8,0 km/h (2 Bft) 100,00 %
21.03.2016 06:11 3,1 C 82 % 1017,1 hPa 0,0 l/m 7,8 km/h (2 Bft) W-SW 250 0 min 0,000 mm 0,0 UV-I 0 W/m 0,3 C 1,8 C 14,5 km/h (3 Bft) 100,00 %
21.03.2016 06:12 3,1 C 82 % 1017,0 hPa 0,0 l/m 10,8 km/h (2 Bft) W-SW 248 0 min 0,000 mm 0,0 UV-I 0 W/m 0,3 C -0,6 C 14,5 km/h (3 Bft) 100,00 %
21.03.2016 06:13 3,1 C 82 % 1017,1 hPa 0,0 l/m 7,4 km/h (2 Bft) W 265 0 min 0,000 mm 0,0 UV-I 0 W/m 0,3 C 2,2 C 9,7 km/h (2 Bft) 100,00 %
21.03.2016 06:14 3,1 C 82 % 1017,1 hPa 0,0 l/m 7,2 km/h (2 Bft) W-SW 248 0 min 0,000 mm 0,0 UV-I 0 W/m 0,3 C 2,3 C 9,7 km/h (2 Bft) 100,00 %
21.03.2016 06:15 3,1 C 82 % 1017,0 hPa 0,0 l/m 5,5 km/h (1 Bft) W-SW 246 0 min 0,000 mm 0,0 UV-I 0 W/m 0,3 C 3,1 C 8,0 km/h (2 Bft) 100,00 %
21.03.2016 06:16 3,1 C 82 % 1017,1 hPa 0,0 l/m 7,2 km/h (2 Bft) W-SW 246 0 min 0,000 mm 0,0 UV-I 0 W/m 0,3 C 2,3 C 9,7 km/h (2 Bft) 100,00 %
21.03.2016 06:17 3,1 C 82 % 1017,1 hPa 0,0 l/m 6,8 km/h (2 Bft) W-SW 250 0 min 0,000 mm 0,0 UV-I 0 W/m 0,3 C 2,7 C 8,0 km/h (2 Bft) 100,00 %
21.03.2016 06:18 3,1 C 82 % 1017,1 hPa 0,0 l/m 5,7 km/h (1 Bft) W 262 0 min 0,000 mm 0,0 UV-I 0 W/m 0,3 C 3,1 C 6,4 km/h (2 Bft) 100,00 %
21.03.2016 06:19 3,1 C 82 % 1017,1 hPa 0,0 l/m 3,8 km/h (1 Bft) W 267 0 min 0,000 mm 0,0 UV-I 0 W/m 0,3 C 3,1 C 6,4 km/h (2 Bft) 100,00 %
21.03.2016 06:20 3,1 C 82 % 1017,1 hPa 0,0 l/m 3,2 km/h (1 Bft) W-SW 252 0 min 0,000 mm 0,0 UV-I 0 W/m 0,3 C 3,1 C 3,2 km/h (1 Bft) 100,00 %
21.03.2016 06:21 3,1 C 82 % 1017,2 hPa 0,0 l/m 4,8 km/h (1 Bft) W-SW 248 0 min 0,000 mm 0,0 UV-I 4 W/m 0,3 C 3,1 C 6,4 km/h (2 Bft) 95,65 %
21.03.2016 06:22 3,1 C 82 % 1017,2 hPa 0,0 l/m 2,5 km/h (1 Bft) W-SW 249 0 min 0,000 mm 0,0 UV-I 5 W/m 0,3 C 3,1 C 4,8 km/h (1 Bft) 100,00 %
21.03.2016 06:23 3,1 C 82 % 1017,2 hPa 0,0 l/m 2,5 km/h (1 Bft) W-SW 249 0 min 0,000 mm 0,0 UV-I 5 W/m 0,3 C 3,1 C 3,2 km/h (1 Bft) 100,00 %
21.03.2016 06:24 3,1 C 82 % 1017,2 hPa 0,0 l/m 3,5 km/h (1 Bft) W-NW 292 0 min 0,000 mm 0,0 UV-I 5 W/m 0,3 C 3,1 C 6,4 km/h (2 Bft) 100,00 %
21.03.2016 06:25 3,1 C 82 % 1017,3 hPa 0,0 l/m 5,1 km/h (1 Bft) W 269 0 min 0,000 mm 0,0 UV-I 5 W/m 0,3 C 3,1 C 6,4 km/h (2 Bft) 100,00 %
21.03.2016 06:26 3,1 C 82 % 1017,3 hPa 0,0 l/m 5,1 km/h (1 Bft) W-NW 285 0 min 0,000 mm 0,0 UV-I 5 W/m 0,3 C 3,1 C 9,7 km/h (2 Bft) 100,00 %
21.03.2016 06:27 3,1 C 82 % 1017,3 hPa 0,0 l/m 5,8 km/h (2 Bft) W-SW 245 0 min 0,000 mm 0,0 UV-I 5 W/m 0,3 C 3,1 C 9,7 km/h (2 Bft) 100,00 %
21.03.2016 06:28 3,1 C 82 % 1017,2 hPa 0,0 l/m 4,8 km/h (1 Bft) W-SW 248 0 min 0,000 mm 0,0 UV-I 7 W/m 0,3 C 3,1 C 6,4 km/h (2 Bft) 100,00 %
21.03.2016 06:29 3,1 C 82 % 1017,2 hPa 0,0 l/m 5,2 km/h (1 Bft) W 267 0 min 0,000 mm 0,0 UV-I 7 W/m 0,3 C 3,1 C 9,7 km/h (2 Bft) 100,00 %
21.03.2016 06:30 3,1 C 82 % 1017,2 hPa 0,0 l/m 3,5 km/h (1 Bft) W-SW 257 0 min 0,000 mm 0,0 UV-I 7 W/m 0,3 C 3,1 C 6,4 km/h (2 Bft) 100,00 %
21.03.2016 06:31 3,1 C 82 % 1017,3 hPa 0,0 l/m 4,6 km/h (1 Bft) W 263 0 min 0,000 mm 0,0 UV-I 7 W/m 0,3 C 3,1 C 6,4 km/h (2 Bft) 100,00 %
21.03.2016 06:32 3,1 C 82 % 1017,3 hPa 0,0 l/m 5,5 km/h (1 Bft) W 259 0 min 0,000 mm 0,0 UV-I 7 W/m 0,3 C 3,1 C 6,4 km/h (2 Bft) 100,00 %
21.03.2016 06:33 3,1 C 82 % 1017,3 hPa 0,0 l/m 3,6 km/h (1 Bft) W 266 0 min 0,000 mm 0,0 UV-I 7 W/m 0,3 C 3,1 C 6,4 km/h (2 Bft) 100,00 %
21.03.2016 06:34 3,1 C 82 % 1017,3 hPa 0,0 l/m 3,6 km/h (1 Bft) W 271 0 min 0,000 mm 0,0 UV-I 7 W/m 0,3 C 3,1 C 4,8 km/h (1 Bft) 100,00 %
21.03.2016 06:35 3,1 C 82 % 1017,3 hPa 0,0 l/m 5,0 km/h (1 Bft) W 263 0 min 0,000 mm 0,0 UV-I 8 W/m 0,3 C 3,1 C 9,7 km/h (2 Bft) 98,86 %
21.03.2016 06:36 3,1 C 82 % 1017,3 hPa 0,0 l/m 5,7 km/h (1 Bft) W 264 0 min 0,000 mm 0,0 UV-I 9 W/m 0,3 C 3,1 C 9,7 km/h (2 Bft) 100,00 %
21.03.2016 06:37 3,1 C 82 % 1017,3 hPa 0,0 l/m 4,5 km/h (1 Bft) W-SW 256 0 min 0,000 mm 0,0 UV-I 9 W/m 0,3 C 3,1 C 6,4 km/h (2 Bft) 100,00 %
21.03.2016 06:38 3,1 C 82 % 1017,3 hPa 0,0 l/m 5,6 km/h (1 Bft) W 267 0 min 0,000 mm 0,0 UV-I 9 W/m 0,3 C 3,1 C 6,4 km/h (2 Bft) 100,00 %
21.03.2016 06:39 3,1 C 82 % 1017,3 hPa 0,0 l/m 4,6 km/h (1 Bft) W-NW 286 0 min 0,000 mm 0,0 UV-I 11 W/m 0,3 C 3,1 C 6,4 km/h (2 Bft) 100,00 %
21.03.2016 06:40 3,1 C 82 % 1017,3 hPa 0,0 l/m 3,5 km/h (1 Bft) W-SW 253 0 min 0,000 mm 0,0 UV-I 11 W/m 0,3 C 3,1 C 4,8 km/h (1 Bft) 100,00 %
21.03.2016 06:41 3,1 C 82 % 1017,4 hPa 0,0 l/m 4,8 km/h (1 Bft) W-SW 257 0 min 0,000 mm 0,0 UV-I 11 W/m 0,3 C 3,1 C 6,4 km/h (2 Bft) 93,33 %
21.03.2016 06:42 3,1 C 82 % 1017,3 hPa 0,0 l/m 4,4 km/h (1 Bft) W 265 0 min 0,000 mm 0,0 UV-I 11 W/m 0,3 C 3,1 C 6,4 km/h (2 Bft) 100,00 %
21.03.2016 06:43 3,1 C 83 % 1017,3 hPa 0,0 l/m 6,7 km/h (2 Bft) W 268 0 min 0,000 mm 0,0 UV-I 12 W/m 0,5 C 2,8 C 9,7 km/h (2 Bft) 95,65 %
21.03.2016 06:44 3,1 C 83 % 1017,3 hPa 0,0 l/m 4,7 km/h (1 Bft) W 263 0 min 0,000 mm 0,0 UV-I 12 W/m 0,5 C 3,1 C 6,4 km/h (2 Bft) 95,83 %
21.03.2016 06:45 3,1 C 82 % 1017,3 hPa 0,0 l/m 6,4 km/h (2 Bft) W-SW 248 0 min 0,000 mm 0,0 UV-I 14 W/m 0,3 C 3,1 C 11,3 km/h (2 Bft) 100,00 %
21.03.2016 06:46 3,1 C 82 % 1017,3 hPa 0,0 l/m 7,6 km/h (2 Bft) W 263 0 min 0,000 mm 0,0 UV-I 14 W/m 0,3 C 2,0 C 11,3 km/h (2 Bft) 95,83 %
21.03.2016 06:47 3,1 C 82 % 1017,3 hPa 0,0 l/m 6,6 km/h (2 Bft) W-SW 247 0 min 0,000 mm 0,0 UV-I 16 W/m 0,3 C 2,9 C 12,9 km/h (3 Bft) 100,00 %
21.03.2016 06:48 3,1 C 83 % 1017,3 hPa 0,0 l/m 6,5 km/h (2 Bft) SW 227 0 min 0,000 mm 0,0 UV-I 16 W/m 0,5 C 3,0 C 9,7 km/h (2 Bft) 100,00 %
21.03.2016 06:49 3,1 C 83 % 1017,3 hPa 0,0 l/m 5,4 km/h (1 Bft) W-SW 244 0 min 0,000 mm 0,0 UV-I 16 W/m 0,5 C 3,1 C 8,0 km/h (2 Bft) 100,00 %
21.03.2016 06:50 3,1 C 82 % 1017,3 hPa 0,0 l/m 5,5 km/h (1 Bft) W 263 0 min 0,000 mm 0,0 UV-I 16 W/m 0,3 C 3,1 C 6,4 km/h (2 Bft) 100,00 %
21.03.2016 06:51 3,1 C 82 % 1017,3 hPa 0,0 l/m 5,9 km/h (2 Bft) SW 229 0 min 0,000 mm 0,0 UV-I 18 W/m 0,3 C 3,1 C 8,0 km/h (2 Bft) 100,00 %
21.03.2016 06:52 3,1 C 83 % 1017,3 hPa 0,0 l/m 5,9 km/h (2 Bft) W-SW 254 0 min 0,000 mm 0,0 UV-I 18 W/m 0,5 C 3,1 C 8,0 km/h (2 Bft) 100,00 %
21.03.2016 06:53 3,1 C 83 % 1017,3 hPa 0,0 l/m 6,0 km/h (2 Bft) W 259 0 min 0,000 mm 0,0 UV-I 18 W/m 0,5 C 3,1 C 9,7 km/h (2 Bft) 100,00 %
21.03.2016 06:54 3,1 C 82 % 1017,3 hPa 0,0 l/m 5,3 km/h (1 Bft) W-SW 256 0 min 0,000 mm 0,0 UV-I 19 W/m 0,3 C 3,1 C 9,7 km/h (2 Bft) 100,00 %
21.03.2016 06:55 3,2 C 82 % 1017,3 hPa 0,0 l/m 4,4 km/h (1 Bft) W 271 0 min 0,000 mm 0,0 UV-I 19 W/m 0,4 C 3,2 C 4,8 km/h (1 Bft) 100,00 %
21.03.2016 06:56 3,1 C 82 % 1017,4 hPa 0,0 l/m 6,2 km/h (2 Bft) W-SW 256 0 min 0,000 mm 0,0 UV-I 19 W/m 0,3 C 3,1 C 11,3 km/h (2 Bft) 96,30 %
21.03.2016 06:57 3,1 C 82 % 1017,4 hPa 0,0 l/m 5,2 km/h (1 Bft) W-SW 250 0 min 0,000 mm 0,0 UV-I 19 W/m 0,3 C 3,1 C 8,0 km/h (2 Bft) 100,00 %
21.03.2016 06:58 3,2 C 82 % 1017,4 hPa 0,0 l/m 5,7 km/h (1 Bft) W-SW 244 0 min 0,000 mm 0,0 UV-I 19 W/m 0,4 C 3,2 C 9,7 km/h (2 Bft) 95,83 %
21.03.2016 06:59 3,2 C 82 % 1017,4 hPa 0,0 l/m 4,9 km/h (1 Bft) W-SW 257 0 min 0,000 mm 0,0 UV-I 20 W/m 0,4 C 3,2 C 6,4 km/h (2 Bft) 100,00 %
21.03.2016 07:00 3,2 C 82 % 1017,4 hPa 0,0 l/m 4,3 km/h (1 Bft) W-SW 248 0 min 0,026 mm 0,0 UV-I 21 W/m 0,4 C 3,2 C 6,4 km/h (2 Bft) 95,83 %
21.03.2016 07:01 3,2 C 82 % 1017,4 hPa 0,0 l/m 5,0 km/h (1 Bft) W-SW 242 0 min 0,000 mm 0,0 UV-I 21 W/m 0,4 C 3,2 C 8,0 km/h (2 Bft) 95,65 %
21.03.2016 07:02 3,2 C 82 % 1017,4 hPa 0,0 l/m 5,6 km/h (1 Bft) W-SW 252 0 min 0,000 mm 0,0 UV-I 21 W/m 0,4 C 3,2 C 6,4 km/h (2 Bft) 100,00 %
21.03.2016 07:03 3,2 C 82 % 1017,5 hPa 0,0 l/m 4,5 km/h (1 Bft) W-SW 243 0 min 0,000 mm 0,0 UV-I 21 W/m 0,4 C 3,2 C 6,4 km/h (2 Bft) 96,55 %
21.03.2016 07:04 3,2 C 82 % 1017,4 hPa 0,0 l/m 5,3 km/h (1 Bft) W-SW 246 0 min 0,000 mm 0,0 UV-I 22 W/m 0,4 C 3,2 C 8,0 km/h (2 Bft) 100,00 %
21.03.2016 07:05 3,2 C 82 % 1017,4 hPa 0,0 l/m 4,6 km/h (1 Bft) SW 236 0 min 0,000 mm 0,0 UV-I 23 W/m 0,4 C 3,2 C 6,4 km/h (2 Bft) 98,83 %
21.03.2016 07:06 3,2 C 82 % 1017,4 hPa 0,0 l/m 5,3 km/h (1 Bft) W-SW 245 0 min 0,000 mm 0,0 UV-I 24 W/m 0,4 C 3,2 C 6,4 km/h (2 Bft) 97,37 %
21.03.2016 07:07 3,2 C 82 % 1017,4 hPa 0,0 l/m 4,5 km/h (1 Bft) W-SW 254 0 min 0,000 mm 0,0 UV-I 26 W/m 0,4 C 3,2 C 6,4 km/h (2 Bft) 92,59 %
21.03.2016 07:08 3,2 C 82 % 1017,4 hPa 0,0 l/m 4,7 km/h (1 Bft) W 259 0 min 0,000 mm 0,0 UV-I 26 W/m 0,4 C 3,2 C 6,4 km/h (2 Bft) 92,31 %
21.03.2016 07:09 3,2 C 83 % 1017,4 hPa 0,0 l/m 3,9 km/h (1 Bft) W-SW 254 0 min 0,000 mm 0,0 UV-I 26 W/m 0,6 C 3,2 C 4,8 km/h (1 Bft) 98,74 %
21.03.2016 07:10 3,2 C 82 % 1017,5 hPa 0,0 l/m 7,6 km/h (2 Bft) W 277 0 min 0,000 mm 0,0 UV-I 26 W/m 0,4 C 2,1 C 11,3 km/h (2 Bft) 97,73 %
21.03.2016 07:11 3,2 C 82 % 1017,5 hPa 0,0 l/m 6,8 km/h (2 Bft) W 265 0 min 0,000 mm 0,0 UV-I 25 W/m 0,4 C 2,8 C 11,3 km/h (2 Bft) 100,00 %
21.03.2016 07:12 3,2 C 82 % 1017,5 hPa 0,0 l/m 4,8 km/h (1 Bft) W 262 0 min 0,000 mm 0,0 UV-I 25 W/m 0,4 C 3,2 C 6,4 km/h (2 Bft) 95,65 %
21.03.2016 07:13 3,3 C 82 % 1017,5 hPa 0,0 l/m 3,4 km/h (1 Bft) W 281 0 min 0,000 mm 0,0 UV-I 25 W/m 0,5 C 3,3 C 4,8 km/h (1 Bft) 100,00 %
21.03.2016 07:14 3,2 C 82 % 1017,5 hPa 0,0 l/m 3,8 km/h (1 Bft) W 267 0 min 0,000 mm 0,0 UV-I 25 W/m 0,4 C 3,2 C 4,8 km/h (1 Bft) 95,65 %
21.03.2016 07:15 3,2 C 82 % 1017,5 hPa 0,0 l/m 4,8 km/h (1 Bft) W 265 0 min 0,000 mm 0,0 UV-I 25 W/m 0,4 C 3,2 C 6,4 km/h (2 Bft) 100,00 %
21.03.2016 07:16 3,2 C 82 % 1017,5 hPa 0,0 l/m 5,1 km/h (1 Bft) W 265 0 min 0,000 mm 0,0 UV-I 25 W/m 0,4 C 3,2 C 6,4 km/h (2 Bft) 96,15 %
21.03.2016 07:17 3,2 C 82 % 1017,5 hPa 0,0 l/m 4,3 km/h (1 Bft) W 266 0 min 0,000 mm 0,0 UV-I 26 W/m 0,4 C 3,2 C 6,4 km/h (2 Bft) 100,00 %
21.03.2016 07:18 3,3 C 82 % 1017,5 hPa 0,0 l/m 3,0 km/h (1 Bft) W 266 0 min 0,000 mm 0,0 UV-I 26 W/m 0,5 C 3,3 C 3,2 km/h (1 Bft) 96,15 %
21.03.2016 07:19 3,3 C 82 % 1017,5 hPa 0,0 l/m 2,8 km/h (1 Bft) W 266 0 min 0,000 mm 0,0 UV-I 27 W/m 0,5 C 3,3 C 3,2 km/h (1 Bft) 95,83 %
21.03.2016 07:20 3,3 C 82 % 1017,5 hPa 0,0 l/m 3,1 km/h (1 Bft) W 265 0 min 0,000 mm 0,0 UV-I 28 W/m 0,5 C 3,3 C 4,8 km/h (1 Bft) 100,00 %
21.03.2016 07:21 3,3 C 83 % 1017,5 hPa 0,0 l/m 2,7 km/h (1 Bft) W 265 0 min 0,000 mm 0,0 UV-I 28 W/m 0,7 C 3,3 C 4,8 km/h (1 Bft) 91,67 %
21.03.2016 07:22 3,3 C 83 % 1017,5 hPa 0,0 l/m 4,2 km/h (1 Bft) SW 236 0 min 0,000 mm 0,0 UV-I 30 W/m 0,7 C 3,3 C 4,8 km/h (1 Bft) 100,00 %
21.03.2016 07:23 3,3 C 82 % 1017,5 hPa 0,0 l/m 3,7 km/h (1 Bft) SW 236 0 min 0,000 mm 0,0 UV-I 31 W/m 0,5 C 3,3 C 4,8 km/h (1 Bft) 96,55 %
21.03.2016 07:24 3,3 C 82 % 1017,5 hPa 0,0 l/m 2,8 km/h (1 Bft) SW 236 0 min 0,000 mm 0,0 UV-I 32 W/m 0,5 C 3,3 C 3,2 km/h (1 Bft) 100,00 %
21.03.2016 07:25 3,3 C 82 % 1017,5 hPa 0,0 l/m 5,2 km/h (1 Bft) SW 230 0 min 0,000 mm 0,0 UV-I 33 W/m 0,5 C 3,3 C 6,4 km/h (2 Bft) 91,67 %
21.03.2016 07:26 3,3 C 82 % 1017,5 hPa 0,0 l/m 6,0 km/h (2 Bft) SW 233 0 min 0,000 mm 0,0 UV-I 35 W/m 0,5 C 3,3 C 8,0 km/h (2 Bft) 100,00 %
21.03.2016 07:27 3,3 C 83 % 1017,5 hPa 0,0 l/m 4,8 km/h (1 Bft) SW 233 0 min 0,000 mm 0,0 UV-I 38 W/m 0,7 C 3,3 C 6,4 km/h (2 Bft) 95,65 %
21.03.2016 07:28 3,3 C 82 % 1017,5 hPa 0,0 l/m 5,0 km/h (1 Bft) SW 227 0 min 0,000 mm 0,0 UV-I 41 W/m 0,5 C 3,3 C 8,0 km/h (2 Bft) 95,83 %
21.03.2016 07:29 3,3 C 83 % 1017,5 hPa 0,0 l/m 5,5 km/h (1 Bft) SW 223 0 min 0,000 mm 0,0 UV-I 43 W/m 0,7 C 3,3 C 8,0 km/h (2 Bft) 95,65 %
21.03.2016 07:30 3,3 C 83 % 1017,5 hPa 0,0 l/m 4,8 km/h (1 Bft) S-SW 200 0 min 0,000 mm 0,0 UV-I 44 W/m 0,7 C 3,3 C 6,4 km/h (2 Bft) 100,00 %
21.03.2016 07:31 3,3 C 82 % 1017,5 hPa 0,0 l/m 4,1 km/h (1 Bft) SW 222 0 min 0,000 mm 0,0 UV-I 46 W/m 0,5 C 3,3 C 6,4 km/h (2 Bft) 100,00 %
21.03.2016 07:32 3,3 C 83 % 1017,5 hPa 0,0 l/m 5,0 km/h (1 Bft) SW 231 0 min 0,000 mm 0,0 UV-I 46 W/m 0,7 C 3,3 C 8,0 km/h (2 Bft) 100,00 %
21.03.2016 07:33 3,3 C 82 % 1017,5 hPa 0,0 l/m 5,2 km/h (1 Bft) W-SW 245 0 min 0,000 mm 0,0 UV-I 46 W/m 0,5 C 3,3 C 9,7 km/h (2 Bft) 94,74 %
21.03.2016 07:34 3,3 C 82 % 1017,5 hPa 0,0 l/m 4,2 km/h (1 Bft) W-SW 245 0 min 0,000 mm 0,0 UV-I 46 W/m 0,5 C 3,3 C 6,4 km/h (2 Bft) 95,83 %
21.03.2016 07:35 3,3 C 82 % 1017,5 hPa 0,0 l/m 4,8 km/h (1 Bft) SW 221 0 min 0,000 mm 0,0 UV-I 48 W/m 0,5 C 3,3 C 6,4 km/h (2 Bft) 100,00 %
21.03.2016 07:36 3,4 C 82 % 1017,5 hPa 0,0 l/m 6,0 km/h (2 Bft) W-SW 255 0 min 0,000 mm 0,0 UV-I 49 W/m 0,6 C 3,4 C 9,7 km/h (2 Bft) 100,00 %
21.03.2016 07:37 3,4 C 82 % 1017,5 hPa 0,0 l/m 5,4 km/h (1 Bft) W-SW 255 0 min 0,000 mm 0,0 UV-I 49 W/m 0,6 C 3,4 C 8,0 km/h (2 Bft) 95,65 %
21.03.2016 07:38 3,4 C 82 % 1017,5 hPa 0,0 l/m 5,3 km/h (1 Bft) W-SW 242 0 min 0,000 mm 0,0 UV-I 49 W/m 0,6 C 3,4 C 6,4 km/h (2 Bft) 100,00 %
21.03.2016 07:39 3,4 C 82 % 1017,6 hPa 0,0 l/m 5,5 km/h (1 Bft) SW 229 0 min 0,000 mm 0,0 UV-I 51 W/m 0,6 C 3,4 C 11,3 km/h (2 Bft) 98,58 %
21.03.2016 07:40 3,4 C 82 % 1017,6 hPa 0,0 l/m 7,0 km/h (2 Bft) W-SW 248 0 min 0,000 mm 0,0 UV-I 51 W/m 0,6 C 2,8 C 9,7 km/h (2 Bft) 100,00 %
21.03.2016 07:41 3,4 C 82 % 1017,6 hPa 0,0 l/m 5,1 km/h (1 Bft) W-SW 246 0 min 0,000 mm 0,0 UV-I 50 W/m 0,6 C 3,4 C 6,4 km/h (2 Bft) 95,65 %
21.03.2016 07:42 3,4 C 82 % 1017,6 hPa 0,0 l/m 3,2 km/h (1 Bft) W-SW 247 0 min 0,000 mm 0,0 UV-I 49 W/m 0,6 C 3,4 C 4,8 km/h (1 Bft) 100,00 %
21.03.2016 07:43 3,4 C 82 % 1017,6 hPa 0,0 l/m 5,5 km/h (1 Bft) W-SW 249 0 min 0,000 mm 0,0 UV-I 48 W/m 0,6 C 3,4 C 8,0 km/h (2 Bft) 98,59 %
21.03.2016 07:44 3,4 C 82 % 1017,6 hPa 0,0 l/m 6,0 km/h (2 Bft) W-SW 246 0 min 0,000 mm 0,0 UV-I 47 W/m 0,6 C 3,4 C 8,0 km/h (2 Bft) 100,00 %
21.03.2016 07:45 3,4 C 82 % 1017,6 hPa 0,0 l/m 4,9 km/h (1 Bft) W-SW 247 0 min 0,000 mm 0,0 UV-I 49 W/m 0,6 C 3,4 C 6,4 km/h (2 Bft) 100,00 %
21.03.2016 07:46 3,4 C 82 % 1017,6 hPa 0,0 l/m 5,1 km/h (1 Bft) W-SW 238 0 min 0,000 mm 0,0 UV-I 52 W/m 0,6 C 3,4 C 6,4 km/h (2 Bft) 100,00 %
21.03.2016 07:47 3,4 C 82 % 1017,6 hPa 0,0 l/m 4,4 km/h (1 Bft) SW 232 0 min 0,000 mm 0,0 UV-I 54 W/m 0,6 C 3,4 C 6,4 km/h (2 Bft) 100,00 %
21.03.2016 07:48 3,5 C 82 % 1017,5 hPa 0,0 l/m 3,4 km/h (1 Bft) S-SW 204 0 min 0,000 mm 0,0 UV-I 54 W/m 0,7 C 3,5 C 4,8 km/h (1 Bft) 100,00 %
21.03.2016 07:49 3,5 C 82 % 1017,5 hPa 0,0 l/m 3,4 km/h (1 Bft) SW 227 0 min 0,000 mm 0,0 UV-I 56 W/m 0,7 C 3,5 C 4,8 km/h (1 Bft) 100,00 %
21.03.2016 07:50 3,5 C 82 % 1017,5 hPa 0,0 l/m 3,8 km/h (1 Bft) W 264 0 min 0,000 mm 0,0 UV-I 56 W/m 0,7 C 3,5 C 4,8 km/h (1 Bft) 100,00 %
21.03.2016 07:51 3,5 C 82 % 1017,6 hPa 0,0 l/m 3,8 km/h (1 Bft) W-SW 240 0 min 0,000 mm 0,0 UV-I 59 W/m 0,7 C 3,5 C 4,8 km/h (1 Bft) 100,00 %
21.03.2016 07:52 3,5 C 82 % 1017,5 hPa 0,0 l/m 2,9 km/h (1 Bft) W-SW 237 0 min 0,000 mm 0,0 UV-I 61 W/m 0,7 C 3,5 C 3,2 km/h (1 Bft) 100,00 %
21.03.2016 07:53 3,6 C 82 % 1017,5 hPa 0,0 l/m 2,3 km/h (1 Bft) SW 227 0 min 0,000 mm 0,0 UV-I 63 W/m 0,8 C 3,6 C 3,2 km/h (1 Bft) 100,00 %
21.03.2016 07:54 3,5 C 82 % 1017,5 hPa 0,0 l/m 3,8 km/h (1 Bft) W-SW 238 0 min 0,000 mm 0,0 UV-I 64 W/m 0,7 C 3,5 C 6,4 km/h (2 Bft) 100,00 %
21.03.2016 07:55 3,5 C 82 % 1017,5 hPa 0,0 l/m 6,2 km/h (2 Bft) SW 223 0 min 0,000 mm 0,0 UV-I 67 W/m 0,7 C 3,5 C 9,7 km/h (2 Bft) 95,83 %
21.03.2016 07:56 3,5 C 82 % 1017,6 hPa 0,0 l/m 4,3 km/h (1 Bft) S-SW 202 0 min 0,000 mm 0,0 UV-I 69 W/m 0,7 C 3,5 C 6,4 km/h (2 Bft) 100,00 %
21.03.2016 07:57 3,6 C 81 % 1017,6 hPa 0,0 l/m 5,9 km/h (2 Bft) W-SW 244 0 min 0,000 mm 0,0 UV-I 70 W/m 0,7 C 3,6 C 8,0 km/h (2 Bft) 100,00 %
21.03.2016 07:58 3,5 C 82 % 1017,6 hPa 0,0 l/m 7,9 km/h (2 Bft) SW 231 0 min 0,000 mm 0,0 UV-I 70 W/m 0,7 C 2,1 C 11,3 km/h (2 Bft) 96,88 %
21.03.2016 07:59 3,6 C 82 % 1017,6 hPa 0,0 l/m 8,7 km/h (2 Bft) W-SW 256 0 min 0,000 mm 0,0 UV-I 70 W/m 0,8 C 1,5 C 11,3 km/h (2 Bft) 100,00 %
21.03.2016 08:00 3,6 C 81 % 1017,6 hPa 0,0 l/m 6,1 km/h (2 Bft) SW 229 0 min 0,000 mm 0,0 UV-I 69 W/m 0,7 C 3,6 C 8,0 km/h (2 Bft) 100,00 %
21.03.2016 08:01 3,6 C 81 % 1017,6 hPa 0,0 l/m 5,5 km/h (1 Bft) SW 225 0 min 0,025 mm 0,0 UV-I 65 W/m 0,7 C 3,6 C 8,0 km/h (2 Bft) 100,00 %
21.03.2016 08:02 3,6 C 82 % 1017,6 hPa 0,0 l/m 4,8 km/h (1 Bft) W-SW 248 0 min 0,000 mm 0,0 UV-I 65 W/m 0,8 C 3,6 C 8,0 km/h (2 Bft) 95,65 %
21.03.2016 08:03 3,6 C 81 % 1017,6 hPa 0,0 l/m 6,5 km/h (2 Bft) W-SW 257 0 min 0,000 mm 0,0 UV-I 64 W/m 0,7 C 3,5 C 9,7 km/h (2 Bft) 100,00 %
21.03.2016 08:04 3,6 C 82 % 1017,7 hPa 0,0 l/m 5,9 km/h (2 Bft) W-SW 254 0 min 0,000 mm 0,0 UV-I 64 W/m 0,8 C 3,6 C 8,0 km/h (2 Bft) 100,00 %
21.03.2016 08:05 3,6 C 82 % 1017,7 hPa 0,0 l/m 6,9 km/h (2 Bft) W-SW 255 0 min 0,000 mm 0,0 UV-I 65 W/m 0,8 C 3,1 C 8,0 km/h (2 Bft) 96,15 %
21.03.2016 08:06 3,6 C 81 % 1017,7 hPa 0,0 l/m 6,6 km/h (2 Bft) W 267 0 min 0,000 mm 0,0 UV-I 65 W/m 0,7 C 3,4 C 9,7 km/h (2 Bft) 100,00 %
21.03.2016 08:07 3,6 C 81 % 1017,7 hPa 0,0 l/m 7,4 km/h (2 Bft) W 265 0 min 0,000 mm 0,0 UV-I 67 W/m 0,7 C 2,7 C 11,3 km/h (2 Bft) 100,00 %
21.03.2016 08:08 3,6 C 81 % 1017,7 hPa 0,0 l/m 5,5 km/h (1 Bft) W-SW 242 0 min 0,000 mm 0,0 UV-I 69 W/m 0,7 C 3,6 C 9,7 km/h (2 Bft) 100,00 %
21.03.2016 08:09 3,6 C 81 % 1017,6 hPa 0,0 l/m 4,9 km/h (1 Bft) W-SW 257 0 min 0,000 mm 0,0 UV-I 71 W/m 0,7 C 3,6 C 8,0 km/h (2 Bft) 100,00 %
21.03.2016 08:10 3,7 C 81 % 1017,7 hPa 0,0 l/m 6,3 km/h (2 Bft) W 260 0 min 0,000 mm 0,0 UV-I 73 W/m 0,7 C 3,7 C 9,7 km/h (2 Bft) 100,00 %
21.03.2016 08:11 3,7 C 81 % 1017,7 hPa 0,0 l/m 6,0 km/h (2 Bft) W-SW 255 0 min 0,000 mm 0,0 UV-I 74 W/m 0,7 C 3,7 C 6,4 km/h (2 Bft) 100,00 %
21.03.2016 08:12 3,7 C 81 % 1017,7 hPa 0,0 l/m 5,8 km/h (2 Bft) W 262 0 min 0,000 mm 0,0 UV-I 76 W/m 0,7 C 3,7 C 8,0 km/h (2 Bft) 100,00 %
21.03.2016 08:13 3,7 C 81 % 1017,7 hPa 0,0 l/m 6,0 km/h (2 Bft) W 263 0 min 0,000 mm 0,0 UV-I 77 W/m 0,7 C 3,7 C 9,7 km/h (2 Bft) 100,00 %
21.03.2016 08:14 3,7 C 81 % 1017,7 hPa 0,0 l/m 9,1 km/h (2 Bft) W 275 0 min 0,000 mm 0,0 UV-I 79 W/m 0,7 C 1,3 C 12,9 km/h (3 Bft) 100,00 %
21.03.2016 08:15 3,7 C 81 % 1017,7 hPa 0,0 l/m 4,7 km/h (1 Bft) W 277 0 min 0,000 mm 0,0 UV-I 80 W/m 0,7 C 3,7 C 6,4 km/h (2 Bft) 100,00 %
21.03.2016 08:16 3,7 C 81 % 1017,7 hPa 0,0 l/m 6,2 km/h (2 Bft) W 272 0 min 0,000 mm 0,0 UV-I 82 W/m 0,7 C 3,7 C 11,3 km/h (2 Bft) 100,00 %
21.03.2016 08:17 3,7 C 81 % 1017,6 hPa 0,0 l/m 9,6 km/h (2 Bft) W 267 0 min 0,000 mm 0,0 UV-I 84 W/m 0,7 C 0,9 C 12,9 km/h (3 Bft) 100,00 %
21.03.2016 08:18 3,7 C 81 % 1017,7 hPa 0,0 l/m 8,9 km/h (2 Bft) W 261 0 min 0,000 mm 0,0 UV-I 89 W/m 0,7 C 1,5 C 11,3 km/h (2 Bft) 100,00 %
21.03.2016 08:19 3,7 C 80 % 1017,6 hPa 0,0 l/m 5,7 km/h (1 Bft) W 275 0 min 0,000 mm 0,0 UV-I 95 W/m 0,6 C 3,7 C 9,7 km/h (2 Bft) 96,15 %
21.03.2016 08:20 3,7 C 81 % 1017,7 hPa 0,0 l/m 3,5 km/h (1 Bft) W 275 0 min 0,000 mm 0,0 UV-I 97 W/m 0,7 C 3,7 C 4,8 km/h (1 Bft) 100,00 %
21.03.2016 08:21 3,8 C 81 % 1017,7 hPa 0,0 l/m 5,7 km/h (1 Bft) W-SW 238 0 min 0,000 mm 0,0 UV-I 99 W/m 0,8 C 3,8 C 8,0 km/h (2 Bft) 100,00 %
21.03.2016 08:22 3,8 C 81 % 1017,7 hPa 0,0 l/m 9,3 km/h (2 Bft) W 269 0 min 0,000 mm 0,0 UV-I 100 W/m 0,8 C 1,3 C 12,9 km/h (3 Bft) 100,00 %
21.03.2016 08:23 3,8 C 80 % 1017,7 hPa 0,0 l/m 7,4 km/h (2 Bft) W-SW 258 0 min 0,000 mm 0,0 UV-I 101 W/m 0,7 C 2,9 C 9,7 km/h (2 Bft) 100,00 %
21.03.2016 08:24 3,8 C 80 % 1017,7 hPa 0,0 l/m 4,7 km/h (1 Bft) W 259 0 min 0,000 mm 0,0 UV-I 104 W/m 0,7 C 3,8 C 6,4 km/h (2 Bft) 100,00 %
21.03.2016 08:25 3,8 C 80 % 1017,7 hPa 0,0 l/m 4,7 km/h (1 Bft) W 261 0 min 0,000 mm 0,0 UV-I 105 W/m 0,7 C 3,8 C 6,4 km/h (2 Bft) 100,00 %
21.03.2016 08:26 3,8 C 80 % 1017,7 hPa 0,0 l/m 3,4 km/h (1 Bft) W 262 0 min 0,000 mm 0,0 UV-I 107 W/m 0,7 C 3,8 C 4,8 km/h (1 Bft) 100,00 %
21.03.2016 08:27 3,8 C 80 % 1017,7 hPa 0,0 l/m 4,1 km/h (1 Bft) W 265 0 min 0,000 mm 0,0 UV-I 110 W/m 0,7 C 3,8 C 6,4 km/h (2 Bft) 100,00 %
21.03.2016 08:28 3,9 C 80 % 1017,7 hPa 0,0 l/m 2,7 km/h (1 Bft) W 267 0 min 0,000 mm 0,0 UV-I 111 W/m 0,8 C 3,9 C 3,2 km/h (1 Bft) 95,65 %
21.03.2016 08:29 3,9 C 81 % 1017,6 hPa 0,0 l/m 3,3 km/h (1 Bft) W 263 0 min 0,000 mm 0,0 UV-I 113 W/m 0,9 C 3,9 C 6,4 km/h (2 Bft) 100,00 %
21.03.2016 08:30 3,9 C 81 % 1017,7 hPa 0,0 l/m 6,0 km/h (2 Bft) W 277 0 min 0,000 mm 0,0 UV-I 114 W/m 0,9 C 3,9 C 11,3 km/h (2 Bft) 100,00 %
21.03.2016 08:31 4,0 C 81 % 1017,6 hPa 0,0 l/m 3,6 km/h (1 Bft) W 269 0 min 0,000 mm 0,0 UV-I 114 W/m 1,0 C 4,0 C 6,4 km/h (2 Bft) 100,00 %
21.03.2016 08:32 4,0 C 81 % 1017,7 hPa 0,0 l/m 4,3 km/h (1 Bft) W-SW 253 0 min 0,000 mm 0,0 UV-I 114 W/m 1,0 C 4,0 C 4,8 km/h (1 Bft) 100,00 %
21.03.2016 08:33 4,0 C 80 % 1017,7 hPa 0,0 l/m 4,7 km/h (1 Bft) W-SW 255 0 min 0,000 mm 0,0 UV-I 116 W/m 0,9 C 4,0 C 6,4 km/h (2 Bft) 100,00 %
21.03.2016 08:34 4,0 C 80 % 1017,7 hPa 0,0 l/m 3,8 km/h (1 Bft) W-SW 255 0 min 0,000 mm 0,0 UV-I 116 W/m 0,9 C 4,0 C 4,8 km/h (1 Bft) 100,00 %
21.03.2016 08:35 4,1 C 81 % 1017,7 hPa 0,0 l/m 4,5 km/h (1 Bft) W-SW 248 0 min 0,000 mm 0,0 UV-I 116 W/m 1,1 C 4,1 C 6,4 km/h (2 Bft) 100,00 %
21.03.2016 08:36 4,1 C 80 % 1017,7 hPa 0,0 l/m 4,7 km/h (1 Bft) W 259 0 min 0,000 mm 0,0 UV-I 116 W/m 1,0 C 4,1 C 6,4 km/h (2 Bft) 96,15 %
21.03.2016 08:37 4,1 C 80 % 1017,8 hPa 0,0 l/m 5,5 km/h (1 Bft) W 273 0 min 0,000 mm 0,0 UV-I 118 W/m 1,0 C 4,1 C 6,4 km/h (2 Bft) 100,00 %
21.03.2016 08:38 4,1 C 80 % 1017,7 hPa 0,0 l/m 3,6 km/h (1 Bft) W-SW 252 0 min 0,000 mm 0,0 UV-I 121 W/m 1,0 C 4,1 C 6,4 km/h (2 Bft) 100,00 %
21.03.2016 08:39 4,2 C 80 % 1017,7 hPa 0,0 l/m 4,3 km/h (1 Bft) W 264 0 min 0,000 mm 0,0 UV-I 124 W/m 1,1 C 4,2 C 6,4 km/h (2 Bft) 100,00 %
21.03.2016 08:40 4,2 C 79 % 1017,7 hPa 0,0 l/m 5,7 km/h (1 Bft) W 273 0 min 0,000 mm 0,0 UV-I 127 W/m 0,9 C 4,2 C 9,7 km/h (2 Bft) 100,00 %
21.03.2016 08:41 4,2 C 80 % 1017,7 hPa 0,0 l/m 5,0 km/h (1 Bft) W 279 0 min 0,000 mm 0,0 UV-I 129 W/m 1,1 C 4,2 C 9,7 km/h (2 Bft) 100,00 %
21.03.2016 08:42 4,2 C 79 % 1017,7 hPa 0,0 l/m 8,5 km/h (2 Bft) W 271 0 min 0,000 mm 0,0 UV-I 132 W/m 0,9 C 2,3 C 12,9 km/h (3 Bft) 100,00 %
21.03.2016 08:43 4,2 C 79 % 1017,7 hPa 0,0 l/m 5,4 km/h (1 Bft) W 261 0 min 0,000 mm 0,0 UV-I 131 W/m 0,9 C 4,2 C 11,3 km/h (2 Bft) 100,00 %
21.03.2016 08:44 4,2 C 79 % 1017,8 hPa 0,0 l/m 6,8 km/h (2 Bft) SW 236 0 min 0,000 mm 0,0 UV-I 128 W/m 0,9 C 3,8 C 11,3 km/h (2 Bft) 100,00 %
21.03.2016 08:45 4,2 C 80 % 1017,8 hPa 0,0 l/m 6,7 km/h (2 Bft) W-SW 240 0 min 0,000 mm 0,0 UV-I 127 W/m 1,1 C 3,9 C 9,7 km/h (2 Bft) 100,00 %
21.03.2016 08:46 4,2 C 79 % 1017,8 hPa 0,0 l/m 7,2 km/h (2 Bft) W 261 0 min 0,000 mm 0,0 UV-I 130 W/m 0,9 C 3,5 C 12,9 km/h (3 Bft) 100,00 %
21.03.2016 08:47 4,2 C 79 % 1017,8 hPa 0,0 l/m 7,8 km/h (2 Bft) W-SW 245 0 min 0,000 mm 0,0 UV-I 134 W/m 0,9 C 2,9 C 11,3 km/h (2 Bft) 100,00 %
21.03.2016 08:48 4,2 C 79 % 1017,8 hPa 0,0 l/m 7,4 km/h (2 Bft) SW 235 0 min 0,000 mm 0,0 UV-I 135 W/m 0,9 C 3,3 C 11,3 km/h (2 Bft) 93,33 %
21.03.2016 08:49 4,2 C 79 % 1017,9 hPa 0,0 l/m 5,2 km/h (1 Bft) W 261 0 min 0,000 mm 0,0 UV-I 133 W/m 0,9 C 4,2 C 6,4 km/h (2 Bft) 95,65 %
21.03.2016 08:50 4,2 C 79 % 1017,9 hPa 0,0 l/m 6,9 km/h (2 Bft) W-SW 258 0 min 0,000 mm 0,0 UV-I 130 W/m 0,9 C 3,8 C 11,3 km/h (2 Bft) 100,00 %
21.03.2016 08:51 4,2 C 79 % 1017,9 hPa 0,0 l/m 8,3 km/h (2 Bft) W-NW 291 0 min 0,000 mm 0,0 UV-I 132 W/m 0,9 C 2,5 C 12,9 km/h (3 Bft) 100,00 %
21.03.2016 08:52 4,2 C 78 % 1017,9 hPa 0,0 l/m 7,4 km/h (2 Bft) W 265 0 min 0,000 mm 0,3 UV-I 138 W/m 0,7 C 3,3 C 12,9 km/h (3 Bft) 100,00 %
21.03.2016 08:53 4,2 C 78 % 1017,8 hPa 0,0 l/m 4,7 km/h (1 Bft) W 275 0 min 0,000 mm 0,5 UV-I 142 W/m 0,7 C 4,2 C 9,7 km/h (2 Bft) 100,00 %
21.03.2016 08:54 4,2 C 78 % 1017,8 hPa 0,0 l/m 7,2 km/h (2 Bft) W 271 0 min 0,000 mm 0,5 UV-I 144 W/m 0,7 C 3,5 C 11,3 km/h (2 Bft) 96,30 %
21.03.2016 08:55 4,2 C 78 % 1017,8 hPa 0,0 l/m 6,9 km/h (2 Bft) SW 217 0 min 0,000 mm 0,5 UV-I 144 W/m 0,7 C 3,8 C 11,3 km/h (2 Bft) 95,65 %
21.03.2016 08:56 4,2 C 79 % 1017,8 hPa 0,0 l/m 10,1 km/h (2 Bft) W-SW 246 0 min 0,000 mm 0,5 UV-I 143 W/m 0,9 C 1,1 C 12,9 km/h (3 Bft) 95,83 %
21.03.2016 08:57 4,3 C 78 % 1017,9 hPa 0,0 l/m 9,0 km/h (2 Bft) SW 232 0 min 0,000 mm 0,5 UV-I 146 W/m 0,8 C 2,1 C 12,9 km/h (3 Bft) 100,00 %
21.03.2016 08:58 4,3 C 78 % 1017,9 hPa 0,0 l/m 10,2 km/h (2 Bft) W-SW 248 0 min 0,000 mm 0,5 UV-I 151 W/m 0,8 C 1,2 C 12,9 km/h (3 Bft) 95,83 %
21.03.2016 08:59 4,3 C 78 % 1017,9 hPa 0,0 l/m 13,7 km/h (3 Bft) W 267 0 min 0,000 mm 0,5 UV-I 157 W/m 0,8 C -1,1 C 17,7 km/h (3 Bft) 100,00 %
21.03.2016 09:00 4,3 C 78 % 1017,8 hPa 0,0 l/m 6,0 km/h (2 Bft) W-SW 256 0 min 0,051 mm 0,5 UV-I 160 W/m 0,8 C 4,3 C 9,7 km/h (2 Bft) 96,55 %
21.03.2016 09:01 4,3 C 77 % 1017,8 hPa 0,0 l/m 5,5 km/h (1 Bft) W-SW 249 0 min 0,000 mm 0,6 UV-I 162 W/m 0,6 C 4,3 C 6,4 km/h (2 Bft) 100,00 %
21.03.2016 09:02 4,3 C 78 % 1017,8 hPa 0,0 l/m 5,8 km/h (2 Bft) W 263 0 min 0,000 mm 0,6 UV-I 164 W/m 0,8 C 4,3 C 9,7 km/h (2 Bft) 95,65 %
21.03.2016 09:03 4,3 C 78 % 1017,8 hPa 0,0 l/m 7,5 km/h (2 Bft) W 275 0 min 0,000 mm 0,6 UV-I 171 W/m 0,8 C 3,3 C 11,3 km/h (2 Bft) 96,15 %
21.03.2016 09:04 4,3 C 78 % 1017,8 hPa 0,0 l/m 7,2 km/h (2 Bft) W 264 0 min 0,000 mm 0,6 UV-I 177 W/m 0,8 C 3,6 C 11,3 km/h (2 Bft) 96,30 %
21.03.2016 09:05 4,3 C 77 % 1017,8 hPa 0,0 l/m 6,8 km/h (2 Bft) W-NW 285 0 min 0,000 mm 0,6 UV-I 186 W/m 0,6 C 3,9 C 9,7 km/h (2 Bft) 95,83 %
21.03.2016 09:06 4,4 C 77 % 1017,8 hPa 0,0 l/m 3,2 km/h (1 Bft) W-SW 251 0 min 0,000 mm 0,7 UV-I 199 W/m 0,7 C 4,4 C 4,8 km/h (1 Bft) 100,00 %
21.03.2016 09:07 4,4 C 78 % 1017,8 hPa 0,0 l/m 6,3 km/h (2 Bft) W-SW 249 0 min 0,000 mm 0,7 UV-I 206 W/m 0,9 C 4,4 C 9,7 km/h (2 Bft) 91,67 %
21.03.2016 09:08 4,5 C 78 % 1017,8 hPa 0,0 l/m 5,3 km/h (1 Bft) W 272 0 min 0,000 mm 0,7 UV-I 206 W/m 1,0 C 4,5 C 6,4 km/h (2 Bft) 100,00 %
21.03.2016 09:09 4,6 C 77 % 1017,8 hPa 0,0 l/m 5,9 km/h (2 Bft) W 271 0 min 0,000 mm 0,7 UV-I 208 W/m 0,9 C 4,6 C 9,7 km/h (2 Bft) 96,30 %
21.03.2016 09:10 4,6 C 77 % 1017,8 hPa 0,0 l/m 5,6 km/h (1 Bft) SW 230 0 min 0,000 mm 0,7 UV-I 211 W/m 0,9 C 4,6 C 11,3 km/h (2 Bft) 96,15 %
21.03.2016 09:11 4,6 C 77 % 1017,8 hPa 0,0 l/m 12,7 km/h (3 Bft) W 269 0 min 0,000 mm 0,7 UV-I 213 W/m 0,9 C -0,1 C 16,1 km/h (3 Bft) 100,00 %
21.03.2016 09:12 4,6 C 76 % 1017,8 hPa 0,0 l/m 9,5 km/h (2 Bft) W-SW 249 0 min 0,000 mm 0,7 UV-I 213 W/m 0,7 C 2,0 C 14,5 km/h (3 Bft) 100,00 %
21.03.2016 09:13 4,6 C 77 % 1017,7 hPa 0,0 l/m 9,9 km/h (2 Bft) W-SW 241 0 min 0,000 mm 0,8 UV-I 216 W/m 0,9 C 1,7 C 14,5 km/h (3 Bft) 95,83 %
21.03.2016 09:14 4,6 C 77 % 1017,7 hPa 0,0 l/m 8,0 km/h (2 Bft) W-SW 248 0 min 0,000 mm 0,8 UV-I 214 W/m 0,9 C 3,2 C 11,3 km/h (2 Bft) 95,65 %
21.03.2016 09:15 4,6 C 76 % 1017,8 hPa 0,0 l/m 6,8 km/h (2 Bft) W 261 0 min 0,000 mm 0,8 UV-I 214 W/m 0,7 C 4,3 C 11,3 km/h (2 Bft) 100,00 %
21.03.2016 09:16 4,6 C 76 % 1017,7 hPa 0,0 l/m 9,1 km/h (2 Bft) W 264 0 min 0,000 mm 0,8 UV-I 215 W/m 0,7 C 2,3 C 12,9 km/h (3 Bft) 96,55 %
21.03.2016 09:17 4,6 C 76 % 1017,8 hPa 0,0 l/m 4,4 km/h (1 Bft) W 281 0 min 0,000 mm 0,9 UV-I 222 W/m 0,7 C 4,6 C 6,4 km/h (2 Bft) 100,00 %
21.03.2016 09:18 4,7 C 77 % 1017,8 hPa 0,0 l/m 7,3 km/h (2 Bft) W 261 0 min 0,000 mm 0,9 UV-I 235 W/m 1,0 C 3,9 C 11,3 km/h (2 Bft) 96,55 %
21.03.2016 09:19 4,7 C 77 % 1017,8 hPa 0,0 l/m 6,9 km/h (2 Bft) W 267 0 min 0,000 mm 0,9 UV-I 241 W/m 1,0 C 4,3 C 11,3 km/h (2 Bft) 95,83 %
21.03.2016 09:20 4,7 C 77 % 1017,8 hPa 0,0 l/m 8,2 km/h (2 Bft) W-SW 242 0 min 0,000 mm 0,9 UV-I 243 W/m 1,0 C 3,1 C 11,3 km/h (2 Bft) 96,15 %
21.03.2016 09:21 4,8 C 76 % 1017,8 hPa 0,0 l/m 9,6 km/h (2 Bft) W-SW 249 0 min 0,000 mm 0,9 UV-I 240 W/m 0,9 C 2,1 C 12,9 km/h (3 Bft) 93,33 %
21.03.2016 09:22 4,8 C 75 % 1017,8 hPa 0,0 l/m 9,9 km/h (2 Bft) W-SW 239 0 min 0,000 mm 0,9 UV-I 228 W/m 0,8 C 1,9 C 16,1 km/h (3 Bft) 100,00 %
21.03.2016 09:23 4,8 C 75 % 1017,8 hPa 0,0 l/m 8,5 km/h (2 Bft) SW 228 0 min 0,000 mm 0,9 UV-I 221 W/m 0,8 C 3,0 C 12,9 km/h (3 Bft) 96,55 %
21.03.2016 09:24 4,8 C 75 % 1017,8 hPa 0,0 l/m 9,2 km/h (2 Bft) W-SW 257 0 min 0,000 mm 0,9 UV-I 227 W/m 0,8 C 2,4 C 12,9 km/h (3 Bft) 100,00 %
21.03.2016 09:25 4,8 C 75 % 1017,8 hPa 0,0 l/m 7,8 km/h (2 Bft) W-SW 258 0 min 0,000 mm 1,0 UV-I 239 W/m 0,8 C 3,6 C 11,3 km/h (2 Bft) 96,15 %
21.03.2016 09:26 4,8 C 75 % 1017,8 hPa 0,0 l/m 7,1 km/h (2 Bft) SW 234 0 min 0,000 mm 1,0 UV-I 250 W/m 0,8 C 4,2 C 12,9 km/h (3 Bft) 100,00 %
21.03.2016 09:27 4,8 C 75 % 1017,9 hPa 0,0 l/m 10,2 km/h (2 Bft) W-SW 243 0 min 0,000 mm 1,0 UV-I 253 W/m 0,8 C 1,7 C 12,9 km/h (3 Bft) 96,15 %
21.03.2016 09:28 4,8 C 74 % 1017,9 hPa 0,0 l/m 9,1 km/h (2 Bft) W 262 0 min 0,000 mm 1,0 UV-I 252 W/m 0,6 C 2,5 C 12,9 km/h (3 Bft) 95,83 %
21.03.2016 09:29 4,8 C 74 % 1017,9 hPa 0,0 l/m 5,6 km/h (1 Bft) W-SW 244 0 min 0,000 mm 1,0 UV-I 256 W/m 0,6 C 4,8 C 9,7 km/h (2 Bft) 100,00 %
21.03.2016 09:30 4,8 C 74 % 1017,9 hPa 0,0 l/m 6,2 km/h (2 Bft) W-SW 250 0 min 0,000 mm 1,1 UV-I 273 W/m 0,6 C 4,8 C 8,0 km/h (2 Bft) 100,00 %
21.03.2016 09:31 4,8 C 75 % 1017,8 hPa 0,0 l/m 9,3 km/h (2 Bft) W-SW 237 1 min 0,000 mm 1,1 UV-I 288 W/m 0,8 C 2,4 C 11,3 km/h (2 Bft) 100,00 %
21.03.2016 09:32 4,8 C 75 % 1017,9 hPa 0,0 l/m 7,0 km/h (2 Bft) W 276 1 min 0,000 mm 1,1 UV-I 307 W/m 0,8 C 4,3 C 9,7 km/h (2 Bft) 100,00 %
21.03.2016 09:33 4,8 C 75 % 1017,9 hPa 0,0 l/m 7,1 km/h (2 Bft) S-SW 203 1 min 0,000 mm 1,2 UV-I 344 W/m 0,8 C 4,2 C 11,3 km/h (2 Bft) 97,56 %
21.03.2016 09:34 4,9 C 75 % 1017,9 hPa 0,0 l/m 5,5 km/h (1 Bft) W 275 1 min 0,000 mm 1,2 UV-I 326 W/m 0,8 C 4,9 C 9,7 km/h (2 Bft) 100,00 %
21.03.2016 09:35 5,0 C 75 % 1017,9 hPa 0,0 l/m 10,3 km/h (2 Bft) W 269 1 min 0,000 mm 1,3 UV-I 326 W/m 0,9 C 1,9 C 14,5 km/h (3 Bft) 98,64 %
21.03.2016 09:36 5,0 C 74 % 1017,8 hPa 0,0 l/m 10,6 km/h (2 Bft) W-SW 255 0 min 0,000 mm 1,1 UV-I 285 W/m 0,8 C 1,7 C 14,5 km/h (3 Bft) 100,00 %
21.03.2016 09:37 5,1 C 74 % 1017,8 hPa 0,0 l/m 7,4 km/h (2 Bft) W-SW 255 0 min 0,000 mm 1,3 UV-I 285 W/m 0,9 C 4,2 C 12,9 km/h (3 Bft) 98,65 %
21.03.2016 09:38 5,1 C 74 % 1017,8 hPa 0,0 l/m 7,8 km/h (2 Bft) W-SW 257 1 min 0,000 mm 1,3 UV-I 361 W/m 0,9 C 3,9 C 12,9 km/h (3 Bft) 95,45 %
21.03.2016 09:39 5,2 C 75 % 1017,8 hPa 0,0 l/m 7,1 km/h (2 Bft) W-SW 239 1 min 0,000 mm 1,4 UV-I 503 W/m 1,1 C 4,6 C 12,9 km/h (3 Bft) 100,00 %
21.03.2016 09:40 5,2 C 74 % 1017,8 hPa 0,0 l/m 13,3 km/h (3 Bft) W 260 1 min 0,000 mm 1,3 UV-I 378 W/m 1,0 C 0,2 C 19,3 km/h (3 Bft) 100,00 %
21.03.2016 09:41 5,3 C 74 % 1017,9 hPa 0,0 l/m 12,2 km/h (2 Bft) W 271 1 min 0,000 mm 1,3 UV-I 325 W/m 1,0 C 1,0 C 17,7 km/h (3 Bft) 100,00 %
21.03.2016 09:42 5,3 C 74 % 1017,9 hPa 0,0 l/m 11,3 km/h (2 Bft) SW 234 1 min 0,000 mm 1,3 UV-I 374 W/m 1,0 C 1,5 C 16,1 km/h (3 Bft) 100,00 %
21.03.2016 09:43 5,3 C 73 % 1017,9 hPa 0,0 l/m 11,7 km/h (2 Bft) SW 221 1 min 0,000 mm 1,4 UV-I 374 W/m 0,9 C 1,3 C 16,1 km/h (3 Bft) 98,65 %
21.03.2016 09:44 5,4 C 74 % 1017,8 hPa 0,0 l/m 10,3 km/h (2 Bft) SW 236 1 min 0,000 mm 1,5 UV-I 374 W/m 1,1 C 2,3 C 14,5 km/h (3 Bft) 100,00 %
21.03.2016 09:45 5,6 C 73 % 1017,9 hPa 0,0 l/m 11,1 km/h (2 Bft) W-SW 246 1 min 0,000 mm 1,5 UV-I 414 W/m 1,2 C 2,0 C 14,5 km/h (3 Bft) 100,00 %
21.03.2016 09:46 5,5 C 72 % 1017,9 hPa 0,0 l/m 7,4 km/h (2 Bft) NW 317 1 min 0,000 mm 1,4 UV-I 438 W/m 0,9 C 4,6 C 11,3 km/h (2 Bft) 100,00 %
21.03.2016 09:47 5,6 C 73 % 1017,9 hPa 0,0 l/m 4,9 km/h (1 Bft) W 263 1 min 0,000 mm 1,2 UV-I 427 W/m 1,2 C 5,6 C 8,0 km/h (2 Bft) 100,00 %
21.03.2016 09:48 5,6 C 73 % 1018,0 hPa 0,0 l/m 3,7 km/h (1 Bft) W-NW 289 1 min 0,000 mm 1,2 UV-I 316 W/m 1,2 C 5,6 C 6,4 km/h (2 Bft) 96,15 %
21.03.2016 09:49 5,7 C 74 % 1018,0 hPa 0,0 l/m 5,0 km/h (1 Bft) W 277 1 min 0,000 mm 1,2 UV-I 321 W/m 1,4 C 5,7 C 9,7 km/h (2 Bft) 100,00 %
21.03.2016 09:50 5,7 C 73 % 1018,0 hPa 0,0 l/m 6,8 km/h (2 Bft) W-SW 256 1 min 0,000 mm 1,2 UV-I 324 W/m 1,2 C 5,4 C 11,3 km/h (2 Bft) 100,00 %
21.03.2016 09:51 5,6 C 72 % 1017,9 hPa 0,0 l/m 4,6 km/h (1 Bft) W 278 0 min 0,000 mm 1,2 UV-I 305 W/m 1,0 C 5,6 C 8,0 km/h (2 Bft) 100,00 %
21.03.2016 09:52 5,6 C 73 % 1017,9 hPa 0,0 l/m 3,3 km/h (1 Bft) NW 319 0 min 0,000 mm 1,2 UV-I 281 W/m 1,2 C 5,6 C 4,8 km/h (1 Bft) 100,00 %
21.03.2016 09:53 5,6 C 73 % 1017,9 hPa 0,0 l/m 1,7 km/h (1 Bft) NW 313 0 min 0,000 mm 1,2 UV-I 268 W/m 1,2 C 5,6 C 3,2 km/h (1 Bft) 100,00 %
21.03.2016 09:54 5,4 C 73 % 1017,9 hPa 0,0 l/m 5,7 km/h (1 Bft) SW 227 0 min 0,000 mm 1,2 UV-I 281 W/m 1,0 C 5,4 C 8,0 km/h (2 Bft) 100,00 %
21.03.2016 09:55 5,4 C 72 % 1017,9 hPa 0,0 l/m 6,0 km/h (2 Bft) SW 216 0 min 0,000 mm 1,3 UV-I 295 W/m 0,8 C 5,4 C 8,0 km/h (2 Bft) 100,00 %
21.03.2016 09:56 5,3 C 72 % 1017,9 hPa 0,0 l/m 6,5 km/h (2 Bft) S-SW 208 0 min 0,000 mm 1,3 UV-I 295 W/m 0,7 C 5,2 C 9,7 km/h (2 Bft) 100,00 %
21.03.2016 09:57 5,3 C 73 % 1017,9 hPa 0,0 l/m 9,3 km/h (2 Bft) S-SW 209 0 min 0,000 mm 1,3 UV-I 308 W/m 0,9 C 2,9 C 14,5 km/h (3 Bft) 100,00 %
21.03.2016 09:58 5,3 C 73 % 1017,9 hPa 0,0 l/m 10,5 km/h (2 Bft) SW 227 1 min 0,000 mm 1,3 UV-I 314 W/m 0,9 C 2,1 C 16,1 km/h (3 Bft) 100,00 %
21.03.2016 09:59 5,3 C 73 % 1017,9 hPa 0,0 l/m 10,7 km/h (2 Bft) W-SW 257 0 min 0,000 mm 1,3 UV-I 313 W/m 0,9 C 1,9 C 14,5 km/h (3 Bft) 96,30 %
21.03.2016 10:00 5,3 C 72 % 1017,9 hPa 0,0 l/m 7,2 km/h (2 Bft) W 272 1 min 0,000 mm 1,3 UV-I 315 W/m 0,7 C 4,6 C 11,3 km/h (2 Bft) 100,00 %
21.03.2016 10:02 5,3 C 73 % 1017,9 hPa 0,0 l/m 8,6 km/h (2 Bft) W-SW 249 2 min 0,127 mm 1,4 UV-I 375 W/m 0,9 C 3,4 C 17,7 km/h (3 Bft) 97,78 %
21.03.2016 10:03 5,4 C 73 % 1018,0 hPa 0,0 l/m 10,8 km/h (2 Bft) W-SW 254 1 min 0,000 mm 1,4 UV-I 450 W/m 1,0 C 2,0 C 16,1 km/h (3 Bft) 96,55 %
21.03.2016 10:04 5,4 C 73 % 1018,0 hPa 0,0 l/m 8,5 km/h (2 Bft) S-SW 197 1 min 0,000 mm 1,3 UV-I 390 W/m 1,0 C 3,6 C 11,3 km/h (2 Bft) 100,00 %
21.03.2016 10:05 5,4 C 73 % 1018,0 hPa 0,0 l/m 6,2 km/h (2 Bft) W-NW 284 1 min 0,000 mm 1,3 UV-I 327 W/m 1,0 C 5,4 C 9,7 km/h (2 Bft) 100,00 %
21.03.2016 10:06 5,4 C 73 % 1018,0 hPa 0,0 l/m 5,0 km/h (1 Bft) W-SW 244 1 min 0,000 mm 1,4 UV-I 352 W/m 1,0 C 5,4 C 6,4 km/h (2 Bft) 100,00 %
21.03.2016 10:07 5,6 C 73 % 1018,0 hPa 0,0 l/m 8,2 km/h (2 Bft) SW 220 1 min 0,000 mm 1,3 UV-I 352 W/m 1,2 C 4,1 C 14,5 km/h (3 Bft) 100,00 %
21.03.2016 10:08 5,6 C 72 % 1018,0 hPa 0,0 l/m 7,6 km/h (2 Bft) S-SW 194 1 min 0,000 mm 1,3 UV-I 337 W/m 1,0 C 4,6 C 12,9 km/h (3 Bft) 100,00 %
21.03.2016 10:09 5,6 C 72 % 1017,9 hPa 0,0 l/m 9,4 km/h (2 Bft) W-SW 237 1 min 0,000 mm 1,2 UV-I 327 W/m 1,0 C 3,2 C 12,9 km/h (3 Bft) 92,86 %
21.03.2016 10:10 5,5 C 71 % 1018,0 hPa 0,0 l/m 6,1 km/h (2 Bft) SW 233 1 min 0,000 mm 1,2 UV-I 350 W/m 0,7 C 5,5 C 8,0 km/h (2 Bft) 100,00 %
21.03.2016 10:11 5,5 C 73 % 1017,9 hPa 0,0 l/m 9,4 km/h (2 Bft) S-SW 196 0 min 0,000 mm 1,2 UV-I 296 W/m 1,1 C 3,1 C 14,5 km/h (3 Bft) 100,00 %
21.03.2016 10:12 5,5 C 72 % 1017,9 hPa 0,0 l/m 7,5 km/h (2 Bft) W-SW 240 0 min 0,000 mm 1,2 UV-I 304 W/m 0,9 C 4,5 C 11,3 km/h (2 Bft) 100,00 %
21.03.2016 10:13 5,4 C 72 % 1017,9 hPa 0,0 l/m 6,2 km/h (2 Bft) S-SW 192 0 min 0,000 mm 1,2 UV-I 301 W/m 0,8 C 5,4 C 11,3 km/h (2 Bft) 100,00 %
21.03.2016 10:14 5,4 C 72 % 1018,0 hPa 0,0 l/m 8,0 km/h (2 Bft) SW 227 0 min 0,000 mm 1,2 UV-I 291 W/m 0,8 C 4,0 C 11,3 km/h (2 Bft) 100,00 %
21.03.2016 10:15 5,3 C 72 % 1018,0 hPa 0,0 l/m 6,1 km/h (2 Bft) S-SW 200 0 min 0,000 mm 1,2 UV-I 286 W/m 0,7 C 5,3 C 9,7 km/h (2 Bft) 100,00 %
21.03.2016 10:16 5,3 C 72 % 1018,0 hPa 0,0 l/m 8,4 km/h (2 Bft) W-SW 237 0 min 0,000 mm 1,1 UV-I 275 W/m 0,7 C 3,6 C 11,3 km/h (2 Bft) 100,00 %
21.03.2016 10:17 5,4 C 73 % 1017,9 hPa 0,0 l/m 6,3 km/h (2 Bft) SW 215 0 min 0,000 mm 1,1 UV-I 262 W/m 1,0 C 5,4 C 9,7 km/h (2 Bft) 100,00 %
21.03.2016 10:18 5,4 C 73 % 1017,9 hPa 0,0 l/m 7,8 km/h (2 Bft) S 173 0 min 0,000 mm 1,1 UV-I 249 W/m 1,0 C 4,2 C 11,3 km/h (2 Bft) 100,00 %
21.03.2016 10:19 5,5 C 73 % 1017,9 hPa 0,0 l/m 7,2 km/h (2 Bft) S 190 0 min 0,000 mm 1,1 UV-I 230 W/m 1,1 C 4,8 C 12,9 km/h (3 Bft) 100,00 %
21.03.2016 10:20 5,4 C 72 % 1017,9 hPa 0,0 l/m 10,6 km/h (2 Bft) SW 215 0 min 0,000 mm 1,1 UV-I 219 W/m 0,8 C 2,1 C 17,7 km/h (3 Bft) 100,00 %
21.03.2016 10:21 5,5 C 73 % 1017,9 hPa 0,0 l/m 11,6 km/h (2 Bft) W-SW 244 0 min 0,000 mm 1,2 UV-I 228 W/m 1,1 C 1,6 C 16,1 km/h (3 Bft) 100,00 %
21.03.2016 10:22 5,5 C 72 % 1017,9 hPa 0,0 l/m 9,0 km/h (2 Bft) SW 229 0 min 0,000 mm 1,2 UV-I 252 W/m 0,9 C 3,3 C 12,9 km/h (3 Bft) 100,00 %
21.03.2016 10:23 5,5 C 73 % 1017,9 hPa 0,0 l/m 5,3 km/h (1 Bft) W 264 0 min 0,000 mm 1,2 UV-I 253 W/m 1,1 C 5,5 C 6,4 km/h (2 Bft) 100,00 %
21.03.2016 10:24 5,6 C 72 % 1017,9 hPa 0,0 l/m 5,2 km/h (1 Bft) W-SW 239 0 min 0,000 mm 1,3 UV-I 256 W/m 1,0 C 5,6 C 8,0 km/h (2 Bft) 100,00 %
21.03.2016 10:25 5,6 C 73 % 1017,9 hPa 0,0 l/m 7,5 km/h (2 Bft) W 263 0 min 0,000 mm 1,3 UV-I 267 W/m 1,2 C 4,6 C 11,3 km/h (2 Bft) 100,00 %
21.03.2016 10:26 5,7 C 72 % 1017,9 hPa 0,0 l/m 8,4 km/h (2 Bft) W-SW 254 0 min 0,000 mm 1,4 UV-I 280 W/m 1,1 C 4,0 C 11,3 km/h (2 Bft) 100,00 %
21.03.2016 10:27 5,7 C 72 % 1017,8 hPa 0,0 l/m 8,2 km/h (2 Bft) W 262 0 min 0,000 mm 1,4 UV-I 277 W/m 1,1 C 4,2 C 11,3 km/h (2 Bft) 100,00 %
21.03.2016 10:28 5,7 C 73 % 1017,8 hPa 0,0 l/m 6,3 km/h (2 Bft) W-SW 241 0 min 0,000 mm 1,5 UV-I 290 W/m 1,2 C 5,7 C 9,7 km/h (2 Bft) 100,00 %
21.03.2016 10:29 5,7 C 72 % 1017,8 hPa 0,0 l/m 5,1 km/h (1 Bft) W-SW 250 0 min 0,000 mm 1,5 UV-I 322 W/m 1,1 C 5,7 C 6,4 km/h (2 Bft) 100,00 %
21.03.2016 10:30 5,7 C 72 % 1017,8 hPa 0,0 l/m 4,7 km/h (1 Bft) W-NW 295 1 min 0,000 mm 1,5 UV-I 366 W/m 1,1 C 5,7 C 6,4 km/h (2 Bft) 100,00 %
21.03.2016 10:31 5,8 C 72 % 1017,8 hPa 0,0 l/m 6,2 km/h (2 Bft) W-NW 293 0 min 0,000 mm 1,5 UV-I 319 W/m 1,2 C 5,8 C 11,3 km/h (2 Bft) 100,00 %
21.03.2016 10:32 5,8 C 72 % 1017,8 hPa 0,0 l/m 5,9 km/h (2 Bft) W-NW 292 0 min 0,000 mm 1,6 UV-I 327 W/m 1,2 C 5,8 C 11,3 km/h (2 Bft) 100,00 %
21.03.2016 10:33 5,8 C 72 % 1017,8 hPa 0,0 l/m 1,9 km/h (1 Bft) W 275 0 min 0,000 mm 1,6 UV-I 330 W/m 1,2 C 5,8 C 4,8 km/h (1 Bft) 100,00 %
21.03.2016 10:34 5,8 C 70 % 1017,8 hPa 0,0 l/m 3,2 km/h (1 Bft) W 275 0 min 0,000 mm 1,6 UV-I 330 W/m 0,8 C 5,8 C 4,8 km/h (1 Bft) 100,00 %
21.03.2016 10:35 5,8 C 71 % 1017,8 hPa 0,0 l/m 4,3 km/h (1 Bft) W-SW 240 0 min 0,000 mm 1,6 UV-I 336 W/m 1,0 C 5,8 C 9,7 km/h (2 Bft) 100,00 %
21.03.2016 10:36 5,8 C 72 % 1017,8 hPa 0,0 l/m 4,4 km/h (1 Bft) W-SW 237 1 min 0,000 mm 1,6 UV-I 356 W/m 1,2 C 5,8 C 6,4 km/h (2 Bft) 100,00 %
21.03.2016 10:37 5,8 C 72 % 1017,8 hPa 0,0 l/m 4,8 km/h (1 Bft) S-SW 203 1 min 0,000 mm 1,8 UV-I 431 W/m 1,2 C 5,8 C 8,0 km/h (2 Bft) 100,00 %
21.03.2016 10:38 5,9 C 72 % 1017,8 hPa 0,0 l/m 9,3 km/h (2 Bft) S 189 1 min 0,000 mm 1,8 UV-I 441 W/m 1,2 C 3,6 C 12,9 km/h (3 Bft) 100,00 %
21.03.2016 10:39 5,8 C 71 % 1017,8 hPa 0,0 l/m 9,9 km/h (2 Bft) S 179 1 min 0,000 mm 1,9 UV-I 473 W/m 1,0 C 3,0 C 16,1 km/h (3 Bft) 100,00 %
21.03.2016 10:40 5,8 C 71 % 1017,7 hPa 0,0 l/m 6,4 km/h (2 Bft) S-SW 195 1 min 0,000 mm 1,7 UV-I 461 W/m 1,0 C 5,8 C 9,7 km/h (2 Bft) 100,00 %
21.03.2016 10:41 5,9 C 72 % 1017,7 hPa 0,0 l/m 6,4 km/h (2 Bft) SW 225 1 min 0,000 mm 1,6 UV-I 345 W/m 1,2 C 5,9 C 8,0 km/h (2 Bft) 100,00 %
21.03.2016 10:42 5,9 C 72 % 1017,7 hPa 0,0 l/m 11,1 km/h (2 Bft) S-SW 203 1 min 0,000 mm 1,7 UV-I 358 W/m 1,2 C 2,3 C 14,5 km/h (3 Bft) 100,00 %
21.03.2016 10:43 5,9 C 72 % 1017,7 hPa 0,0 l/m 11,5 km/h (2 Bft) SW 232 1 min 0,000 mm 1,7 UV-I 414 W/m 1,2 C 2,1 C 17,7 km/h (3 Bft) 100,00 %
21.03.2016 10:44 5,9 C 71 % 1017,8 hPa 0,0 l/m 10,6 km/h (2 Bft) S 186 1 min 0,000 mm 1,8 UV-I 445 W/m 1,1 C 2,7 C 14,5 km/h (3 Bft) 91,67 %
21.03.2016 10:45 5,9 C 72 % 1017,7 hPa 0,0 l/m 9,8 km/h (2 Bft) SW 221 1 min 0,000 mm 1,9 UV-I 445 W/m 1,2 C 3,2 C 12,9 km/h (3 Bft) 96,55 %
21.03.2016 10:46 5,9 C 71 % 1017,7 hPa 0,0 l/m 9,8 km/h (2 Bft) SW 232 1 min 0,000 mm 1,9 UV-I 445 W/m 1,1 C 3,2 C 16,1 km/h (3 Bft) 96,30 %
21.03.2016 10:47 5,9 C 71 % 1017,7 hPa 0,0 l/m 4,9 km/h (1 Bft) W-SW 258 1 min 0,000 mm 1,8 UV-I 443 W/m 1,1 C 5,9 C 8,0 km/h (2 Bft) 96,15 %
21.03.2016 10:48 5,8 C 70 % 1017,7 hPa 0,0 l/m 4,3 km/h (1 Bft) W-NW 300 1 min 0,000 mm 1,9 UV-I 439 W/m 0,8 C 5,8 C 8,0 km/h (2 Bft) 100,00 %
21.03.2016 10:49 5,8 C 71 % 1017,7 hPa 0,0 l/m 3,9 km/h (1 Bft) NW 304 1 min 0,000 mm 1,6 UV-I 439 W/m 1,0 C 5,8 C 8,0 km/h (2 Bft) 96,15 %
21.03.2016 10:50 5,9 C 72 % 1017,6 hPa 0,0 l/m 8,9 km/h (2 Bft) W-SW 240 1 min 0,000 mm 1,6 UV-I 444 W/m 1,2 C 3,9 C 12,9 km/h (3 Bft) 100,00 %
21.03.2016 10:51 6,1 C 73 % 1017,6 hPa 0,0 l/m 5,0 km/h (1 Bft) SW 223 1 min 0,000 mm 1,6 UV-I 445 W/m 1,6 C 6,1 C 6,4 km/h (2 Bft) 96,15 %
21.03.2016 10:52 6,1 C 71 % 1017,6 hPa 0,0 l/m 5,4 km/h (1 Bft) S-SW 211 0 min 0,000 mm 1,6 UV-I 276 W/m 1,2 C 6,1 C 8,0 km/h (2 Bft) 100,00 %
21.03.2016 10:53 6,1 C 71 % 1017,6 hPa 0,0 l/m 6,7 km/h (2 Bft) W-SW 242 0 min 0,000 mm 1,6 UV-I 293 W/m 1,2 C 5,9 C 12,9 km/h (3 Bft) 95,65 %
21.03.2016 10:54 6,0 C 71 % 1017,6 hPa 0,0 l/m 4,6 km/h (1 Bft) N-NW 339 0 min 0,000 mm 1,6 UV-I 306 W/m 1,1 C 6,0 C 6,4 km/h (2 Bft) 95,83 %
21.03.2016 10:55 6,1 C 72 % 1017,6 hPa 0,0 l/m 2,3 km/h (1 Bft) W 273 0 min 0,000 mm 1,6 UV-I 317 W/m 1,4 C 6,1 C 6,4 km/h (2 Bft) 100,00 %
21.03.2016 10:56 6,1 C 69 % 1017,6 hPa 0,0 l/m 5,6 km/h (1 Bft) W-NW 292 0 min 0,000 mm 1,7 UV-I 347 W/m 0,8 C 6,1 C 6,4 km/h (2 Bft) 95,83 %
21.03.2016 10:57 6,1 C 70 % 1017,6 hPa 0,0 l/m 4,1 km/h (1 Bft) SW 228 1 min 0,000 mm 1,8 UV-I 355 W/m 1,0 C 6,1 C 6,4 km/h (2 Bft) 100,00 %
21.03.2016 10:58 6,1 C 70 % 1017,6 hPa 0,0 l/m 2,2 km/h (1 Bft) NW 304 1 min 0,000 mm 1,7 UV-I 368 W/m 1,0 C 6,1 C 3,2 km/h (1 Bft) 86,67 %
21.03.2016 10:59 6,2 C 71 % 1017,6 hPa 0,0 l/m 1,3 km/h (1 Bft) N 360 1 min 0,000 mm 1,6 UV-I 436 W/m 1,3 C 6,2 C 1,6 km/h (1 Bft) 100,00 %
21.03.2016 11:00 6,3 C 71 % 1017,6 hPa 0,0 l/m 4,1 km/h (1 Bft) W-SW 245 1 min 0,000 mm 1,5 UV-I 383 W/m 1,4 C 6,3 C 6,4 km/h (2 Bft) 93,33 %
21.03.2016 11:02 6,5 C 71 % 1017,6 hPa 0,0 l/m 7,8 km/h (2 Bft) W 266 0 min 0,152 mm 1,4 UV-I 307 W/m 1,6 C 5,3 C 14,5 km/h (3 Bft) 98,11 %
21.03.2016 11:03 6,5 C 69 % 1017,6 hPa 0,0 l/m 5,0 km/h (1 Bft) W 270 0 min 0,000 mm 1,4 UV-I 300 W/m 1,2 C 6,5 C 11,3 km/h (2 Bft) 96,30 %
21.03.2016 11:04 6,5 C 70 % 1017,6 hPa 0,0 l/m 6,5 km/h (2 Bft) W 267 0 min 0,000 mm 1,5 UV-I 302 W/m 1,4 C 6,4 C 11,3 km/h (2 Bft) 100,00 %
21.03.2016 11:05 6,5 C 70 % 1017,6 hPa 0,0 l/m 4,1 km/h (1 Bft) W-SW 254 0 min 0,000 mm 1,5 UV-I 322 W/m 1,4 C 6,5 C 11,3 km/h (2 Bft) 96,67 %
21.03.2016 11:06 6,5 C 69 % 1017,7 hPa 0,0 l/m 8,5 km/h (2 Bft) W-SW 240 0 min 0,000 mm 1,6 UV-I 354 W/m 1,2 C 4,8 C 12,9 km/h (3 Bft) 100,00 %
21.03.2016 11:07 6,4 C 69 % 1017,6 hPa 0,0 l/m 10,1 km/h (2 Bft) S 183 1 min 0,000 mm 2,0 UV-I 381 W/m 1,1 C 3,6 C 14,5 km/h (3 Bft) 93,33 %
21.03.2016 11:08 6,4 C 69 % 1017,6 hPa 0,0 l/m 7,1 km/h (2 Bft) W-SW 245 1 min 0,000 mm 2,1 UV-I 530 W/m 1,1 C 5,8 C 9,7 km/h (2 Bft) 100,00 %
21.03.2016 11:09 6,6 C 72 % 1017,6 hPa 0,0 l/m 9,5 km/h (2 Bft) SW 214 1 min 0,000 mm 1,9 UV-I 509 W/m 1,9 C 4,2 C 16,1 km/h (3 Bft) 95,83 %
21.03.2016 11:10 6,6 C 68 % 1017,6 hPa 0,0 l/m 11,9 km/h (2 Bft) W-SW 254 1 min 0,000 mm 1,7 UV-I 489 W/m 1,1 C 2,7 C 16,1 km/h (3 Bft) 100,00 %
21.03.2016 11:11 6,5 C 68 % 1017,6 hPa 0,0 l/m 4,7 km/h (1 Bft) S 180 1 min 0,000 mm 1,7 UV-I 388 W/m 1,0 C 6,5 C 11,3 km/h (2 Bft) 96,67 %
21.03.2016 11:12 6,4 C 67 % 1017,6 hPa 0,0 l/m 4,8 km/h (1 Bft) S 173 1 min 0,000 mm 1,7 UV-I 426 W/m 0,7 C 6,4 C 9,7 km/h (2 Bft) 95,65 %
21.03.2016 11:13 6,4 C 69 % 1017,6 hPa 0,0 l/m 4,8 km/h (1 Bft) S 181 1 min 0,000 mm 1,8 UV-I 455 W/m 1,1 C 6,4 C 6,4 km/h (2 Bft) 98,68 %
21.03.2016 11:14 6,3 C 69 % 1017,5 hPa 0,0 l/m 2,9 km/h (1 Bft) S-SW 198 1 min 0,000 mm 1,8 UV-I 457 W/m 1,0 C 6,3 C 6,4 km/h (2 Bft) 94,74 %
21.03.2016 11:15 6,4 C 70 % 1017,5 hPa 0,0 l/m 3,9 km/h (1 Bft) SW 232 1 min 0,000 mm 1,8 UV-I 460 W/m 1,3 C 6,4 C 8,0 km/h (2 Bft) 100,00 %
21.03.2016 11:16 6,5 C 70 % 1017,5 hPa 0,0 l/m 9,8 km/h (2 Bft) SW 217 1 min 0,000 mm 1,7 UV-I 453 W/m 1,4 C 3,9 C 12,9 km/h (3 Bft) 96,55 %
21.03.2016 11:17 6,5 C 69 % 1017,5 hPa 0,0 l/m 8,5 km/h (2 Bft) S-SW 196 1 min 0,000 mm 1,7 UV-I 427 W/m 1,2 C 4,8 C 17,7 km/h (3 Bft) 100,00 %
21.03.2016 11:18 6,5 C 69 % 1017,5 hPa 0,0 l/m 11,4 km/h (2 Bft) W-SW 256 1 min 0,000 mm 1,6 UV-I 402 W/m 1,2 C 2,8 C 16,1 km/h (3 Bft) 100,00 %
21.03.2016 11:19 6,6 C 70 % 1017,5 hPa 0,0 l/m 5,1 km/h (1 Bft) W-SW 244 1 min 0,000 mm 1,4 UV-I 403 W/m 1,5 C 6,6 C 9,7 km/h (2 Bft) 100,00 %
21.03.2016 11:20 6,6 C 70 % 1017,5 hPa 0,0 l/m 9,7 km/h (2 Bft) S-SW 212 1 min 0,000 mm 1,5 UV-I 430 W/m 1,5 C 4,0 C 14,5 km/h (3 Bft) 100,00 %
21.03.2016 11:21 6,7 C 69 % 1017,4 hPa 0,0 l/m 13,5 km/h (3 Bft) S 189 1 min 0,000 mm 1,4 UV-I 421 W/m 1,4 C 1,9 C 22,5 km/h (4 Bft) 96,15 %
21.03.2016 11:22 6,6 C 68 % 1017,4 hPa 0,0 l/m 10,5 km/h (2 Bft) S-SW 196 0 min 0,000 mm 1,4 UV-I 342 W/m 1,1 C 3,5 C 14,5 km/h (3 Bft) 100,00 %
21.03.2016 11:23 6,6 C 69 % 1017,4 hPa 0,0 l/m 13,3 km/h (3 Bft) SW 229 1 min 0,000 mm 1,6 UV-I 388 W/m 1,3 C 1,9 C 17,7 km/h (3 Bft) 100,00 %
21.03.2016 11:24 6,5 C 69 % 1017,5 hPa 0,0 l/m 7,9 km/h (2 Bft) S-SW 213 1 min 0,000 mm 1,8 UV-I 420 W/m 1,2 C 5,3 C 11,3 km/h (2 Bft) 100,00 %
21.03.2016 11:25 6,4 C 69 % 1017,4 hPa 0,0 l/m 9,7 km/h (2 Bft) S-SW 193 1 min 0,000 mm 1,9 UV-I 505 W/m 1,1 C 3,8 C 14,5 km/h (3 Bft) 95,65 %
21.03.2016 11:26 6,5 C 70 % 1017,4 hPa 0,0 l/m 9,7 km/h (2 Bft) S 180 1 min 0,000 mm 1,7 UV-I 541 W/m 1,4 C 3,9 C 12,9 km/h (3 Bft) 100,00 %
21.03.2016 11:27 6,6 C 70 % 1017,4 hPa 0,0 l/m 7,2 km/h (2 Bft) SW 231 1 min 0,000 mm 1,6 UV-I 519 W/m 1,5 C 5,9 C 11,3 km/h (2 Bft) 100,00 %
21.03.2016 11:28 6,6 C 70 % 1017,4 hPa 0,0 l/m 7,6 km/h (2 Bft) S-SW 205 1 min 0,000 mm 1,5 UV-I 377 W/m 1,5 C 5,6 C 11,3 km/h (2 Bft) 100,00 %
21.03.2016 11:29 6,6 C 69 % 1017,4 hPa 0,0 l/m 8,0 km/h (2 Bft) S 186 1 min 0,000 mm 1,6 UV-I 403 W/m 1,3 C 5,3 C 12,9 km/h (3 Bft) 100,00 %
21.03.2016 11:30 6,6 C 69 % 1017,4 hPa 0,0 l/m 10,6 km/h (2 Bft) W 260 1 min 0,000 mm 1,6 UV-I 408 W/m 1,3 C 3,4 C 14,5 km/h (3 Bft) 100,00 %
21.03.2016 11:31 6,7 C 68 % 1017,4 hPa 0,0 l/m 9,5 km/h (2 Bft) W 264 1 min 0,000 mm 1,6 UV-I 396 W/m 1,2 C 4,3 C 12,9 km/h (3 Bft) 100,00 %
21.03.2016 11:32 6,7 C 68 % 1017,3 hPa 0,0 l/m 7,9 km/h (2 Bft) W 271 1 min 0,000 mm 1,5 UV-I 382 W/m 1,2 C 5,5 C 11,3 km/h (2 Bft) 100,00 %
21.03.2016 11:33 6,7 C 68 % 1017,3 hPa 0,0 l/m 7,3 km/h (2 Bft) W-SW 252 0 min 0,000 mm 1,5 UV-I 364 W/m 1,2 C 6,0 C 9,7 km/h (2 Bft) 100,00 %
21.03.2016 11:34 6,7 C 67 % 1017,3 hPa 0,0 l/m 6,3 km/h (2 Bft) W 260 0 min 0,000 mm 1,4 UV-I 348 W/m 1,0 C 6,7 C 9,7 km/h (2 Bft) 100,00 %
21.03.2016 11:35 6,8 C 70 % 1017,3 hPa 0,0 l/m 6,1 km/h (2 Bft) S 174 0 min 0,000 mm 1,4 UV-I 341 W/m 1,7 C 6,8 C 9,7 km/h (2 Bft) 100,00 %
21.03.2016 11:36 6,8 C 68 % 1017,3 hPa 0,0 l/m 6,3 km/h (2 Bft) S 182 0 min 0,000 mm 1,5 UV-I 367 W/m 1,3 C 6,8 C 8,0 km/h (2 Bft) 100,00 %
21.03.2016 11:37 6,8 C 68 % 1017,3 hPa 0,0 l/m 8,0 km/h (2 Bft) W-SW 237 1 min 0,000 mm 1,6 UV-I 425 W/m 1,3 C 5,5 C 11,3 km/h (2 Bft) 100,00 %
21.03.2016 11:38 6,7 C 68 % 1017,2 hPa 0,0 l/m 12,2 km/h (2 Bft) W-SW 239 1 min 0,000 mm 1,6 UV-I 386 W/m 1,2 C 2,6 C 17,7 km/h (3 Bft) 100,00 %
21.03.2016 11:39 6,8 C 69 % 1017,2 hPa 0,0 l/m 8,3 km/h (2 Bft) W-SW 253 1 min 0,000 mm 1,6 UV-I 377 W/m 1,5 C 5,3 C 14,5 km/h (3 Bft) 100,00 %
21.03.2016 11:40 6,8 C 68 % 1017,2 hPa 0,0 l/m 6,6 km/h (2 Bft) SW 222 1 min 0,000 mm 1,6 UV-I 376 W/m 1,3 C 6,7 C 11,3 km/h (2 Bft) 100,00 %
21.03.2016 11:41 6,8 C 68 % 1017,2 hPa 0,0 l/m 4,7 km/h (1 Bft) W-SW 247 1 min 0,000 mm 1,6 UV-I 381 W/m 1,3 C 6,8 C 8,0 km/h (2 Bft) 100,00 %
21.03.2016 11:42 6,8 C 67 % 1017,3 hPa 0,0 l/m 5,7 km/h (1 Bft) SW 229 1 min 0,000 mm 1,6 UV-I 372 W/m 1,1 C 6,8 C 9,7 km/h (2 Bft) 96,55 %
21.03.2016 11:43 6,9 C 69 % 1017,2 hPa 0,0 l/m 5,2 km/h (1 Bft) W 277 0 min 0,000 mm 1,6 UV-I 361 W/m 1,6 C 6,9 C 11,3 km/h (2 Bft) 100,00 %
21.03.2016 11:44 6,9 C 67 % 1017,2 hPa 0,0 l/m 4,7 km/h (1 Bft) W-SW 244 1 min 0,000 mm 1,6 UV-I 376 W/m 1,2 C 6,9 C 9,7 km/h (2 Bft) 100,00 %
21.03.2016 11:45 7,0 C 67 % 1017,2 hPa 0,0 l/m 3,1 km/h (1 Bft) W 260 1 min 0,000 mm 1,7 UV-I 414 W/m 1,3 C 7,0 C 11,3 km/h (2 Bft) 100,00 %
21.03.2016 11:46 7,1 C 68 % 1017,3 hPa 0,0 l/m 9,3 km/h (2 Bft) W 261 1 min 0,000 mm 1,4 UV-I 446 W/m 1,6 C 4,9 C 17,7 km/h (3 Bft) 96,15 %
21.03.2016 11:47 7,1 C 67 % 1017,3 hPa 0,0 l/m 9,1 km/h (2 Bft) W-SW 249 0 min 0,000 mm 1,4 UV-I 314 W/m 1,4 C 5,0 C 16,1 km/h (3 Bft) 100,00 %
21.03.2016 11:48 6,9 C 66 % 1017,2 hPa 0,0 l/m 6,5 km/h (2 Bft) W 277 0 min 0,000 mm 1,3 UV-I 224 W/m 1,0 C 6,8 C 12,9 km/h (3 Bft) 100,00 %
21.03.2016 11:49 6,9 C 66 % 1017,2 hPa 0,0 l/m 4,7 km/h (1 Bft) W-SW 246 0 min 0,000 mm 1,3 UV-I 213 W/m 1,0 C 6,9 C 6,4 km/h (2 Bft) 100,00 %
21.03.2016 11:50 6,8 C 67 % 1017,2 hPa 0,0 l/m 9,1 km/h (2 Bft) W-SW 242 0 min 0,000 mm 1,4 UV-I 207 W/m 1,1 C 4,7 C 12,9 km/h (3 Bft) 100,00 %
21.03.2016 11:51 6,8 C 68 % 1017,2 hPa 0,0 l/m 10,5 km/h (2 Bft) W-NW 283 0 min 0,000 mm 1,4 UV-I 204 W/m 1,3 C 3,7 C 14,5 km/h (3 Bft) 100,00 %
21.03.2016 11:52 6,8 C 67 % 1017,2 hPa 0,0 l/m 6,4 km/h (2 Bft) W 259 0 min 0,000 mm 1,5 UV-I 201 W/m 1,1 C 6,8 C 11,3 km/h (2 Bft) 95,65 %
21.03.2016 11:53 6,8 C 66 % 1017,1 hPa 0,0 l/m 3,9 km/h (1 Bft) SW 236 0 min 0,000 mm 1,5 UV-I 207 W/m 0,9 C 6,8 C 6,4 km/h (2 Bft) 100,00 %
21.03.2016 11:54 6,7 C 67 % 1017,1 hPa 0,0 l/m 7,2 km/h (2 Bft) W-SW 246 0 min 0,000 mm 1,6 UV-I 217 W/m 1,0 C 6,0 C 9,7 km/h (2 Bft) 100,00 %
21.03.2016 11:55 6,7 C 66 % 1017,1 hPa 0,0 l/m 8,1 km/h (2 Bft) W-SW 243 0 min 0,000 mm 1,7 UV-I 243 W/m 0,8 C 5,3 C 11,3 km/h (2 Bft) 100,00 %
21.03.2016 11:56 6,8 C 68 % 1017,1 hPa 0,0 l/m 4,8 km/h (1 Bft) S 169 0 min 0,000 mm 2,0 UV-I 254 W/m 1,3 C 6,8 C 9,7 km/h (2 Bft) 100,00 %
21.03.2016 11:57 6,8 C 66 % 1017,1 hPa 0,0 l/m 5,1 km/h (1 Bft) S 187 0 min 0,000 mm 2,0 UV-I 315 W/m 0,9 C 6,8 C 8,0 km/h (2 Bft) 100,00 %
21.03.2016 11:58 6,8 C 66 % 1017,1 hPa 0,0 l/m 5,1 km/h (1 Bft) W 263 0 min 0,000 mm 1,9 UV-I 298 W/m 0,9 C 6,8 C 9,7 km/h (2 Bft) 100,00 %
21.03.2016 11:59 6,8 C 67 % 1017,1 hPa 0,0 l/m 8,4 km/h (2 Bft) SW 232 0 min 0,000 mm 1,9 UV-I 306 W/m 1,1 C 5,2 C 12,9 km/h (3 Bft) 100,00 %
21.03.2016 12:00 6,8 C 67 % 1017,1 hPa 0,0 l/m 8,0 km/h (2 Bft) SW 225 0 min 0,178 mm 1,9 UV-I 313 W/m 1,1 C 5,5 C 17,7 km/h (3 Bft) 100,00 %
21.03.2016 12:01 6,8 C 67 % 1017,0 hPa 0,0 l/m 11,9 km/h (2 Bft) SW 234 0 min 0,000 mm 2,0 UV-I 359 W/m 1,1 C 2,9 C 14,5 km/h (3 Bft) 100,00 %
21.03.2016 12:02 6,8 C 67 % 1017,1 hPa 0,0 l/m 8,1 km/h (2 Bft) S-SW 212 1 min 0,000 mm 2,0 UV-I 432 W/m 1,1 C 5,4 C 11,3 km/h (2 Bft) 100,00 %
21.03.2016 12:03 6,8 C 67 % 1017,0 hPa 0,0 l/m 6,4 km/h (2 Bft) SW 221 1 min 0,000 mm 2,2 UV-I 418 W/m 1,1 C 6,8 C 8,0 km/h (2 Bft) 100,00 %
21.03.2016 12:04 6,8 C 67 % 1016,9 hPa 0,0 l/m 4,7 km/h (1 Bft) S-SW 213 1 min 0,000 mm 2,6 UV-I 501 W/m 1,1 C 6,8 C 6,4 km/h (2 Bft) 100,00 %
21.03.2016 12:05 6,9 C 70 % 1016,9 hPa 0,0 l/m 2,7 km/h (1 Bft) W 277 1 min 0,000 mm 2,7 UV-I 696 W/m 1,8 C 6,9 C 4,8 km/h (1 Bft) 96,15 %
21.03.2016 12:06 7,2 C 68 % 1017,0 hPa 0,0 l/m 11,1 km/h (2 Bft) W 271 1 min 0,000 mm 2,8 UV-I 767 W/m 1,7 C 3,8 C 16,1 km/h (3 Bft) 100,00 %
21.03.2016 12:07 7,3 C 66 % 1016,9 hPa 0,0 l/m 8,5 km/h (2 Bft) W-NW 286 1 min 0,000 mm 2,7 UV-I 809 W/m 1,4 C 5,6 C 12,9 km/h (3 Bft) 100,00 %
21.03.2016 12:08 7,6 C 67 % 1016,9 hPa 0,0 l/m 8,1 km/h (2 Bft) W-SW 257 1 min 0,000 mm 2,6 UV-I 726 W/m 1,9 C 6,3 C 11,3 km/h (2 Bft) 100,00 %
21.03.2016 12:09 7,7 C 65 % 1016,9 hPa 0,0 l/m 3,4 km/h (1 Bft) SW 234 1 min 0,000 mm 2,7 UV-I 773 W/m 1,5 C 7,7 C 6,4 km/h (2 Bft) 100,00 %
21.03.2016 12:10 7,8 C 65 % 1016,9 hPa 0,0 l/m 2,5 km/h (1 Bft) W-SW 255 1 min 0,000 mm 2,7 UV-I 775 W/m 1,6 C 7,8 C 4,8 km/h (1 Bft) 100,00 %
21.03.2016 12:11 7,9 C 64 % 1016,9 hPa 0,0 l/m 7,7 km/h (2 Bft) W 262 1 min 0,000 mm 2,5 UV-I 717 W/m 1,5 C 6,9 C 9,7 km/h (2 Bft) 100,00 %
21.03.2016 12:12 8,0 C 65 % 1016,9 hPa 0,0 l/m 7,6 km/h (2 Bft) W-SW 242 1 min 0,000 mm 2,4 UV-I 688 W/m 1,8 C 7,1 C 14,5 km/h (3 Bft) 100,00 %
21.03.2016 12:13 8,0 C 63 % 1016,9 hPa 0,0 l/m 7,1 km/h (2 Bft) SW 232 1 min 0,000 mm 2,4 UV-I 691 W/m 1,4 C 7,4 C 11,3 km/h (2 Bft) 100,00 %
21.03.2016 12:14 7,8 C 63 % 1016,8 hPa 0,0 l/m 3,9 km/h (1 Bft) W 269 1 min 0,000 mm 2,6 UV-I 691 W/m 1,2 C 7,8 C 6,4 km/h (2 Bft) 100,00 %
21.03.2016 12:15 7,8 C 64 % 1016,8 hPa 0,0 l/m 5,3 km/h (1 Bft) W 271 1 min 0,000 mm 2,2 UV-I 691 W/m 1,4 C 7,8 C 16,1 km/h (3 Bft) 100,00 %
21.03.2016 12:16 7,8 C 65 % 1016,8 hPa 0,0 l/m 9,7 km/h (2 Bft) W-SW 238 1 min 0,000 mm 2,5 UV-I 668 W/m 1,6 C 5,4 C 12,9 km/h (3 Bft) 100,00 %
21.03.2016 12:17 7,8 C 66 % 1016,8 hPa 0,0 l/m 9,9 km/h (2 Bft) SW 225 1 min 0,000 mm 2,2 UV-I 631 W/m 1,9 C 5,2 C 12,9 km/h (3 Bft) 100,00 %
21.03.2016 12:18 7,9 C 65 % 1016,8 hPa 0,0 l/m 8,4 km/h (2 Bft) W-SW 250 1 min 0,000 mm 1,9 UV-I 631 W/m 1,7 C 6,4 C 11,3 km/h (2 Bft) 100,00 %
21.03.2016 12:19 7,8 C 63 % 1016,8 hPa 0,0 l/m 8,4 km/h (2 Bft) W 261 0 min 0,000 mm 1,8 UV-I 337 W/m 1,2 C 6,2 C 14,5 km/h (3 Bft) 96,30 %
21.03.2016 12:20 7,7 C 63 % 1016,8 hPa 0,0 l/m 8,3 km/h (2 Bft) S-SW 206 0 min 0,000 mm 1,9 UV-I 332 W/m 1,1 C 6,2 C 12,9 km/h (3 Bft) 96,15 %
21.03.2016 12:21 7,6 C 64 % 1016,8 hPa 0,0 l/m 3,1 km/h (1 Bft) S-SW 199 0 min 0,000 mm 2,1 UV-I 362 W/m 1,2 C 7,6 C 4,8 km/h (1 Bft) 100,00 %
21.03.2016 12:22 7,6 C 65 % 1016,7 hPa 0,0 l/m 7,5 km/h (2 Bft) S-SW 209 1 min 0,000 mm 2,6 UV-I 580 W/m 1,5 C 6,7 C 12,9 km/h (3 Bft) 100,00 %
21.03.2016 12:23 7,8 C 65 % 1016,7 hPa 0,0 l/m 7,8 km/h (2 Bft) S 190 1 min 0,000 mm 2,6 UV-I 761 W/m 1,6 C 6,7 C 11,3 km/h (2 Bft) 100,00 %
21.03.2016 12:24 7,9 C 64 % 1016,7 hPa 0,0 l/m 9,9 km/h (2 Bft) W-SW 241 1 min 0,000 mm 2,7 UV-I 761 W/m 1,5 C 5,3 C 19,3 km/h (3 Bft) 95,65 %
21.03.2016 12:25 8,1 C 65 % 1016,7 hPa 0,0 l/m 9,7 km/h (2 Bft) W-SW 237 1 min 0,000 mm 2,7 UV-I 784 W/m 1,9 C 5,7 C 16,1 km/h (3 Bft) 100,00 %
21.03.2016 12:26 8,2 C 62 % 1016,7 hPa 0,0 l/m 6,6 km/h (2 Bft) S-SO 155 1 min 0,000 mm 2,5 UV-I 721 W/m 1,4 C 8,1 C 9,7 km/h (2 Bft) 100,00 %
21.03.2016 12:27 8,1 C 61 % 1016,7 hPa 0,0 l/m 10,9 km/h (2 Bft) S 186 1 min 0,000 mm 2,5 UV-I 652 W/m 1,0 C 4,9 C 16,1 km/h (3 Bft) 96,55 %
21.03.2016 12:28 8,1 C 61 % 1016,7 hPa 0,0 l/m 10,7 km/h (2 Bft) S-SW 200 1 min 0,000 mm 2,7 UV-I 734 W/m 1,0 C 5,1 C 16,1 km/h (3 Bft) 100,00 %
21.03.2016 12:29 8,1 C 62 % 1016,6 hPa 0,0 l/m 11,1 km/h (2 Bft) S 185 1 min 0,000 mm 2,6 UV-I 746 W/m 1,3 C 4,8 C 16,1 km/h (3 Bft) 100,00 %
21.03.2016 12:30 8,1 C 62 % 1016,5 hPa 0,0 l/m 11,7 km/h (2 Bft) S 188 1 min 0,000 mm 2,6 UV-I 736 W/m 1,3 C 4,5 C 17,7 km/h (3 Bft) 100,00 %
21.03.2016 12:31 8,2 C 63 % 1016,5 hPa 0,0 l/m 15,8 km/h (3 Bft) SW 225 1 min 0,000 mm 2,4 UV-I 742 W/m 1,6 C 2,6 C 20,9 km/h (4 Bft) 96,15 %
21.03.2016 12:32 8,3 C 62 % 1016,6 hPa 0,0 l/m 13,1 km/h (3 Bft) SW 220 1 min 0,000 mm 2,2 UV-I 526 W/m 1,5 C 4,0 C 17,7 km/h (3 Bft) 100,00 %
21.03.2016 12:33 8,2 C 61 % 1016,6 hPa 0,0 l/m 10,5 km/h (2 Bft) W-NW 288 1 min 0,000 mm 2,3 UV-I 480 W/m 1,1 C 5,3 C 14,5 km/h (3 Bft) 96,55 %
21.03.2016 12:34 8,1 C 61 % 1016,6 hPa 0,0 l/m 8,0 km/h (2 Bft) SW 214 1 min 0,000 mm 2,4 UV-I 631 W/m 1,0 C 6,9 C 16,1 km/h (3 Bft) 100,00 %
21.03.2016 12:35 8,1 C 61 % 1016,6 hPa 0,0 l/m 14,2 km/h (3 Bft) S-SW 209 1 min 0,000 mm 2,5 UV-I 782 W/m 1,0 C 3,2 C 19,3 km/h (3 Bft) 95,65 %
21.03.2016 12:36 8,0 C 62 % 1016,5 hPa 0,0 l/m 13,6 km/h (3 Bft) W-SW 240 1 min 0,000 mm 2,5 UV-I 711 W/m 1,2 C 3,4 C 20,9 km/h (4 Bft) 100,00 %
21.03.2016 12:37 8,0 C 62 % 1016,6 hPa 0,0 l/m 15,0 km/h (3 Bft) W-SW 237 1 min 0,000 mm 2,4 UV-I 607 W/m 1,2 C 2,7 C 20,9 km/h (4 Bft) 97,14 %
21.03.2016 12:38 7,9 C 62 % 1016,5 hPa 0,0 l/m 11,2 km/h (2 Bft) SO 142 1 min 0,000 mm 2,1 UV-I 603 W/m 1,1 C 4,5 C 16,1 km/h (3 Bft) 100,00 %
21.03.2016 12:39 8,0 C 63 % 1016,5 hPa 0,0 l/m 11,8 km/h (2 Bft) W-SW 247 1 min 0,000 mm 2,3 UV-I 532 W/m 1,4 C 4,3 C 19,3 km/h (3 Bft) 92,31 %
21.03.2016 12:40 7,9 C 62 % 1016,5 hPa 0,0 l/m 12,5 km/h (3 Bft) W 281 1 min 0,000 mm 2,3 UV-I 431 W/m 1,1 C 3,8 C 16,1 km/h (3 Bft) 95,83 %
21.03.2016 12:41 7,9 C 62 % 1016,5 hPa 0,0 l/m 6,1 km/h (2 Bft) W-NW 288 1 min 0,000 mm 2,2 UV-I 461 W/m 1,1 C 7,9 C 11,3 km/h (2 Bft) 100,00 %
21.03.2016 12:42 8,0 C 63 % 1016,5 hPa 0,0 l/m 6,2 km/h (2 Bft) W-NW 296 1 min 0,000 mm 2,2 UV-I 437 W/m 1,4 C 8,0 C 11,3 km/h (2 Bft) 95,83 %
21.03.2016 12:43 7,9 C 61 % 1016,5 hPa 0,0 l/m 6,4 km/h (2 Bft) W 263 0 min 0,000 mm 2,0 UV-I 349 W/m 0,9 C 7,9 C 9,7 km/h (2 Bft) 100,00 %
21.03.2016 12:44 7,9 C 61 % 1016,5 hPa 0,0 l/m 6,1 km/h (2 Bft) W-SW 254 1 min 0,000 mm 2,0 UV-I 398 W/m 0,9 C 7,9 C 9,7 km/h (2 Bft) 93,75 %
21.03.2016 12:45 7,9 C 62 % 1016,5 hPa 0,0 l/m 4,2 km/h (1 Bft) W-SW 255 1 min 0,000 mm 2,2 UV-I 477 W/m 1,1 C 7,9 C 8,0 km/h (2 Bft) 100,00 %
21.03.2016 12:46 7,9 C 63 % 1016,4 hPa 0,0 l/m 6,7 km/h (2 Bft) W-NW 286 1 min 0,000 mm 2,4 UV-I 540 W/m 1,3 C 7,7 C 12,9 km/h (3 Bft) 91,67 %
21.03.2016 12:47 8,1 C 63 % 1016,4 hPa 0,0 l/m 10,4 km/h (2 Bft) SW 217 1 min 0,000 mm 2,4 UV-I 649 W/m 1,5 C 5,2 C 17,7 km/h (3 Bft) 100,00 %
21.03.2016 12:48 8,2 C 63 % 1016,4 hPa 0,0 l/m 13,1 km/h (3 Bft) S 184 1 min 0,000 mm 2,4 UV-I 642 W/m 1,6 C 3,9 C 17,7 km/h (3 Bft) 96,15 %
21.03.2016 12:49 8,2 C 62 % 1016,4 hPa 0,0 l/m 14,6 km/h (3 Bft) W 265 1 min 0,000 mm 2,4 UV-I 599 W/m 1,4 C 3,1 C 19,3 km/h (3 Bft) 95,83 %
21.03.2016 12:50 8,2 C 62 % 1016,3 hPa 0,0 l/m 13,8 km/h (3 Bft) W-SW 238 1 min 0,000 mm 2,3 UV-I 674 W/m 1,4 C 3,5 C 17,7 km/h (3 Bft) 96,15 %
21.03.2016 12:51 8,2 C 62 % 1016,3 hPa 0,0 l/m 11,6 km/h (2 Bft) SW 223 1 min 0,000 mm 2,3 UV-I 700 W/m 1,4 C 4,7 C 14,5 km/h (3 Bft) 91,67 %
21.03.2016 12:52 8,2 C 61 % 1016,4 hPa 0,0 l/m 8,9 km/h (2 Bft) W-SW 253 1 min 0,000 mm 2,1 UV-I 572 W/m 1,1 C 6,3 C 16,1 km/h (3 Bft) 100,00 %
21.03.2016 12:53 8,2 C 61 % 1016,3 hPa 0,0 l/m 7,2 km/h (2 Bft) S 191 1 min 0,000 mm 2,2 UV-I 469 W/m 1,1 C 7,6 C 14,5 km/h (3 Bft) 96,67 %
21.03.2016 12:54 8,1 C 61 % 1016,3 hPa 0,0 l/m 12,0 km/h (2 Bft) S-SW 209 1 min 0,000 mm 2,4 UV-I 521 W/m 1,0 C 4,3 C 20,9 km/h (4 Bft) 100,00 %
21.03.2016 12:55 8,0 C 61 % 1016,4 hPa 0,0 l/m 11,1 km/h (2 Bft) S-SO 167 1 min 0,000 mm 2,4 UV-I 588 W/m 0,9 C 4,7 C 14,5 km/h (3 Bft) 96,30 %
21.03.2016 12:56 7,9 C 62 % 1016,4 hPa 0,0 l/m 11,2 km/h (2 Bft) S 178 1 min 0,000 mm 2,1 UV-I 642 W/m 1,1 C 4,5 C 20,9 km/h (4 Bft) 100,00 %
21.03.2016 12:57 7,9 C 62 % 1016,3 hPa 0,0 l/m 10,1 km/h (2 Bft) S-SW 208 1 min 0,000 mm 2,0 UV-I 607 W/m 1,1 C 5,2 C 14,5 km/h (3 Bft) 96,30 %
21.03.2016 12:58 7,9 C 63 % 1016,3 hPa 0,0 l/m 10,8 km/h (2 Bft) SW 215 1 min 0,000 mm 2,4 UV-I 578 W/m 1,3 C 4,8 C 20,9 km/h (4 Bft) 100,00 %
21.03.2016 12:59 8,0 C 63 % 1016,3 hPa 0,0 l/m 13,3 km/h (3 Bft) S-SW 210 1 min 0,000 mm 2,3 UV-I 578 W/m 1,4 C 3,5 C 20,9 km/h (4 Bft) 100,00 %
21.03.2016 13:00 8,0 C 62 % 1016,2 hPa 0,0 l/m 11,9 km/h (2 Bft) S-SW 202 1 min 0,280 mm 2,2 UV-I 494 W/m 1,2 C 4,3 C 16,1 km/h (3 Bft) 100,00 %
21.03.2016 13:02 8,1 C 62 % 1016,2 hPa 0,0 l/m 14,6 km/h (3 Bft) S 182 2 min 0,000 mm 2,1 UV-I 491 W/m 1,3 C 3,0 C 24,1 km/h (4 Bft) 100,00 %
21.03.2016 13:03 7,9 C 62 % 1016,2 hPa 0,0 l/m 15,5 km/h (3 Bft) SW 228 1 min 0,000 mm 2,0 UV-I 410 W/m 1,1 C 2,4 C 19,3 km/h (3 Bft) 95,83 %
21.03.2016 13:04 7,9 C 63 % 1016,2 hPa 0,0 l/m 11,7 km/h (2 Bft) SW 232 1 min 0,000 mm 2,1 UV-I 448 W/m 1,3 C 4,3 C 14,5 km/h (3 Bft) 100,00 %
21.03.2016 13:05 8,0 C 64 % 1016,2 hPa 0,0 l/m 11,8 km/h (2 Bft) W-SW 238 1 min 0,000 mm 2,0 UV-I 401 W/m 1,6 C 4,3 C 16,1 km/h (3 Bft) 100,00 %
21.03.2016 13:06 8,0 C 63 % 1016,1 hPa 0,0 l/m 7,3 km/h (2 Bft) W-SW 244 1 min 0,000 mm 1,9 UV-I 370 W/m 1,4 C 7,3 C 11,3 km/h (2 Bft) 100,00 %
21.03.2016 13:07 8,0 C 63 % 1016,1 hPa 0,0 l/m 11,2 km/h (2 Bft) S-SW 207 0 min 0,000 mm 2,0 UV-I 352 W/m 1,4 C 4,7 C 17,7 km/h (3 Bft) 100,00 %
21.03.2016 13:08 8,0 C 62 % 1016,1 hPa 0,0 l/m 14,3 km/h (3 Bft) W-SW 239 1 min 0,000 mm 2,0 UV-I 392 W/m 1,2 C 3,0 C 17,7 km/h (3 Bft) 100,00 %
21.03.2016 13:09 8,0 C 63 % 1016,1 hPa 0,0 l/m 17,5 km/h (3 Bft) SW 214 1 min 0,000 mm 2,3 UV-I 586 W/m 1,4 C 1,6 C 24,1 km/h (4 Bft) 100,00 %
21.03.2016 13:10 8,0 C 61 % 1016,1 hPa 0,0 l/m 12,2 km/h (2 Bft) S-SW 198 1 min 0,000 mm 2,3 UV-I 633 W/m 0,9 C 4,1 C 19,3 km/h (3 Bft) 100,00 %
21.03.2016 13:11 8,1 C 63 % 1016,1 hPa 0,0 l/m 6,3 km/h (2 Bft) W-SW 239 1 min 0,000 mm 2,3 UV-I 666 W/m 1,5 C 8,1 C 11,3 km/h (2 Bft) 92,31 %
21.03.2016 13:12 8,1 C 62 % 1016,1 hPa 0,0 l/m 5,0 km/h (1 Bft) W-SW 240 1 min 0,000 mm 2,4 UV-I 684 W/m 1,3 C 8,1 C 6,4 km/h (2 Bft) 93,33 %
21.03.2016 13:13 8,1 C 62 % 1016,1 hPa 0,0 l/m 7,3 km/h (2 Bft) S-SW 198 1 min 0,000 mm 2,3 UV-I 684 W/m 1,3 C 7,4 C 11,3 km/h (2 Bft) 100,00 %
21.03.2016 13:14 8,2 C 63 % 1016,0 hPa 0,0 l/m 12,7 km/h (3 Bft) W 262 1 min 0,000 mm 2,3 UV-I 679 W/m 1,6 C 4,1 C 16,1 km/h (3 Bft) 96,30 %
21.03.2016 13:15 8,3 C 63 % 1016,0 hPa 0,0 l/m 9,7 km/h (2 Bft) S-SW 194 1 min 0,000 mm 2,3 UV-I 677 W/m 1,7 C 5,9 C 14,5 km/h (3 Bft) 100,00 %
21.03.2016 13:16 8,4 C 62 % 1015,9 hPa 0,0 l/m 9,2 km/h (2 Bft) S-SW 209 1 min 0,000 mm 2,3 UV-I 675 W/m 1,6 C 6,3 C 12,9 km/h (3 Bft) 100,00 %
21.03.2016 13:17 8,6 C 62 % 1015,9 hPa 0,0 l/m 7,1 km/h (2 Bft) S-SW 199 1 min 0,000 mm 2,3 UV-I 671 W/m 1,7 C 8,1 C 12,9 km/h (3 Bft) 100,00 %
21.03.2016 13:18 8,7 C 63 % 1015,9 hPa 0,0 l/m 9,3 km/h (2 Bft) S-SO 166 1 min 0,000 mm 2,3 UV-I 662 W/m 2,1 C 6,6 C 12,9 km/h (3 Bft) 100,00 %
21.03.2016 13:19 8,7 C 60 % 1015,9 hPa 0,0 l/m 7,4 km/h (2 Bft) S 171 1 min 0,000 mm 2,3 UV-I 654 W/m 1,4 C 7,9 C 12,9 km/h (3 Bft) 100,00 %
21.03.2016 13:20 8,7 C 60 % 1015,9 hPa 0,0 l/m 12,2 km/h (2 Bft) SW 223 1 min 0,000 mm 2,3 UV-I 654 W/m 1,4 C 4,9 C 16,1 km/h (3 Bft) 92,59 %
21.03.2016 13:21 8,6 C 62 % 1015,8 hPa 0,0 l/m 6,3 km/h (2 Bft) SW 234 1 min 0,000 mm 2,3 UV-I 652 W/m 1,7 C 8,6 C 11,3 km/h (2 Bft) 100,00 %
21.03.2016 13:22 8,7 C 62 % 1015,9 hPa 0,0 l/m 7,7 km/h (2 Bft) W-SW 242 1 min 0,000 mm 2,3 UV-I 644 W/m 1,8 C 7,7 C 12,9 km/h (3 Bft) 100,00 %
21.03.2016 13:23 8,7 C 63 % 1015,8 hPa 0,0 l/m 8,2 km/h (2 Bft) W-SW 248 1 min 0,000 mm 2,3 UV-I 637 W/m 2,1 C 7,3 C 12,9 km/h (3 Bft) 100,00 %
21.03.2016 13:24 8,8 C 61 % 1015,8 hPa 0,0 l/m 6,2 km/h (2 Bft) S-SW 202 1 min 0,000 mm 2,3 UV-I 636 W/m 1,7 C 8,8 C 11,3 km/h (2 Bft) 100,00 %
21.03.2016 13:25 8,7 C 60 % 1015,8 hPa 0,0 l/m 10,5 km/h (2 Bft) S-SW 193 1 min 0,000 mm 2,3 UV-I 641 W/m 1,4 C 5,9 C 12,9 km/h (3 Bft) 100,00 %
21.03.2016 13:26 8,6 C 59 % 1015,7 hPa 0,0 l/m 8,8 km/h (2 Bft) W-SW 242 1 min 0,000 mm 2,2 UV-I 636 W/m 1,0 C 6,8 C 12,9 km/h (3 Bft) 100,00 %
21.03.2016 13:27 8,6 C 61 % 1015,7 hPa 0,0 l/m 10,2 km/h (2 Bft) W-SW 253 1 min 0,000 mm 2,2 UV-I 630 W/m 1,5 C 5,9 C 14,5 km/h (3 Bft) 100,00 %
21.03.2016 13:28 8,7 C 62 % 1015,7 hPa 0,0 l/m 11,4 km/h (2 Bft) W 261 1 min 0,000 mm 2,2 UV-I 624 W/m 1,8 C 5,3 C 14,5 km/h (3 Bft) 100,00 %
21.03.2016 13:29 8,7 C 61 % 1015,7 hPa 0,0 l/m 13,5 km/h (3 Bft) W-SW 240 1 min 0,000 mm 2,2 UV-I 628 W/m 1,6 C 4,3 C 19,3 km/h (3 Bft) 100,00 %
21.03.2016 13:30 8,7 C 60 % 1015,7 hPa 0,0 l/m 10,1 km/h (2 Bft) SW 230 1 min 0,000 mm 2,2 UV-I 624 W/m 1,4 C 6,1 C 16,1 km/h (3 Bft) 95,65 %
21.03.2016 13:31 8,7 C 61 % 1015,6 hPa 0,0 l/m 15,4 km/h (3 Bft) SW 223 1 min 0,000 mm 2,2 UV-I 635 W/m 1,6 C 3,4 C 20,9 km/h (4 Bft) 100,00 %
21.03.2016 13:32 8,8 C 62 % 1015,6 hPa 0,0 l/m 8,6 km/h (2 Bft) SW 236 1 min 0,000 mm 2,2 UV-I 634 W/m 1,9 C 7,2 C 14,5 km/h (3 Bft) 100,00 %
21.03.2016 13:33 8,8 C 62 % 1015,6 hPa 0,0 l/m 11,7 km/h (2 Bft) W 271 1 min 0,000 mm 2,2 UV-I 635 W/m 1,9 C 5,3 C 19,3 km/h (3 Bft) 100,00 %
21.03.2016 13:34 9,0 C 62 % 1015,5 hPa 0,0 l/m 14,4 km/h (3 Bft) W-SW 244 1 min 0,000 mm 2,2 UV-I 632 W/m 2,1 C 4,2 C 17,7 km/h (3 Bft) 100,00 %
21.03.2016 13:35 9,0 C 62 % 1015,6 hPa 0,0 l/m 11,4 km/h (2 Bft) W-SW 248 1 min 0,000 mm 2,2 UV-I 627 W/m 2,1 C 5,7 C 14,5 km/h (3 Bft) 95,83 %
21.03.2016 13:36 9,1 C 62 % 1015,6 hPa 0,0 l/m 12,8 km/h (3 Bft) S-SW 202 1 min 0,000 mm 2,2 UV-I 630 W/m 2,2 C 5,1 C 17,7 km/h (3 Bft) 100,00 %
21.03.2016 13:37 9,3 C 63 % 1015,5 hPa 0,0 l/m 9,5 km/h (2 Bft) S-SO 168 1 min 0,000 mm 2,2 UV-I 605 W/m 2,6 C 7,1 C 16,1 km/h (3 Bft) 100,00 %
21.03.2016 13:38 9,2 C 60 % 1015,4 hPa 0,0 l/m 11,1 km/h (2 Bft) W-SW 254 1 min 0,000 mm 1,9 UV-I 586 W/m 1,8 C 6,1 C 14,5 km/h (3 Bft) 100,00 %
21.03.2016 13:39 9,2 C 58 % 1015,5 hPa 0,0 l/m 12,1 km/h (2 Bft) W 262 1 min 0,000 mm 2,0 UV-I 613 W/m 1,4 C 5,5 C 14,5 km/h (3 Bft) 100,00 %
21.03.2016 13:40 9,1 C 59 % 1015,4 hPa 0,0 l/m 7,7 km/h (2 Bft) W-NW 300 1 min 0,000 mm 1,8 UV-I 613 W/m 1,5 C 8,1 C 11,3 km/h (2 Bft) 100,00 %
21.03.2016 13:41 8,9 C 58 % 1015,4 hPa 0,0 l/m 5,3 km/h (1 Bft) W-NW 292 1 min 0,000 mm 2,1 UV-I 613 W/m 1,1 C 8,9 C 6,4 km/h (2 Bft) 100,00 %
21.03.2016 13:42 8,9 C 60 % 1015,4 hPa 0,0 l/m 5,7 km/h (1 Bft) W-NW 290 1 min 0,000 mm 2,2 UV-I 618 W/m 1,6 C 8,9 C 11,3 km/h (2 Bft) 100,00 %
21.03.2016 13:43 8,9 C 60 % 1015,5 hPa 0,0 l/m 7,6 km/h (2 Bft) W-NW 288 1 min 0,000 mm 2,2 UV-I 663 W/m 1,6 C 8,0 C 11,3 km/h (2 Bft) 100,00 %
21.03.2016 13:44 8,9 C 59 % 1015,4 hPa 0,0 l/m 9,9 km/h (2 Bft) SW 229 1 min 0,000 mm 2,2 UV-I 658 W/m 1,3 C 6,4 C 12,9 km/h (3 Bft) 100,00 %
21.03.2016 13:45 8,9 C 61 % 1015,4 hPa 0,0 l/m 7,3 km/h (2 Bft) SW 221 1 min 0,000 mm 2,2 UV-I 664 W/m 1,8 C 8,2 C 16,1 km/h (3 Bft) 96,55 %
21.03.2016 13:46 8,9 C 60 % 1015,4 hPa 0,0 l/m 7,7 km/h (2 Bft) SW 223 1 min 0,000 mm 2,0 UV-I 671 W/m 1,6 C 7,9 C 11,3 km/h (2 Bft) 100,00 %
21.03.2016 13:47 8,9 C 60 % 1015,3 hPa 0,0 l/m 7,0 km/h (2 Bft) W 271 1 min 0,000 mm 1,8 UV-I 390 W/m 1,6 C 8,4 C 12,9 km/h (3 Bft) 100,00 %
21.03.2016 13:48 8,8 C 59 % 1015,4 hPa 0,0 l/m 9,8 km/h (2 Bft) W 263 0 min 0,000 mm 1,7 UV-I 315 W/m 1,2 C 6,4 C 16,1 km/h (3 Bft) 100,00 %
21.03.2016 13:49 8,8 C 59 % 1015,4 hPa 0,0 l/m 7,3 km/h (2 Bft) W 265 0 min 0,000 mm 2,1 UV-I 315 W/m 1,2 C 8,1 C 14,5 km/h (3 Bft) 100,00 %
21.03.2016 13:50 8,8 C 60 % 1015,4 hPa 0,0 l/m 9,2 km/h (2 Bft) W-SW 241 1 min 0,000 mm 2,1 UV-I 480 W/m 1,5 C 6,8 C 16,1 km/h (3 Bft) 100,00 %
21.03.2016 13:51 8,8 C 60 % 1015,3 hPa 0,0 l/m 11,4 km/h (2 Bft) W 275 1 min 0,000 mm 2,1 UV-I 664 W/m 1,5 C 5,5 C 16,1 km/h (3 Bft) 100,00 %
21.03.2016 13:52 8,9 C 60 % 1015,3 hPa 0,0 l/m 5,2 km/h (1 Bft) W 263 1 min 0,000 mm 2,1 UV-I 654 W/m 1,6 C 8,9 C 9,7 km/h (2 Bft) 92,59 %
21.03.2016 13:53 9,0 C 60 % 1015,2 hPa 0,0 l/m 3,7 km/h (1 Bft) NW 304 1 min 0,000 mm 2,1 UV-I 653 W/m 1,7 C 9,0 C 6,4 km/h (2 Bft) 100,00 %
21.03.2016 13:54 9,1 C 62 % 1015,2 hPa 0,0 l/m 5,0 km/h (1 Bft) SW 228 1 min 0,000 mm 2,1 UV-I 646 W/m 2,2 C 9,1 C 8,0 km/h (2 Bft) 100,00 %
21.03.2016 13:55 9,2 C 60 % 1015,2 hPa 0,0 l/m 6,9 km/h (2 Bft) SW 235 1 min 0,000 mm 2,1 UV-I 636 W/m 1,8 C 8,8 C 9,7 km/h (2 Bft) 100,00 %
21.03.2016 13:56 9,4 C 60 % 1015,2 hPa 0,0 l/m 7,1 km/h (2 Bft) W-SW 257 1 min 0,000 mm 2,0 UV-I 638 W/m 2,0 C 8,9 C 14,5 km/h (3 Bft) 100,00 %
21.03.2016 13:57 9,6 C 59 % 1015,2 hPa 0,0 l/m 14,9 km/h (3 Bft) W-SW 241 1 min 0,000 mm 2,0 UV-I 640 W/m 2,0 C 4,7 C 24,1 km/h (4 Bft) 96,55 %
21.03.2016 13:58 9,6 C 57 % 1015,2 hPa 0,0 l/m 17,9 km/h (3 Bft) W 270 1 min 0,000 mm 2,0 UV-I 619 W/m 1,5 C 3,5 C 22,5 km/h (4 Bft) 100,00 %
21.03.2016 13:59 9,6 C 58 % 1015,2 hPa 0,0 l/m 12,3 km/h (3 Bft) W-SW 239 1 min 0,000 mm 2,0 UV-I 626 W/m 1,8 C 5,9 C 14,5 km/h (3 Bft) 100,00 %
21.03.2016 14:00 9,4 C 57 % 1015,2 hPa 0,0 l/m 10,9 km/h (2 Bft) S 186 1 min 0,304 mm 1,6 UV-I 626 W/m 1,3 C 6,4 C 14,5 km/h (3 Bft) 100,00 %
21.03.2016 14:01 9,3 C 57 % 1015,2 hPa 0,0 l/m 8,7 km/h (2 Bft) W-NW 283 1 min 0,000 mm 1,6 UV-I 626 W/m 1,2 C 7,6 C 12,9 km/h (3 Bft) 100,00 %
21.03.2016 14:02 9,2 C 57 % 1015,1 hPa 0,0 l/m 12,6 km/h (3 Bft) S 177 1 min 0,000 mm 1,9 UV-I 626 W/m 1,1 C 5,3 C 19,3 km/h (3 Bft) 100,00 %
21.03.2016 14:03 9,2 C 59 % 1015,1 hPa 0,0 l/m 11,2 km/h (2 Bft) W-SW 257 1 min 0,000 mm 1,9 UV-I 625 W/m 1,6 C 6,0 C 14,5 km/h (3 Bft) 100,00 %
21.03.2016 14:04 9,2 C 58 % 1015,2 hPa 0,0 l/m 10,4 km/h (2 Bft) SW 217 1 min 0,000 mm 2,0 UV-I 665 W/m 1,4 C 6,5 C 14,5 km/h (3 Bft) 100,00 %
21.03.2016 14:05 9,3 C 59 % 1015,2 hPa 0,0 l/m 11,6 km/h (2 Bft) W-SW 251 1 min 0,000 mm 1,9 UV-I 682 W/m 1,7 C 5,9 C 17,7 km/h (3 Bft) 100,00 %
21.03.2016 14:06 9,3 C 59 % 1015,1 hPa 0,0 l/m 9,9 km/h (2 Bft) W 273 1 min 0,000 mm 1,9 UV-I 656 W/m 1,7 C 6,9 C 14,5 km/h (3 Bft) 95,83 %
21.03.2016 14:07 9,3 C 57 % 1015,2 hPa 0,0 l/m 7,2 km/h (2 Bft) W 269 1 min 0,000 mm 1,9 UV-I 589 W/m 1,2 C 8,7 C 11,3 km/h (2 Bft) 100,00 %
21.03.2016 14:08 9,3 C 59 % 1015,0 hPa 0,0 l/m 5,3 km/h (1 Bft) W-SW 239 1 min 0,000 mm 1,8 UV-I 535 W/m 1,7 C 9,3 C 6,4 km/h (2 Bft) 96,15 %
21.03.2016 14:09 9,3 C 59 % 1015,1 hPa 0,0 l/m 11,5 km/h (2 Bft) W 263 1 min 0,000 mm 1,8 UV-I 529 W/m 1,7 C 6,0 C 16,1 km/h (3 Bft) 96,30 %
21.03.2016 14:10 9,4 C 58 % 1015,0 hPa 0,0 l/m 7,4 km/h (2 Bft) W 267 1 min 0,000 mm 1,8 UV-I 529 W/m 1,6 C 8,7 C 11,3 km/h (2 Bft) 96,15 %
21.03.2016 14:11 9,4 C 57 % 1015,0 hPa 0,0 l/m 4,6 km/h (1 Bft) SW 236 1 min 0,000 mm 1,4 UV-I 366 W/m 1,3 C 9,4 C 9,7 km/h (2 Bft) 93,33 %
21.03.2016 14:12 9,3 C 58 % 1015,0 hPa 0,0 l/m 7,0 km/h (2 Bft) W 265 1 min 0,000 mm 1,4 UV-I 355 W/m 1,5 C 8,9 C 14,5 km/h (3 Bft) 95,65 %
21.03.2016 14:13 9,3 C 59 % 1015,0 hPa 0,0 l/m 10,3 km/h (2 Bft) SW 234 1 min 0,000 mm 1,6 UV-I 486 W/m 1,7 C 6,6 C 16,1 km/h (3 Bft) 100,00 %
21.03.2016 14:14 9,3 C 58 % 1015,0 hPa 0,0 l/m 13,2 km/h (3 Bft) W-SW 246 1 min 0,000 mm 1,6 UV-I 700 W/m 1,5 C 5,1 C 22,5 km/h (4 Bft) 94,12 %
21.03.2016 14:15 9,3 C 58 % 1014,9 hPa 0,0 l/m 21,7 km/h (4 Bft) SW 232 1 min 0,000 mm 1,4 UV-I 463 W/m 1,5 C 1,8 C 25,7 km/h (4 Bft) 96,55 %
21.03.2016 14:16 9,3 C 59 % 1014,9 hPa 0,0 l/m 15,6 km/h (3 Bft) W 259 1 min 0,000 mm 1,3 UV-I 333 W/m 1,7 C 4,0 C 20,9 km/h (4 Bft) 100,00 %
21.03.2016 14:17 9,3 C 58 % 1015,0 hPa 0,0 l/m 10,4 km/h (2 Bft) S 186 1 min 0,000 mm 1,3 UV-I 436 W/m 1,5 C 6,6 C 17,7 km/h (3 Bft) 95,83 %
21.03.2016 14:18 9,3 C 58 % 1015,0 hPa 0,0 l/m 8,2 km/h (2 Bft) W-SW 250 1 min 0,000 mm 1,3 UV-I 476 W/m 1,5 C 8,0 C 14,5 km/h (3 Bft) 100,00 %
21.03.2016 14:19 9,3 C 58 % 1014,9 hPa 0,0 l/m 7,6 km/h (2 Bft) W-SW 255 1 min 0,000 mm 1,2 UV-I 438 W/m 1,5 C 8,4 C 11,3 km/h (2 Bft) 95,83 %
21.03.2016 14:20 9,2 C 58 % 1014,9 hPa 0,0 l/m 4,3 km/h (1 Bft) W 265 1 min 0,000 mm 1,1 UV-I 325 W/m 1,4 C 9,2 C 6,4 km/h (2 Bft) 100,00 %
21.03.2016 14:21 9,1 C 58 % 1015,0 hPa 0,0 l/m 4,8 km/h (1 Bft) W-SW 250 0 min 0,000 mm 1,0 UV-I 265 W/m 1,3 C 9,1 C 8,0 km/h (2 Bft) 96,30 %
21.03.2016 14:22 9,1 C 60 % 1014,9 hPa 0,0 l/m 5,0 km/h (1 Bft) W-SW 248 0 min 0,000 mm 1,1 UV-I 272 W/m 1,8 C 9,1 C 11,3 km/h (2 Bft) 95,65 %
21.03.2016 14:23 9,2 C 59 % 1014,9 hPa 0,0 l/m 6,9 km/h (2 Bft) N-NW 339 1 min 0,000 mm 1,1 UV-I 409 W/m 1,6 C 8,8 C 12,9 km/h (3 Bft) 96,30 %
21.03.2016 14:24 9,3 C 59 % 1014,9 hPa 0,0 l/m 6,8 km/h (2 Bft) W-NW 291 1 min 0,000 mm 1,0 UV-I 322 W/m 1,7 C 9,0 C 14,5 km/h (3 Bft) 100,00 %
21.03.2016 14:25 9,2 C 59 % 1015,0 hPa 0,0 l/m 7,4 km/h (2 Bft) W 281 0 min 0,000 mm 1,1 UV-I 304 W/m 1,6 C 8,4 C 11,3 km/h (2 Bft) 96,88 %
21.03.2016 14:26 9,2 C 57 % 1014,9 hPa 0,0 l/m 3,3 km/h (1 Bft) W-NW 293 0 min 0,000 mm 1,4 UV-I 304 W/m 1,1 C 9,2 C 8,0 km/h (2 Bft) 96,15 %
21.03.2016 14:27 9,3 C 57 % 1014,8 hPa 0,0 l/m 2,5 km/h (1 Bft) W-NW 302 0 min 0,000 mm 1,4 UV-I 304 W/m 1,2 C 9,3 C 4,8 km/h (1 Bft) 100,00 %
21.03.2016 14:28 9,3 C 60 % 1014,8 hPa 0,0 l/m 3,0 km/h (1 Bft) NW 312 1 min 0,000 mm 1,2 UV-I 312 W/m 1,9 C 9,3 C 4,8 km/h (1 Bft) 96,67 %
21.03.2016 14:29 9,5 C 61 % 1014,8 hPa 0,0 l/m 2,6 km/h (1 Bft) NW 309 1 min 0,000 mm 1,3 UV-I 454 W/m 2,4 C 9,5 C 4,8 km/h (1 Bft) 100,00 %
21.03.2016 14:30 9,6 C 59 % 1014,8 hPa 0,0 l/m 2,3 km/h (1 Bft) S-SW 200 1 min 0,000 mm 1,4 UV-I 454 W/m 2,0 C 9,6 C 6,4 km/h (2 Bft) 92,59 %
21.03.2016 14:31 9,7 C 58 % 1014,8 hPa 0,0 l/m 2,1 km/h (1 Bft) S-SO 157 1 min 0,000 mm 1,3 UV-I 461 W/m 1,8 C 9,7 C 3,2 km/h (1 Bft) 95,65 %
21.03.2016 14:32 9,8 C 59 % 1014,8 hPa 0,0 l/m 9,5 km/h (2 Bft) W 269 1 min 0,000 mm 1,3 UV-I 413 W/m 2,2 C 7,7 C 16,1 km/h (3 Bft) 100,00 %
21.03.2016 14:33 9,8 C 58 % 1014,8 hPa 0,0 l/m 10,0 km/h (2 Bft) W 272 1 min 0,000 mm 1,2 UV-I 329 W/m 1,9 C 7,4 C 17,7 km/h (3 Bft) 95,65 %
21.03.2016 14:34 9,7 C 57 % 1014,8 hPa 0,0 l/m 5,8 km/h (2 Bft) NW 312 0 min 0,000 mm 1,1 UV-I 274 W/m 1,6 C 9,7 C 8,0 km/h (2 Bft) 100,00 %
21.03.2016 14:35 9,7 C 57 % 1014,7 hPa 0,0 l/m 3,2 km/h (1 Bft) W-SW 253 0 min 0,000 mm 1,0 UV-I 244 W/m 1,6 C 9,7 C 6,4 km/h (2 Bft) 96,15 %
21.03.2016 14:36 9,5 C 56 % 1014,7 hPa 0,0 l/m 4,8 km/h (1 Bft) W-NW 299 0 min 0,000 mm 1,0 UV-I 213 W/m 1,2 C 9,5 C 8,0 km/h (2 Bft) 100,00 %
21.03.2016 14:37 9,4 C 57 % 1014,8 hPa 0,0 l/m 4,0 km/h (1 Bft) W 275 0 min 0,000 mm 0,9 UV-I 192 W/m 1,3 C 9,4 C 6,4 km/h (2 Bft) 100,00 %
21.03.2016 14:38 9,3 C 58 % 1014,7 hPa 0,0 l/m 2,1 km/h (1 Bft) SW 218 0 min 0,000 mm 0,8 UV-I 178 W/m 1,5 C 9,3 C 3,2 km/h (1 Bft) 100,00 %
21.03.2016 14:39 9,3 C 60 % 1014,8 hPa 0,0 l/m 5,1 km/h (1 Bft) W 272 0 min 0,000 mm 0,8 UV-I 167 W/m 1,9 C 9,3 C 11,3 km/h (2 Bft) 100,00 %
21.03.2016 14:40 9,3 C 58 % 1014,7 hPa 0,0 l/m 9,4 km/h (2 Bft) W-SW 240 0 min 0,000 mm 0,8 UV-I 165 W/m 1,5 C 7,2 C 12,9 km/h (3 Bft) 100,00 %
21.03.2016 14:41 9,2 C 57 % 1014,7 hPa 0,0 l/m 8,2 km/h (2 Bft) W 266 0 min 0,000 mm 0,8 UV-I 169 W/m 1,1 C 7,9 C 12,9 km/h (3 Bft) 100,00 %
21.03.2016 14:42 9,1 C 57 % 1014,7 hPa 0,0 l/m 10,9 km/h (2 Bft) W-NW 293 0 min 0,000 mm 0,8 UV-I 170 W/m 1,0 C 6,1 C 16,1 km/h (3 Bft) 96,67 %
21.03.2016 14:43 9,1 C 57 % 1014,7 hPa 0,0 l/m 9,7 km/h (2 Bft) W 259 0 min 0,000 mm 0,7 UV-I 171 W/m 1,0 C 6,8 C 14,5 km/h (3 Bft) 100,00 %
21.03.2016 14:44 8,9 C 59 % 1014,7 hPa 0,0 l/m 6,5 km/h (2 Bft) W-SW 249 0 min 0,000 mm 0,7 UV-I 177 W/m 1,3 C 8,9 C 9,7 km/h (2 Bft) 100,00 %
21.03.2016 14:45 8,9 C 59 % 1014,7 hPa 0,0 l/m 7,2 km/h (2 Bft) W 276 0 min 0,000 mm 0,8 UV-I 188 W/m 1,3 C 8,3 C 14,5 km/h (3 Bft) 100,00 %
21.03.2016 14:46 8,9 C 58 % 1014,8 hPa 0,0 l/m 7,4 km/h (2 Bft) W 271 0 min 0,000 mm 0,8 UV-I 200 W/m 1,1 C 8,1 C 11,3 km/h (2 Bft) 100,00 %
21.03.2016 14:47 8,9 C 59 % 1014,7 hPa 0,0 l/m 6,7 km/h (2 Bft) W 259 0 min 0,000 mm 0,8 UV-I 200 W/m 1,3 C 8,7 C 12,9 km/h (3 Bft) 100,00 %
21.03.2016 14:48 8,9 C 60 % 1014,7 hPa 0,0 l/m 4,3 km/h (1 Bft) W-SW 256 0 min 0,000 mm 0,8 UV-I 199 W/m 1,6 C 8,9 C 8,0 km/h (2 Bft) 100,00 %
21.03.2016 14:49 8,9 C 59 % 1014,7 hPa 0,0 l/m 5,8 km/h (2 Bft) W-NW 287 0 min 0,000 mm 0,8 UV-I 202 W/m 1,3 C 8,9 C 9,7 km/h (2 Bft) 100,00 %
21.03.2016 14:50 8,8 C 59 % 1014,8 hPa 0,0 l/m 4,0 km/h (1 Bft) W 275 0 min 0,000 mm 0,8 UV-I 206 W/m 1,2 C 8,8 C 9,7 km/h (2 Bft) 100,00 %
21.03.2016 14:51 8,8 C 59 % 1014,7 hPa 0,0 l/m 2,1 km/h (1 Bft) W 280 0 min 0,000 mm 0,9 UV-I 214 W/m 1,2 C 8,8 C 3,2 km/h (1 Bft) 100,00 %
21.03.2016 14:52 8,8 C 60 % 1014,7 hPa 0,0 l/m 3,0 km/h (1 Bft) W-NW 296 0 min 0,000 mm 0,9 UV-I 225 W/m 1,5 C 8,8 C 3,2 km/h (1 Bft) 96,55 %
21.03.2016 14:53 8,8 C 61 % 1014,7 hPa 0,0 l/m 3,6 km/h (1 Bft) NW 325 0 min 0,000 mm 0,9 UV-I 223 W/m 1,7 C 8,8 C 8,0 km/h (2 Bft) 96,30 %
21.03.2016 14:54 8,8 C 59 % 1014,7 hPa 0,0 l/m 2,7 km/h (1 Bft) W-NW 284 0 min 0,000 mm 1,0 UV-I 223 W/m 1,2 C 8,8 C 6,4 km/h (2 Bft) 100,00 %
21.03.2016 14:55 8,8 C 61 % 1014,7 hPa 0,0 l/m 1,9 km/h (1 Bft) NW 323 1 min 0,000 mm 1,1 UV-I 354 W/m 1,7 C 8,8 C 3,2 km/h (1 Bft) 100,00 %
21.03.2016 14:56 8,9 C 60 % 1014,6 hPa 0,0 l/m 2,7 km/h (1 Bft) NW 310 1 min 0,000 mm 0,9 UV-I 499 W/m 1,6 C 8,9 C 4,8 km/h (1 Bft) 100,00 %
21.03.2016 14:57 9,0 C 61 % 1014,6 hPa 0,0 l/m 2,1 km/h (1 Bft) W-SW 257 0 min 0,000 mm 0,9 UV-I 227 W/m 1,9 C 9,0 C 3,2 km/h (1 Bft) 100,00 %
21.03.2016 14:58 9,1 C 60 % 1014,6 hPa 0,0 l/m 6,4 km/h (2 Bft) W 275 0 min 0,000 mm 0,9 UV-I 189 W/m 1,8 C 9,1 C 11,3 km/h (2 Bft) 100,00 %
21.03.2016 14:59 9,1 C 59 % 1014,6 hPa 0,0 l/m 6,7 km/h (2 Bft) W 259 0 min 0,000 mm 0,9 UV-I 192 W/m 1,5 C 8,9 C 11,3 km/h (2 Bft) 100,00 %
21.03.2016 15:00 9,1 C 60 % 1014,6 hPa 0,0 l/m 10,6 km/h (2 Bft) W-SW 237 1 min 0,000 mm 1,0 UV-I 292 W/m 1,8 C 6,2 C 14,5 km/h (3 Bft) 96,15 %
21.03.2016 15:01 9,1 C 58 % 1014,6 hPa 0,0 l/m 12,0 km/h (2 Bft) W-SW 244 1 min 0,204 mm 1,0 UV-I 392 W/m 1,3 C 5,5 C 14,5 km/h (3 Bft) 93,33 %
21.03.2016 15:02 9,1 C 58 % 1014,6 hPa 0,0 l/m 5,1 km/h (1 Bft) W-NW 289 1 min 0,000 mm 0,9 UV-I 334 W/m 1,3 C 9,1 C 9,7 km/h (2 Bft) 100,00 %
21.03.2016 15:03 9,1 C 59 % 1014,6 hPa 0,0 l/m 5,6 km/h (1 Bft) W-NW 291 0 min 0,000 mm 0,9 UV-I 223 W/m 1,5 C 9,1 C 9,7 km/h (2 Bft) 100,00 %
21.03.2016 15:04 9,1 C 58 % 1014,5 hPa 0,0 l/m 5,1 km/h (1 Bft) W-NW 288 0 min 0,000 mm 0,8 UV-I 195 W/m 1,3 C 9,1 C 11,3 km/h (2 Bft) 100,00 %
21.03.2016 15:05 9,1 C 59 % 1014,6 hPa 0,0 l/m 6,1 km/h (2 Bft) W 262 0 min 0,000 mm 0,8 UV-I 186 W/m 1,5 C 9,1 C 11,3 km/h (2 Bft) 100,00 %
21.03.2016 15:06 9,1 C 59 % 1014,6 hPa 0,0 l/m 6,2 km/h (2 Bft) W 275 0 min 0,000 mm 0,8 UV-I 183 W/m 1,5 C 9,1 C 11,3 km/h (2 Bft) 100,00 %
21.03.2016 15:07 9,1 C 60 % 1014,5 hPa 0,0 l/m 6,5 km/h (2 Bft) W-NW 290 0 min 0,000 mm 0,8 UV-I 178 W/m 1,8 C 9,1 C 11,3 km/h (2 Bft) 100,00 %
21.03.2016 15:08 9,1 C 58 % 1014,5 hPa 0,0 l/m 5,9 km/h (2 Bft) W-NW 290 0 min 0,000 mm 0,7 UV-I 176 W/m 1,3 C 9,1 C 11,3 km/h (2 Bft) 100,00 %
21.03.2016 15:09 9,1 C 59 % 1014,5 hPa 0,0 l/m 4,7 km/h (1 Bft) NW 306 0 min 0,000 mm 0,7 UV-I 179 W/m 1,5 C 9,1 C 6,4 km/h (2 Bft) 96,15 %
21.03.2016 15:10 9,1 C 58 % 1014,5 hPa 0,0 l/m 4,3 km/h (1 Bft) W-SW 251 0 min 0,000 mm 0,7 UV-I 182 W/m 1,3 C 9,1 C 6,4 km/h (2 Bft) 100,00 %
21.03.2016 15:11 9,1 C 59 % 1014,5 hPa 0,0 l/m 5,3 km/h (1 Bft) W 262 0 min 0,000 mm 0,7 UV-I 191 W/m 1,5 C 9,1 C 9,7 km/h (2 Bft) 95,65 %
21.03.2016 15:12 9,0 C 58 % 1014,5 hPa 0,0 l/m 6,3 km/h (2 Bft) W 269 0 min 0,000 mm 0,7 UV-I 198 W/m 1,2 C 9,0 C 11,3 km/h (2 Bft) 100,00 %
21.03.2016 15:13 9,1 C 59 % 1014,5 hPa 0,0 l/m 10,2 km/h (2 Bft) S-SO 167 0 min 0,000 mm 0,7 UV-I 195 W/m 1,5 C 6,5 C 14,5 km/h (3 Bft) 100,00 %
21.03.2016 15:14 9,1 C 58 % 1014,5 hPa 0,0 l/m 9,3 km/h (2 Bft) SW 221 0 min 0,000 mm 0,7 UV-I 188 W/m 1,3 C 7,0 C 12,9 km/h (3 Bft) 100,00 %
21.03.2016 15:15 9,0 C 57 % 1014,5 hPa 0,0 l/m 11,9 km/h (2 Bft) SW 227 0 min 0,000 mm 0,7 UV-I 183 W/m 0,9 C 5,4 C 19,3 km/h (3 Bft) 100,00 %
21.03.2016 15:16 8,9 C 57 % 1014,5 hPa 0,0 l/m 7,9 km/h (2 Bft) W-SW 252 0 min 0,000 mm 0,7 UV-I 182 W/m 0,9 C 7,8 C 12,9 km/h (3 Bft) 96,30 %
21.03.2016 15:17 8,9 C 58 % 1014,4 hPa 0,0 l/m 9,3 km/h (2 Bft) W-SW 239 0 min 0,000 mm 0,7 UV-I 200 W/m 1,1 C 6,8 C 12,9 km/h (3 Bft) 100,00 %
21.03.2016 15:18 8,9 C 58 % 1014,4 hPa 0,0 l/m 7,2 km/h (2 Bft) W 259 0 min 0,000 mm 0,8 UV-I 208 W/m 1,1 C 8,3 C 11,3 km/h (2 Bft) 100,00 %
21.03.2016 15:19 8,9 C 58 % 1014,4 hPa 0,0 l/m 7,8 km/h (2 Bft) W 261 0 min 0,000 mm 0,7 UV-I 208 W/m 1,1 C 7,8 C 11,3 km/h (2 Bft) 100,00 %
21.03.2016 15:20 8,9 C 59 % 1014,4 hPa 0,0 l/m 8,9 km/h (2 Bft) W 269 1 min 0,000 mm 0,7 UV-I 286 W/m 1,3 C 7,1 C 12,9 km/h (3 Bft) 100,00 %
21.03.2016 15:21 8,9 C 59 % 1014,4 hPa 0,0 l/m 9,7 km/h (2 Bft) W 267 1 min 0,000 mm 0,8 UV-I 303 W/m 1,3 C 6,6 C 12,9 km/h (3 Bft) 95,83 %
21.03.2016 15:22 9,1 C 60 % 1014,4 hPa 0,0 l/m 6,6 km/h (2 Bft) W-SW 240 1 min 0,000 mm 0,8 UV-I 302 W/m 1,8 C 9,0 C 9,7 km/h (2 Bft) 100,00 %
21.03.2016 15:23 9,1 C 59 % 1014,4 hPa 0,0 l/m 8,0 km/h (2 Bft) W-SW 248 1 min 0,000 mm 0,8 UV-I 263 W/m 1,5 C 7,9 C 12,9 km/h (3 Bft) 97,37 %
21.03.2016 15:24 9,2 C 58 % 1014,4 hPa 0,0 l/m 4,8 km/h (1 Bft) W-NW 300 1 min 0,000 mm 0,7 UV-I 251 W/m 1,4 C 9,2 C 6,4 km/h (2 Bft) 100,00 %
21.03.2016 15:25 9,2 C 60 % 1014,4 hPa 0,0 l/m 4,1 km/h (1 Bft) NW 311 0 min 0,000 mm 0,7 UV-I 230 W/m 1,8 C 9,2 C 9,7 km/h (2 Bft) 100,00 %
21.03.2016 15:26 9,3 C 59 % 1014,4 hPa 0,0 l/m 1,0 km/h (0 Bft) NW 311 0 min 0,000 mm 0,7 UV-I 213 W/m 1,7 C 9,3 C 3,2 km/h (1 Bft) 100,00 %
21.03.2016 15:27 9,3 C 61 % 1014,4 hPa 0,0 l/m 3,1 km/h (1 Bft) N 360 0 min 0,000 mm 0,6 UV-I 192 W/m 2,2 C 9,3 C 6,4 km/h (2 Bft) 100,00 %
21.03.2016 15:28 9,3 C 60 % 1014,4 hPa 0,0 l/m 5,2 km/h (1 Bft) NW 311 0 min 0,000 mm 0,6 UV-I 177 W/m 1,9 C 9,3 C 11,3 km/h (2 Bft) 98,70 %
21.03.2016 15:29 9,2 C 59 % 1014,4 hPa 0,0 l/m 5,7 km/h (1 Bft) W-NW 282 0 min 0,000 mm 0,6 UV-I 166 W/m 1,6 C 9,2 C 9,7 km/h (2 Bft) 97,73 %
21.03.2016 15:30 9,1 C 59 % 1014,4 hPa 0,0 l/m 3,4 km/h (1 Bft) W-SW 243 0 min 0,000 mm 0,6 UV-I 153 W/m 1,5 C 9,1 C 4,8 km/h (1 Bft) 100,00 %
21.03.2016 15:31 9,0 C 60 % 1014,4 hPa 0,0 l/m 3,4 km/h (1 Bft) W-NW 298 0 min 0,000 mm 0,6 UV-I 148 W/m 1,7 C 9,0 C 9,7 km/h (2 Bft) 100,00 %
21.03.2016 15:32 8,9 C 60 % 1014,4 hPa 0,0 l/m 5,9 km/h (2 Bft) W 265 0 min 0,000 mm 0,5 UV-I 148 W/m 1,6 C 8,9 C 11,3 km/h (2 Bft) 100,00 %
21.03.2016 15:33 8,9 C 61 % 1014,4 hPa 0,0 l/m 1,7 km/h (1 Bft) W 265 0 min 0,000 mm 0,5 UV-I 148 W/m 1,8 C 8,9 C 6,4 km/h (2 Bft) 96,30 %
21.03.2016 15:34 8,9 C 62 % 1014,4 hPa 0,0 l/m 0,5 km/h (0 Bft) W 265 0 min 0,000 mm 0,5 UV-I 149 W/m 2,0 C 8,9 C 1,6 km/h (1 Bft) 95,65 %
21.03.2016 15:35 8,9 C 62 % 1014,3 hPa 0,0 l/m 1,3 km/h (1 Bft) W 265 0 min 0,000 mm 0,5 UV-I 145 W/m 2,0 C 8,9 C 3,2 km/h (1 Bft) 100,00 %
21.03.2016 15:36 8,9 C 62 % 1014,4 hPa 0,0 l/m 3,8 km/h (1 Bft) W-NW 288 0 min 0,000 mm 0,5 UV-I 144 W/m 2,0 C 8,9 C 8,0 km/h (2 Bft) 100,00 %
21.03.2016 15:37 8,9 C 62 % 1014,3 hPa 0,0 l/m 3,3 km/h (1 Bft) NW 309 0 min 0,000 mm 0,5 UV-I 151 W/m 2,0 C 8,9 C 6,4 km/h (2 Bft) 100,00 %
21.03.2016 15:38 8,9 C 62 % 1014,3 hPa 0,0 l/m 3,6 km/h (1 Bft) W-NW 300 0 min 0,000 mm 0,5 UV-I 159 W/m 2,0 C 8,9 C 8,0 km/h (2 Bft) 100,00 %
21.03.2016 15:39 8,9 C 61 % 1014,3 hPa 0,0 l/m 3,6 km/h (1 Bft) NW 310 0 min 0,000 mm 0,5 UV-I 172 W/m 1,8 C 8,9 C 6,4 km/h (2 Bft) 100,00 %
21.03.2016 15:40 8,9 C 62 % 1014,4 hPa 0,0 l/m 1,6 km/h (1 Bft) NW 311 0 min 0,000 mm 0,5 UV-I 180 W/m 2,0 C 8,9 C 3,2 km/h (1 Bft) 96,15 %
21.03.2016 15:41 8,9 C 65 % 1014,4 hPa 0,0 l/m 4,1 km/h (1 Bft) W 264 0 min 0,000 mm 0,5 UV-I 187 W/m 2,7 C 8,9 C 6,4 km/h (2 Bft) 96,30 %
21.03.2016 15:42 8,9 C 63 % 1014,3 hPa 0,0 l/m 3,4 km/h (1 Bft) W-NW 302 0 min 0,000 mm 0,5 UV-I 191 W/m 2,2 C 8,9 C 4,8 km/h (1 Bft) 96,15 %
21.03.2016 15:43 8,9 C 63 % 1014,3 hPa 0,0 l/m 5,6 km/h (1 Bft) W 270 0 min 0,000 mm 0,5 UV-I 193 W/m 2,2 C 8,9 C 11,3 km/h (2 Bft) 100,00 %
21.03.2016 15:44 8,9 C 60 % 1014,3 hPa 0,0 l/m 3,8 km/h (1 Bft) W-NW 285 0 min 0,000 mm 0,5 UV-I 188 W/m 1,6 C 8,9 C 11,3 km/h (2 Bft) 100,00 %
21.03.2016 15:45 8,8 C 61 % 1014,3 hPa 0,0 l/m 4,2 km/h (1 Bft) NW 319 0 min 0,000 mm 0,5 UV-I 178 W/m 1,7 C 8,8 C 8,0 km/h (2 Bft) 100,00 %
21.03.2016 15:46 8,8 C 60 % 1014,3 hPa 0,0 l/m 3,7 km/h (1 Bft) W 265 0 min 0,000 mm 0,5 UV-I 173 W/m 1,5 C 8,8 C 6,4 km/h (2 Bft) 100,00 %
21.03.2016 15:47 8,8 C 61 % 1014,4 hPa 0,0 l/m 5,4 km/h (1 Bft) W-SW 255 0 min 0,000 mm 0,5 UV-I 171 W/m 1,7 C 8,8 C 8,0 km/h (2 Bft) 95,65 %
21.03.2016 15:48 8,8 C 61 % 1014,4 hPa 0,0 l/m 8,4 km/h (2 Bft) W 269 0 min 0,000 mm 0,5 UV-I 173 W/m 1,7 C 7,3 C 11,3 km/h (2 Bft) 100,00 %
21.03.2016 15:49 8,8 C 60 % 1014,4 hPa 0,0 l/m 3,8 km/h (1 Bft) W-SW 253 0 min 0,000 mm 0,5 UV-I 173 W/m 1,5 C 8,8 C 6,4 km/h (2 Bft) 100,00 %
21.03.2016 15:50 8,8 C 60 % 1014,4 hPa 0,0 l/m 4,2 km/h (1 Bft) W-SW 258 0 min 0,000 mm 0,5 UV-I 167 W/m 1,5 C 8,8 C 6,4 km/h (2 Bft) 97,44 %
21.03.2016 15:51 8,9 C 63 % 1014,3 hPa 0,0 l/m 3,5 km/h (1 Bft) W-NW 294 0 min 0,000 mm 0,5 UV-I 160 W/m 2,2 C 8,9 C 4,8 km/h (1 Bft) 100,00 %
21.03.2016 15:52 8,9 C 63 % 1014,4 hPa 0,0 l/m 3,6 km/h (1 Bft) NW 308 0 min 0,000 mm 0,5 UV-I 152 W/m 2,2 C 8,9 C 4,8 km/h (1 Bft) 100,00 %
21.03.2016 15:53 8,9 C 61 % 1014,4 hPa 0,0 l/m 2,1 km/h (1 Bft) NW 308 0 min 0,000 mm 0,5 UV-I 150 W/m 1,8 C 8,9 C 3,2 km/h (1 Bft) 100,00 %
21.03.2016 15:54 8,9 C 61 % 1014,4 hPa 0,0 l/m 2,0 km/h (1 Bft) NW 308 0 min 0,000 mm 0,3 UV-I 154 W/m 1,8 C 8,9 C 3,2 km/h (1 Bft) 100,00 %
21.03.2016 15:55 8,9 C 62 % 1014,3 hPa 0,0 l/m 3,2 km/h (1 Bft) W 281 0 min 0,000 mm 0,0 UV-I 158 W/m 2,0 C 8,9 C 4,8 km/h (1 Bft) 100,00 %
21.03.2016 15:56 8,9 C 62 % 1014,3 hPa 0,0 l/m 2,6 km/h (1 Bft) W-NW 282 0 min 0,000 mm 0,0 UV-I 158 W/m 2,0 C 8,9 C 4,8 km/h (1 Bft) 100,00 %
21.03.2016 15:57 8,9 C 63 % 1014,3 hPa 0,0 l/m 1,4 km/h (1 Bft) W-NW 282 0 min 0,000 mm 0,0 UV-I 162 W/m 2,2 C 8,9 C 3,2 km/h (1 Bft) 100,00 %
21.03.2016 15:58 9,0 C 62 % 1014,3 hPa 0,0 l/m 6,2 km/h (2 Bft) W-NW 294 0 min 0,000 mm 0,0 UV-I 163 W/m 2,1 C 9,0 C 14,5 km/h (3 Bft) 96,15 %
21.03.2016 15:59 8,9 C 61 % 1014,3 hPa 0,0 l/m 5,1 km/h (1 Bft) W-NW 302 0 min 0,000 mm 0,0 UV-I 168 W/m 1,8 C 8,9 C 12,9 km/h (3 Bft) 96,55 %
21.03.2016 16:00 8,9 C 63 % 1014,3 hPa 0,0 l/m 3,9 km/h (1 Bft) W-SW 242 0 min 0,101 mm 0,0 UV-I 173 W/m 2,2 C 8,9 C 6,4 km/h (2 Bft) 100,00 %
21.03.2016 16:01 8,9 C 63 % 1014,3 hPa 0,0 l/m 2,6 km/h (1 Bft) W 278 0 min 0,000 mm 0,0 UV-I 172 W/m 2,2 C 8,9 C 6,4 km/h (2 Bft) 95,65 %
21.03.2016 16:02 8,9 C 61 % 1014,3 hPa 0,0 l/m 0,8 km/h (0 Bft) W 279 0 min 0,000 mm 0,0 UV-I 169 W/m 1,8 C 8,9 C 3,2 km/h (1 Bft) 100,00 %
21.03.2016 16:03 8,9 C 62 % 1014,3 hPa 0,0 l/m 3,8 km/h (1 Bft) NW 309 0 min 0,000 mm 0,0 UV-I 167 W/m 2,0 C 8,9 C 6,4 km/h (2 Bft) 98,70 %
21.03.2016 16:04 8,9 C 62 % 1014,3 hPa 0,0 l/m 6,0 km/h (2 Bft) SW 234 0 min 0,000 mm 0,0 UV-I 171 W/m 2,0 C 8,9 C 12,9 km/h (3 Bft) 97,87 %
21.03.2016 16:05 8,9 C 62 % 1014,3 hPa 0,0 l/m 8,7 km/h (2 Bft) NW 311 0 min 0,000 mm 0,0 UV-I 157 W/m 2,0 C 7,2 C 14,5 km/h (3 Bft) 93,33 %
21.03.2016 16:06 8,9 C 62 % 1014,2 hPa 0,0 l/m 6,3 km/h (2 Bft) W-NW 294 0 min 0,000 mm 0,0 UV-I 185 W/m 2,0 C 8,9 C 9,7 km/h (2 Bft) 100,00 %
21.03.2016 16:07 8,9 C 62 % 1014,3 hPa 0,0 l/m 3,1 km/h (1 Bft) W-NW 296 0 min 0,000 mm 0,0 UV-I 165 W/m 2,0 C 8,9 C 4,8 km/h (1 Bft) 96,30 %
21.03.2016 16:08 8,9 C 63 % 1014,3 hPa 0,0 l/m 4,4 km/h (1 Bft) W-SW 248 0 min 0,000 mm 0,0 UV-I 157 W/m 2,2 C 8,9 C 6,4 km/h (2 Bft) 96,15 %
21.03.2016 16:09 8,9 C 61 % 1014,3 hPa 0,0 l/m 3,8 km/h (1 Bft) W 281 0 min 0,000 mm 0,0 UV-I 162 W/m 1,8 C 8,9 C 4,8 km/h (1 Bft) 100,00 %
21.03.2016 16:10 9,0 C 62 % 1014,2 hPa 0,0 l/m 2,5 km/h (1 Bft) NW 320 0 min 0,000 mm 0,0 UV-I 166 W/m 2,1 C 9,0 C 4,8 km/h (1 Bft) 96,15 %
21.03.2016 16:11 9,0 C 63 % 1014,2 hPa 0,0 l/m 3,6 km/h (1 Bft) N-NW 333 0 min 0,000 mm 0,0 UV-I 167 W/m 2,3 C 9,0 C 4,8 km/h (1 Bft) 100,00 %
21.03.2016 16:12 9,0 C 63 % 1014,2 hPa 0,0 l/m 6,2 km/h (2 Bft) W-SW 249 0 min 0,000 mm 0,0 UV-I 164 W/m 2,3 C 9,0 C 11,3 km/h (2 Bft) 92,31 %
21.03.2016 16:13 9,1 C 61 % 1014,2 hPa 0,0 l/m 10,1 km/h (2 Bft) W 273 0 min 0,000 mm 0,0 UV-I 157 W/m 2,0 C 6,5 C 11,3 km/h (2 Bft) 100,00 %
21.03.2016 16:14 9,1 C 61 % 1014,2 hPa 0,0 l/m 3,9 km/h (1 Bft) NW 317 0 min 0,000 mm 0,0 UV-I 149 W/m 2,0 C 9,1 C 9,7 km/h (2 Bft) 96,15 %
21.03.2016 16:15 9,0 C 63 % 1014,2 hPa 0,0 l/m 5,4 km/h (1 Bft) W-SW 248 0 min 0,000 mm 0,0 UV-I 148 W/m 2,3 C 9,0 C 12,9 km/h (3 Bft) 95,83 %
21.03.2016 16:16 9,0 C 60 % 1014,2 hPa 0,0 l/m 6,5 km/h (2 Bft) W-NW 293 0 min 0,000 mm 0,0 UV-I 148 W/m 1,7 C 9,0 C 11,3 km/h (2 Bft) 100,00 %
21.03.2016 16:17 8,9 C 59 % 1014,2 hPa 0,0 l/m 3,5 km/h (1 Bft) SW 236 0 min 0,000 mm 0,0 UV-I 151 W/m 1,3 C 8,9 C 4,8 km/h (1 Bft) 95,83 %
21.03.2016 16:18 8,9 C 60 % 1014,2 hPa 0,0 l/m 0,9 km/h (0 Bft) W-SW 242 0 min 0,000 mm 0,0 UV-I 178 W/m 1,6 C 8,9 C 1,6 km/h (1 Bft) 100,00 %
21.03.2016 16:19 8,9 C 62 % 1014,2 hPa 0,0 l/m 8,6 km/h (2 Bft) W 265 0 min 0,000 mm 0,0 UV-I 174 W/m 2,0 C 7,3 C 14,5 km/h (3 Bft) 93,10 %
21.03.2016 16:20 8,9 C 62 % 1014,2 hPa 0,0 l/m 4,9 km/h (1 Bft) W-NW 289 0 min 0,000 mm 0,0 UV-I 146 W/m 2,0 C 8,9 C 9,7 km/h (2 Bft) 100,00 %
21.03.2016 16:21 8,9 C 61 % 1014,2 hPa 0,0 l/m 6,8 km/h (2 Bft) W 275 0 min 0,000 mm 0,0 UV-I 141 W/m 1,8 C 8,6 C 12,9 km/h (3 Bft) 93,33 %
21.03.2016 16:22 8,9 C 60 % 1014,2 hPa 0,0 l/m 5,1 km/h (1 Bft) W-SW 239 0 min 0,000 mm 0,0 UV-I 139 W/m 1,6 C 8,9 C 8,0 km/h (2 Bft) 100,00 %
21.03.2016 16:23 8,9 C 61 % 1014,2 hPa 0,0 l/m 3,3 km/h (1 Bft) W-SW 250 0 min 0,000 mm 0,0 UV-I 138 W/m 1,8 C 8,9 C 6,4 km/h (2 Bft) 96,15 %
21.03.2016 16:24 8,9 C 62 % 1014,2 hPa 0,0 l/m 2,7 km/h (1 Bft) W 274 0 min 0,000 mm 0,0 UV-I 137 W/m 2,0 C 8,9 C 4,8 km/h (1 Bft) 96,55 %
21.03.2016 16:25 8,9 C 62 % 1014,2 hPa 0,0 l/m 0,6 km/h (0 Bft) W 274 0 min 0,000 mm 0,0 UV-I 137 W/m 2,0 C 8,9 C 3,2 km/h (1 Bft) 100,00 %
21.03.2016 16:26 8,9 C 62 % 1014,2 hPa 0,0 l/m 9,9 km/h (2 Bft) W 277 0 min 0,000 mm 0,0 UV-I 135 W/m 2,0 C 6,4 C 16,1 km/h (3 Bft) 96,30 %
21.03.2016 16:27 8,9 C 60 % 1014,1 hPa 0,0 l/m 12,9 km/h (3 Bft) W 269 0 min 0,000 mm 0,0 UV-I 146 W/m 1,6 C 4,8 C 17,7 km/h (3 Bft) 100,00 %
21.03.2016 16:28 8,8 C 60 % 1014,2 hPa 0,0 l/m 8,8 km/h (2 Bft) W 261 1 min 0,000 mm 0,0 UV-I 167 W/m 1,5 C 7,0 C 19,3 km/h (3 Bft) 96,30 %
21.03.2016 16:29 8,8 C 60 % 1014,1 hPa 0,0 l/m 10,9 km/h (2 Bft) SW 227 0 min 0,000 mm 0,0 UV-I 139 W/m 1,5 C 5,7 C 17,7 km/h (3 Bft) 100,00 %
21.03.2016 16:30 8,8 C 59 % 1014,2 hPa 0,0 l/m 9,1 km/h (2 Bft) W-SW 242 0 min 0,000 mm 0,0 UV-I 119 W/m 1,2 C 6,8 C 12,9 km/h (3 Bft) 93,33 %
21.03.2016 16:31 8,8 C 59 % 1014,2 hPa 0,0 l/m 7,5 km/h (2 Bft) W 268 0 min 0,000 mm 0,0 UV-I 113 W/m 1,2 C 8,0 C 12,9 km/h (3 Bft) 100,00 %
21.03.2016 16:32 8,8 C 60 % 1014,2 hPa 0,0 l/m 9,1 km/h (2 Bft) W 281 0 min 0,000 mm 0,0 UV-I 108 W/m 1,5 C 6,8 C 12,9 km/h (3 Bft) 100,00 %
21.03.2016 16:33 8,8 C 59 % 1014,1 hPa 0,0 l/m 8,2 km/h (2 Bft) W 261 0 min 0,000 mm 0,0 UV-I 108 W/m 1,2 C 7,5 C 12,9 km/h (3 Bft) 100,00 %
21.03.2016 16:34 8,8 C 59 % 1014,2 hPa 0,0 l/m 3,8 km/h (1 Bft) W-NW 289 0 min 0,000 mm 0,0 UV-I 108 W/m 1,2 C 8,8 C 6,4 km/h (2 Bft) 91,67 %
21.03.2016 16:35 8,8 C 60 % 1014,2 hPa 0,0 l/m 5,4 km/h (1 Bft) SW 234 0 min 0,000 mm 0,0 UV-I 106 W/m 1,5 C 8,8 C 9,7 km/h (2 Bft) 95,65 %
21.03.2016 16:36 8,8 C 60 % 1014,2 hPa 0,0 l/m 6,0 km/h (2 Bft) W-SW 251 0 min 0,000 mm 0,0 UV-I 104 W/m 1,5 C 8,8 C 8,0 km/h (2 Bft) 100,00 %
21.03.2016 16:37 8,8 C 60 % 1014,2 hPa 0,0 l/m 6,5 km/h (2 Bft) W-SW 248 0 min 0,000 mm 0,0 UV-I 102 W/m 1,5 C 8,7 C 11,3 km/h (2 Bft) 100,00 %
21.03.2016 16:38 8,8 C 59 % 1014,1 hPa 0,0 l/m 9,8 km/h (2 Bft) W 262 0 min 0,000 mm 0,0 UV-I 98 W/m 1,2 C 6,4 C 12,9 km/h (3 Bft) 100,00 %
21.03.2016 16:39 8,8 C 59 % 1014,2 hPa 0,0 l/m 8,0 km/h (2 Bft) W 277 0 min 0,000 mm 0,0 UV-I 98 W/m 1,2 C 7,6 C 11,3 km/h (2 Bft) 96,15 %
21.03.2016 16:40 8,8 C 60 % 1014,1 hPa 0,0 l/m 7,5 km/h (2 Bft) W 261 0 min 0,000 mm 0,0 UV-I 97 W/m 1,5 C 8,0 C 11,3 km/h (2 Bft) 100,00 %
21.03.2016 16:41 8,8 C 60 % 1014,1 hPa 0,0 l/m 5,6 km/h (1 Bft) W 269 0 min 0,000 mm 0,0 UV-I 97 W/m 1,5 C 8,8 C 9,7 km/h (2 Bft) 100,00 %
21.03.2016 16:42 8,8 C 59 % 1014,1 hPa 0,0 l/m 6,4 km/h (2 Bft) W 261 0 min 0,000 mm 0,0 UV-I 97 W/m 1,2 C 8,8 C 12,9 km/h (3 Bft) 100,00 %
21.03.2016 16:43 8,8 C 59 % 1014,2 hPa 0,0 l/m 6,6 km/h (2 Bft) SW 236 0 min 0,000 mm 0,0 UV-I 95 W/m 1,2 C 8,7 C 11,3 km/h (2 Bft) 100,00 %
21.03.2016 16:44 8,8 C 60 % 1014,2 hPa 0,0 l/m 8,4 km/h (2 Bft) W 271 0 min 0,000 mm 0,0 UV-I 90 W/m 1,5 C 7,3 C 12,9 km/h (3 Bft) 100,00 %
21.03.2016 16:45 8,8 C 59 % 1014,2 hPa 0,0 l/m 4,4 km/h (1 Bft) W-NW 297 0 min 0,000 mm 0,0 UV-I 87 W/m 1,2 C 8,8 C 9,7 km/h (2 Bft) 100,00 %
21.03.2016 16:46 8,8 C 60 % 1014,2 hPa 0,0 l/m 4,5 km/h (1 Bft) W 270 0 min 0,000 mm 0,0 UV-I 83 W/m 1,5 C 8,8 C 8,0 km/h (2 Bft) 96,15 %
21.03.2016 16:47 8,8 C 60 % 1014,2 hPa 0,0 l/m 3,3 km/h (1 Bft) W 267 0 min 0,000 mm 0,0 UV-I 82 W/m 1,5 C 8,8 C 6,4 km/h (2 Bft) 100,00 %
21.03.2016 16:48 8,8 C 58 % 1014,2 hPa 0,0 l/m 6,6 km/h (2 Bft) S-SW 211 0 min 0,000 mm 0,0 UV-I 79 W/m 1,0 C 8,7 C 12,9 km/h (3 Bft) 100,00 %
21.03.2016 16:49 8,7 C 59 % 1014,2 hPa 0,0 l/m 7,5 km/h (2 Bft) W 266 0 min 0,000 mm 0,0 UV-I 77 W/m 1,1 C 7,9 C 11,3 km/h (2 Bft) 100,00 %
21.03.2016 16:50 8,7 C 59 % 1014,2 hPa 0,0 l/m 8,9 km/h (2 Bft) W-SW 255 0 min 0,000 mm 0,0 UV-I 76 W/m 1,1 C 6,9 C 12,9 km/h (3 Bft) 100,00 %
21.03.2016 16:51 8,7 C 59 % 1014,2 hPa 0,0 l/m 6,4 km/h (2 Bft) W-NW 292 0 min 0,000 mm 0,0 UV-I 73 W/m 1,1 C 8,7 C 11,3 km/h (2 Bft) 100,00 %
21.03.2016 16:52 8,7 C 59 % 1014,2 hPa 0,0 l/m 5,8 km/h (2 Bft) W 270 0 min 0,000 mm 0,0 UV-I 71 W/m 1,1 C 8,7 C 11,3 km/h (2 Bft) 100,00 %
21.03.2016 16:53 8,7 C 59 % 1014,1 hPa 0,0 l/m 6,4 km/h (2 Bft) W 263 0 min 0,000 mm 0,0 UV-I 68 W/m 1,1 C 8,7 C 9,7 km/h (2 Bft) 100,00 %
21.03.2016 16:54 8,7 C 59 % 1014,2 hPa 0,0 l/m 6,2 km/h (2 Bft) W 263 0 min 0,000 mm 0,0 UV-I 65 W/m 1,1 C 8,7 C 9,7 km/h (2 Bft) 100,00 %
21.03.2016 16:55 8,7 C 60 % 1014,2 hPa 0,0 l/m 5,6 km/h (1 Bft) W 281 0 min 0,000 mm 0,0 UV-I 63 W/m 1,4 C 8,7 C 9,7 km/h (2 Bft) 100,00 %
21.03.2016 16:56 8,7 C 59 % 1014,1 hPa 0,0 l/m 4,7 km/h (1 Bft) W 261 0 min 0,000 mm 0,0 UV-I 62 W/m 1,1 C 8,7 C 8,0 km/h (2 Bft) 100,00 %
21.03.2016 16:57 8,7 C 59 % 1014,1 hPa 0,0 l/m 5,8 km/h (2 Bft) W-SW 257 0 min 0,000 mm 0,0 UV-I 61 W/m 1,1 C 8,7 C 6,4 km/h (2 Bft) 100,00 %
21.03.2016 16:58 8,7 C 59 % 1014,2 hPa 0,0 l/m 6,9 km/h (2 Bft) W-NW 286 0 min 0,000 mm 0,0 UV-I 59 W/m 1,1 C 8,3 C 11,3 km/h (2 Bft) 100,00 %
21.03.2016 16:59 8,7 C 59 % 1014,2 hPa 0,0 l/m 4,0 km/h (1 Bft) W-SW 247 0 min 0,000 mm 0,0 UV-I 57 W/m 1,1 C 8,7 C 8,0 km/h (2 Bft) 100,00 %
21.03.2016 17:00 8,7 C 59 % 1014,2 hPa 0,0 l/m 7,3 km/h (2 Bft) W-SW 250 0 min 0,000 mm 0,0 UV-I 56 W/m 1,1 C 8,0 C 11,3 km/h (2 Bft) 100,00 %
21.03.2016 17:01 8,7 C 59 % 1014,2 hPa 0,0 l/m 4,6 km/h (1 Bft) W-NW 296 0 min 0,076 mm 0,0 UV-I 54 W/m 1,1 C 8,7 C 6,4 km/h (2 Bft) 100,00 %
21.03.2016 17:02 8,7 C 60 % 1014,2 hPa 0,0 l/m 4,5 km/h (1 Bft) W-NW 296 0 min 0,000 mm 0,0 UV-I 54 W/m 1,4 C 8,7 C 11,3 km/h (2 Bft) 100,00 %
21.03.2016 17:03 8,6 C 60 % 1014,2 hPa 0,0 l/m 4,9 km/h (1 Bft) W 259 0 min 0,000 mm 0,0 UV-I 54 W/m 1,3 C 8,6 C 11,3 km/h (2 Bft) 95,65 %
21.03.2016 17:04 8,6 C 60 % 1014,2 hPa 0,0 l/m 10,3 km/h (2 Bft) W-NW 290 0 min 0,000 mm 0,0 UV-I 53 W/m 1,3 C 5,9 C 14,5 km/h (3 Bft) 100,00 %
21.03.2016 17:05 8,6 C 60 % 1014,3 hPa 0,0 l/m 5,6 km/h (1 Bft) W 265 0 min 0,000 mm 0,0 UV-I 53 W/m 1,3 C 8,6 C 11,3 km/h (2 Bft) 96,88 %
21.03.2016 17:06 8,6 C 60 % 1014,2 hPa 0,0 l/m 3,2 km/h (1 Bft) W 273 0 min 0,000 mm 0,0 UV-I 53 W/m 1,3 C 8,6 C 9,7 km/h (2 Bft) 100,00 %
21.03.2016 17:07 8,6 C 61 % 1014,2 hPa 0,0 l/m 4,2 km/h (1 Bft) W 265 0 min 0,000 mm 0,0 UV-I 53 W/m 1,5 C 8,6 C 6,4 km/h (2 Bft) 100,00 %
21.03.2016 17:08 8,6 C 60 % 1014,2 hPa 0,0 l/m 3,0 km/h (1 Bft) W-SW 258 0 min 0,000 mm 0,0 UV-I 52 W/m 1,3 C 8,6 C 6,4 km/h (2 Bft) 100,00 %
21.03.2016 17:09 8,6 C 61 % 1014,2 hPa 0,0 l/m 2,6 km/h (1 Bft) W-NW 288 0 min 0,000 mm 0,0 UV-I 53 W/m 1,5 C 8,6 C 4,8 km/h (1 Bft) 100,00 %
21.03.2016 17:10 8,6 C 59 % 1014,2 hPa 0,0 l/m 4,3 km/h (1 Bft) W 271 0 min 0,000 mm 0,0 UV-I 52 W/m 1,0 C 8,6 C 6,4 km/h (2 Bft) 100,00 %
21.03.2016 17:11 8,6 C 60 % 1014,2 hPa 0,0 l/m 3,9 km/h (1 Bft) W-SW 244 0 min 0,000 mm 0,0 UV-I 51 W/m 1,3 C 8,6 C 8,0 km/h (2 Bft) 100,00 %
21.03.2016 17:12 8,6 C 59 % 1014,2 hPa 0,0 l/m 2,0 km/h (1 Bft) W-SW 257 0 min 0,000 mm 0,0 UV-I 49 W/m 1,0 C 8,6 C 4,8 km/h (1 Bft) 100,00 %
21.03.2016 17:13 8,6 C 60 % 1014,2 hPa 0,0 l/m 3,2 km/h (1 Bft) W-SW 257 0 min 0,000 mm 0,0 UV-I 49 W/m 1,3 C 8,6 C 4,8 km/h (1 Bft) 100,00 %
21.03.2016 17:14 8,6 C 59 % 1014,2 hPa 0,0 l/m 2,9 km/h (1 Bft) W 281 0 min 0,000 mm 0,0 UV-I 49 W/m 1,0 C 8,6 C 4,8 km/h (1 Bft) 97,22 %
21.03.2016 17:15 8,5 C 60 % 1014,2 hPa 0,0 l/m 4,8 km/h (1 Bft) W 281 0 min 0,000 mm 0,0 UV-I 48 W/m 1,2 C 8,5 C 6,4 km/h (2 Bft) 100,00 %
21.03.2016 17:16 8,5 C 60 % 1014,2 hPa 0,0 l/m 3,5 km/h (1 Bft) W 273 0 min 0,000 mm 0,0 UV-I 46 W/m 1,2 C 8,5 C 6,4 km/h (2 Bft) 97,22 %
21.03.2016 17:17 8,5 C 60 % 1014,2 hPa 0,0 l/m 3,5 km/h (1 Bft) W 275 0 min 0,000 mm 0,0 UV-I 44 W/m 1,2 C 8,5 C 4,8 km/h (1 Bft) 100,00 %
21.03.2016 17:18 8,4 C 60 % 1014,2 hPa 0,0 l/m 3,6 km/h (1 Bft) W 263 0 min 0,000 mm 0,0 UV-I 42 W/m 1,1 C 8,4 C 6,4 km/h (2 Bft) 100,00 %
21.03.2016 17:19 8,4 C 61 % 1014,2 hPa 0,0 l/m 2,6 km/h (1 Bft) NW 319 0 min 0,000 mm 0,0 UV-I 42 W/m 1,3 C 8,4 C 3,2 km/h (1 Bft) 95,83 %
21.03.2016 17:20 8,4 C 61 % 1014,2 hPa 0,0 l/m 5,6 km/h (1 Bft) NW 310 0 min 0,000 mm 0,0 UV-I 40 W/m 1,3 C 8,4 C 9,7 km/h (2 Bft) 100,00 %
21.03.2016 17:21 8,4 C 59 % 1014,2 hPa 0,0 l/m 5,8 km/h (2 Bft) W 271 0 min 0,000 mm 0,0 UV-I 39 W/m 0,9 C 8,4 C 11,3 km/h (2 Bft) 100,00 %
21.03.2016 17:22 8,4 C 59 % 1014,2 hPa 0,0 l/m 3,6 km/h (1 Bft) W 268 0 min 0,000 mm 0,0 UV-I 39 W/m 0,9 C 8,4 C 6,4 km/h (2 Bft) 93,33 %
21.03.2016 17:23 8,4 C 60 % 1014,2 hPa 0,0 l/m 4,6 km/h (1 Bft) W 277 0 min 0,000 mm 0,0 UV-I 39 W/m 1,1 C 8,4 C 9,7 km/h (2 Bft) 100,00 %
21.03.2016 17:24 8,4 C 59 % 1014,3 hPa 0,0 l/m 8,2 km/h (2 Bft) W 263 0 min 0,000 mm 0,0 UV-I 37 W/m 0,9 C 7,0 C 12,9 km/h (3 Bft) 100,00 %
21.03.2016 17:25 8,4 C 59 % 1014,2 hPa 0,0 l/m 3,5 km/h (1 Bft) W-NW 295 0 min 0,000 mm 0,0 UV-I 37 W/m 0,9 C 8,4 C 6,4 km/h (2 Bft) 100,00 %
21.03.2016 17:26 8,4 C 59 % 1014,2 hPa 0,0 l/m 4,6 km/h (1 Bft) W-SW 238 0 min 0,000 mm 0,0 UV-I 37 W/m 0,9 C 8,4 C 6,4 km/h (2 Bft) 100,00 %
21.03.2016 17:27 8,4 C 59 % 1014,3 hPa 0,0 l/m 4,6 km/h (1 Bft) N-NW 346 0 min 0,000 mm 0,0 UV-I 37 W/m 0,9 C 8,4 C 9,7 km/h (2 Bft) 100,00 %
21.03.2016 17:28 8,3 C 61 % 1014,2 hPa 0,0 l/m 2,4 km/h (1 Bft) NW 315 0 min 0,000 mm 0,0 UV-I 37 W/m 1,2 C 8,3 C 3,2 km/h (1 Bft) 100,00 %
21.03.2016 17:29 8,3 C 61 % 1014,3 hPa 0,0 l/m 4,0 km/h (1 Bft) W-NW 284 0 min 0,000 mm 0,0 UV-I 37 W/m 1,2 C 8,3 C 9,7 km/h (2 Bft) 100,00 %
21.03.2016 17:30 8,3 C 60 % 1014,3 hPa 0,0 l/m 4,4 km/h (1 Bft) W-SW 237 0 min 0,000 mm 0,0 UV-I 37 W/m 1,0 C 8,3 C 11,3 km/h (2 Bft) 100,00 %
21.03.2016 17:31 8,3 C 60 % 1014,2 hPa 0,0 l/m 1,7 km/h (1 Bft) W-SW 238 0 min 0,000 mm 0,0 UV-I 35 W/m 1,0 C 8,3 C 4,8 km/h (1 Bft) 100,00 %
21.03.2016 17:32 8,3 C 60 % 1014,3 hPa 0,0 l/m 2,1 km/h (1 Bft) W 281 0 min 0,000 mm 0,0 UV-I 34 W/m 1,0 C 8,3 C 3,2 km/h (1 Bft) 96,88 %
21.03.2016 17:33 8,3 C 60 % 1014,2 hPa 0,0 l/m 5,9 km/h (2 Bft) W 273 0 min 0,000 mm 0,0 UV-I 33 W/m 1,0 C 8,3 C 11,3 km/h (2 Bft) 100,00 %
21.03.2016 17:34 8,3 C 61 % 1014,3 hPa 0,0 l/m 5,6 km/h (1 Bft) W-NW 290 0 min 0,000 mm 0,0 UV-I 32 W/m 1,2 C 8,3 C 11,3 km/h (2 Bft) 98,69 %
21.03.2016 17:35 8,3 C 60 % 1014,3 hPa 0,0 l/m 2,1 km/h (1 Bft) W-NW 288 0 min 0,000 mm 0,0 UV-I 30 W/m 1,0 C 8,3 C 6,4 km/h (2 Bft) 100,00 %
21.03.2016 17:36 8,3 C 60 % 1014,3 hPa 0,0 l/m 3,6 km/h (1 Bft) W-SW 256 0 min 0,000 mm 0,0 UV-I 30 W/m 1,0 C 8,3 C 6,4 km/h (2 Bft) 100,00 %
21.03.2016 17:37 8,2 C 60 % 1014,3 hPa 0,0 l/m 2,7 km/h (1 Bft) W-SW 257 0 min 0,000 mm 0,0 UV-I 27 W/m 0,9 C 8,2 C 4,8 km/h (1 Bft) 96,30 %
21.03.2016 17:38 8,2 C 60 % 1014,3 hPa 0,0 l/m 2,4 km/h (1 Bft) W-NW 284 0 min 0,000 mm 0,0 UV-I 26 W/m 0,9 C 8,2 C 4,8 km/h (1 Bft) 100,00 %
21.03.2016 17:39 8,2 C 60 % 1014,3 hPa 0,0 l/m 4,4 km/h (1 Bft) W-SW 250 0 min 0,000 mm 0,0 UV-I 25 W/m 0,9 C 8,2 C 6,4 km/h (2 Bft) 100,00 %
21.03.2016 17:40 8,2 C 61 % 1014,3 hPa 0,0 l/m 2,6 km/h (1 Bft) W-SW 250 0 min 0,000 mm 0,0 UV-I 26 W/m 1,1 C 8,2 C 3,2 km/h (1 Bft) 100,00 %
21.03.2016 17:41 8,2 C 60 % 1014,3 hPa 0,0 l/m 3,1 km/h (1 Bft) W-NW 298 0 min 0,000 mm 0,0 UV-I 26 W/m 0,9 C 8,2 C 4,8 km/h (1 Bft) 100,00 %
21.03.2016 17:42 8,2 C 60 % 1014,3 hPa 0,0 l/m 3,6 km/h (1 Bft) W 273 0 min 0,000 mm 0,0 UV-I 26 W/m 0,9 C 8,2 C 4,8 km/h (1 Bft) 100,00 %
21.03.2016 17:43 8,2 C 60 % 1014,4 hPa 0,0 l/m 5,2 km/h (1 Bft) W 281 0 min 0,000 mm 0,0 UV-I 26 W/m 0,9 C 8,2 C 9,7 km/h (2 Bft) 100,00 %
21.03.2016 17:44 8,2 C 61 % 1014,3 hPa 0,0 l/m 9,1 km/h (2 Bft) NW 317 0 min 0,000 mm 0,0 UV-I 26 W/m 1,1 C 6,2 C 14,5 km/h (3 Bft) 100,00 %
21.03.2016 17:45 8,2 C 60 % 1014,3 hPa 0,0 l/m 3,0 km/h (1 Bft) W 280 0 min 0,000 mm 0,0 UV-I 26 W/m 0,9 C 8,2 C 6,4 km/h (2 Bft) 100,00 %
21.03.2016 17:46 8,2 C 60 % 1014,3 hPa 0,0 l/m 2,6 km/h (1 Bft) W 281 0 min 0,000 mm 0,0 UV-I 26 W/m 0,9 C 8,2 C 3,2 km/h (1 Bft) 100,00 %
21.03.2016 17:47 8,2 C 61 % 1014,3 hPa 0,0 l/m 3,9 km/h (1 Bft) W 267 0 min 0,000 mm 0,0 UV-I 26 W/m 1,1 C 8,2 C 11,3 km/h (2 Bft) 100,00 %
21.03.2016 17:48 8,2 C 61 % 1014,3 hPa 0,0 l/m 1,4 km/h (1 Bft) W 267 0 min 0,000 mm 0,0 UV-I 26 W/m 1,1 C 8,2 C 3,2 km/h (1 Bft) 100,00 %
21.03.2016 17:49 8,2 C 62 % 1014,3 hPa 0,0 l/m 3,0 km/h (1 Bft) W 281 0 min 0,000 mm 0,0 UV-I 28 W/m 1,4 C 8,2 C 4,8 km/h (1 Bft) 100,00 %
21.03.2016 17:50 8,2 C 61 % 1014,3 hPa 0,0 l/m 3,8 km/h (1 Bft) NW 304 0 min 0,000 mm 0,0 UV-I 28 W/m 1,1 C 8,2 C 6,4 km/h (2 Bft) 96,30 %
21.03.2016 17:51 8,2 C 61 % 1014,3 hPa 0,0 l/m 3,0 km/h (1 Bft) W 275 0 min 0,000 mm 0,0 UV-I 28 W/m 1,1 C 8,2 C 4,8 km/h (1 Bft) 100,00 %
21.03.2016 17:52 8,2 C 61 % 1014,3 hPa 0,0 l/m 2,9 km/h (1 Bft) W 281 0 min 0,000 mm 0,0 UV-I 28 W/m 1,1 C 8,2 C 4,8 km/h (1 Bft) 100,00 %
21.03.2016 17:53 8,2 C 61 % 1014,3 hPa 0,0 l/m 1,8 km/h (1 Bft) W 281 0 min 0,000 mm 0,0 UV-I 26 W/m 1,1 C 8,2 C 3,2 km/h (1 Bft) 96,15 %
21.03.2016 17:54 8,2 C 62 % 1014,3 hPa 0,0 l/m 2,9 km/h (1 Bft) W 273 0 min 0,000 mm 0,0 UV-I 26 W/m 1,4 C 8,2 C 4,8 km/h (1 Bft) 100,00 %
21.03.2016 17:55 8,2 C 62 % 1014,3 hPa 0,0 l/m 1,9 km/h (1 Bft) W-NW 300 0 min 0,000 mm 0,0 UV-I 26 W/m 1,4 C 8,2 C 4,8 km/h (1 Bft) 100,00 %
21.03.2016 17:56 8,2 C 63 % 1014,3 hPa 0,0 l/m 6,4 km/h (2 Bft) NW 315 0 min 0,000 mm 0,0 UV-I 26 W/m 1,6 C 8,2 C 9,7 km/h (2 Bft) 96,30 %
21.03.2016 17:57 8,1 C 62 % 1014,3 hPa 0,0 l/m 3,8 km/h (1 Bft) W-SW 257 0 min 0,000 mm 0,0 UV-I 25 W/m 1,3 C 8,1 C 4,8 km/h (1 Bft) 100,00 %
21.03.2016 17:58 8,1 C 63 % 1014,3 hPa 0,0 l/m 1,8 km/h (1 Bft) W 261 0 min 0,000 mm 0,0 UV-I 24 W/m 1,5 C 8,1 C 3,2 km/h (1 Bft) 100,00 %
21.03.2016 17:59 8,1 C 63 % 1014,2 hPa 0,0 l/m 3,3 km/h (1 Bft) W 271 0 min 0,000 mm 0,0 UV-I 21 W/m 1,5 C 8,1 C 6,4 km/h (2 Bft) 95,65 %
21.03.2016 18:00 8,1 C 63 % 1014,2 hPa 0,0 l/m 4,0 km/h (1 Bft) W-NW 287 0 min 0,000 mm 0,0 UV-I 19 W/m 1,5 C 8,1 C 6,4 km/h (2 Bft) 100,00 %
21.03.2016 18:01 8,0 C 62 % 1014,2 hPa 0,0 l/m 3,7 km/h (1 Bft) W-SW 250 0 min 0,026 mm 0,0 UV-I 19 W/m 1,2 C 8,0 C 6,4 km/h (2 Bft) 95,83 %
21.03.2016 18:02 7,9 C 62 % 1014,2 hPa 0,0 l/m 1,7 km/h (1 Bft) W 268 0 min 0,000 mm 0,0 UV-I 18 W/m 1,1 C 7,9 C 3,2 km/h (1 Bft) 100,00 %
21.03.2016 18:03 7,9 C 61 % 1014,2 hPa 0,0 l/m 2,7 km/h (1 Bft) W-SW 257 1 min 0,000 mm 0,0 UV-I 17 W/m 0,9 C 7,9 C 3,2 km/h (1 Bft) 95,83 %
21.03.2016 18:04 7,9 C 61 % 1014,2 hPa 0,0 l/m 2,7 km/h (1 Bft) W-SW 257 1 min 0,000 mm 0,0 UV-I 16 W/m 0,9 C 7,9 C 3,2 km/h (1 Bft) 100,00 %
21.03.2016 18:05 7,8 C 62 % 1014,2 hPa 0,0 l/m 1,9 km/h (1 Bft) W-SW 257 1 min 0,000 mm 0,0 UV-I 14 W/m 1,0 C 7,8 C 3,2 km/h (1 Bft) 96,30 %
21.03.2016 18:06 7,8 C 62 % 1014,2 hPa 0,0 l/m 1,9 km/h (1 Bft) W-SW 257 1 min 0,000 mm 0,0 UV-I 13 W/m 1,0 C 7,8 C 3,2 km/h (1 Bft) 96,15 %
21.03.2016 18:07 7,7 C 62 % 1014,2 hPa 0,0 l/m 2,3 km/h (1 Bft) W-SW 257 1 min 0,000 mm 0,0 UV-I 12 W/m 0,9 C 7,7 C 3,2 km/h (1 Bft) 100,00 %
21.03.2016 18:08 7,7 C 63 % 1014,2 hPa 0,0 l/m 2,3 km/h (1 Bft) W-SW 257 1 min 0,000 mm 0,0 UV-I 11 W/m 1,1 C 7,7 C 3,2 km/h (1 Bft) 90,91 %
21.03.2016 18:09 7,6 C 63 % 1014,2 hPa 0,0 l/m 2,4 km/h (1 Bft) W 261 0 min 0,000 mm 0,0 UV-I 11 W/m 1,0 C 7,6 C 4,8 km/h (1 Bft) 96,30 %
21.03.2016 18:10 7,6 C 64 % 1014,3 hPa 0,0 l/m 1,3 km/h (1 Bft) W 261 0 min 0,000 mm 0,0 UV-I 11 W/m 1,2 C 7,6 C 3,2 km/h (1 Bft) 96,15 %
21.03.2016 18:11 7,6 C 64 % 1014,2 hPa 0,0 l/m 1,1 km/h (1 Bft) W 261 0 min 0,000 mm 0,0 UV-I 9 W/m 1,2 C 7,6 C 1,6 km/h (1 Bft) 100,00 %
21.03.2016 18:12 7,5 C 64 % 1014,2 hPa 0,0 l/m 2,0 km/h (1 Bft) W 261 0 min 0,000 mm 0,0 UV-I 9 W/m 1,1 C 7,5 C 3,2 km/h (1 Bft) 96,15 %
21.03.2016 18:13 7,4 C 64 % 1014,2 hPa 0,0 l/m 2,8 km/h (1 Bft) W 260 0 min 0,000 mm 0,0 UV-I 8 W/m 1,0 C 7,4 C 8,0 km/h (2 Bft) 100,00 %
21.03.2016 18:14 7,4 C 63 % 1014,3 hPa 0,0 l/m 3,7 km/h (1 Bft) W-NW 284 0 min 0,000 mm 0,0 UV-I 7 W/m 0,8 C 7,4 C 6,4 km/h (2 Bft) 95,65 %
21.03.2016 18:15 7,4 C 63 % 1014,3 hPa 0,0 l/m 1,8 km/h (1 Bft) W-NW 284 0 min 0,000 mm 0,0 UV-I 7 W/m 0,8 C 7,4 C 3,2 km/h (1 Bft) 95,83 %
21.03.2016 18:16 7,3 C 63 % 1014,3 hPa 0,0 l/m 3,0 km/h (1 Bft) W-NW 284 0 min 0,000 mm 0,0 UV-I 7 W/m 0,7 C 7,3 C 3,2 km/h (1 Bft) 100,00 %
21.03.2016 18:17 7,3 C 64 % 1014,3 hPa 0,0 l/m 3,5 km/h (1 Bft) W 278 0 min 0,000 mm 0,0 UV-I 5 W/m 1,0 C 7,3 C 4,8 km/h (1 Bft) 100,00 %
21.03.2016 18:18 7,3 C 64 % 1014,3 hPa 0,0 l/m 4,6 km/h (1 Bft) W 277 0 min 0,000 mm 0,0 UV-I 5 W/m 1,0 C 7,3 C 6,4 km/h (2 Bft) 95,83 %
21.03.2016 18:19 7,3 C 64 % 1014,3 hPa 0,0 l/m 3,4 km/h (1 Bft) W 277 0 min 0,000 mm 0,0 UV-I 5 W/m 1,0 C 7,3 C 4,8 km/h (1 Bft) 96,15 %
21.03.2016 18:20 7,2 C 64 % 1014,3 hPa 0,0 l/m 5,2 km/h (1 Bft) W-SW 246 0 min 0,000 mm 0,0 UV-I 5 W/m 0,9 C 7,2 C 8,0 km/h (2 Bft) 100,00 %
21.03.2016 18:21 7,2 C 64 % 1014,3 hPa 0,0 l/m 4,5 km/h (1 Bft) W-SW 254 0 min 0,000 mm 0,0 UV-I 5 W/m 0,9 C 7,2 C 6,4 km/h (2 Bft) 92,59 %
21.03.2016 18:22 7,2 C 64 % 1014,2 hPa 0,0 l/m 4,2 km/h (1 Bft) W-SW 254 0 min 0,000 mm 0,0 UV-I 1 W/m 0,9 C 7,2 C 4,8 km/h (1 Bft) 100,00 %
21.03.2016 18:23 7,2 C 63 % 1014,2 hPa 0,0 l/m 5,6 km/h (1 Bft) W-SW 255 0 min 0,000 mm 0,0 UV-I 0 W/m 0,6 C 7,2 C 8,0 km/h (2 Bft) 95,83 %
21.03.2016 18:24 7,2 C 64 % 1014,3 hPa 0,0 l/m 4,2 km/h (1 Bft) W-SW 254 0 min 0,000 mm 0,0 UV-I 0 W/m 0,9 C 7,2 C 6,4 km/h (2 Bft) 95,65 %
21.03.2016 18:25 7,2 C 63 % 1014,2 hPa 0,0 l/m 3,9 km/h (1 Bft) W-SW 252 0 min 0,000 mm 0,0 UV-I 0 W/m 0,6 C 7,2 C 6,4 km/h (2 Bft) 100,00 %
21.03.2016 18:26 7,2 C 64 % 1014,3 hPa 0,0 l/m 4,8 km/h (1 Bft) W-SW 254 0 min 0,000 mm 0,0 UV-I 0 W/m 0,9 C 7,2 C 6,4 km/h (2 Bft) 100,00 %
21.03.2016 18:27 7,2 C 64 % 1014,3 hPa 0,0 l/m 4,6 km/h (1 Bft) W 263 0 min 0,000 mm 0,0 UV-I 0 W/m 0,9 C 7,2 C 4,8 km/h (1 Bft) 96,55 %
21.03.2016 18:28 7,2 C 64 % 1014,3 hPa 0,0 l/m 4,2 km/h (1 Bft) W 263 0 min 0,000 mm 0,0 UV-I 0 W/m 0,9 C 7,2 C 4,8 km/h (1 Bft) 95,83 %
21.03.2016 18:29 7,2 C 64 % 1014,3 hPa 0,0 l/m 5,1 km/h (1 Bft) W 269 0 min 0,000 mm 0,0 UV-I 0 W/m 0,9 C 7,2 C 9,7 km/h (2 Bft) 100,00 %
21.03.2016 18:30 7,1 C 64 % 1014,2 hPa 0,0 l/m 5,1 km/h (1 Bft) W 271 0 min 0,000 mm 0,0 UV-I 0 W/m 0,8 C 7,1 C 6,4 km/h (2 Bft) 93,33 %
21.03.2016 18:31 7,1 C 64 % 1014,3 hPa 0,0 l/m 3,9 km/h (1 Bft) W 269 0 min 0,000 mm 0,0 UV-I 0 W/m 0,8 C 7,1 C 4,8 km/h (1 Bft) 96,15 %
21.03.2016 18:32 7,1 C 64 % 1014,3 hPa 0,0 l/m 4,3 km/h (1 Bft) W 270 0 min 0,000 mm 0,0 UV-I 0 W/m 0,8 C 7,1 C 4,8 km/h (1 Bft) 95,83 %
21.03.2016 18:33 7,1 C 64 % 1014,3 hPa 0,0 l/m 4,5 km/h (1 Bft) W 269 0 min 0,000 mm 0,0 UV-I 0 W/m 0,8 C 7,1 C 6,4 km/h (2 Bft) 100,00 %
21.03.2016 18:34 7,1 C 64 % 1014,3 hPa 0,0 l/m 4,8 km/h (1 Bft) W 269 0 min 0,000 mm 0,0 UV-I 0 W/m 0,8 C 7,1 C 6,4 km/h (2 Bft) 91,67 %
21.03.2016 18:35 7,1 C 64 % 1014,3 hPa 0,0 l/m 4,8 km/h (1 Bft) W 269 0 min 0,000 mm 0,0 UV-I 0 W/m 0,8 C 7,1 C 6,4 km/h (2 Bft) 95,65 %
21.03.2016 18:36 7,1 C 64 % 1014,3 hPa 0,0 l/m 4,4 km/h (1 Bft) W 269 0 min 0,000 mm 0,0 UV-I 0 W/m 0,8 C 7,1 C 6,4 km/h (2 Bft) 100,00 %
21.03.2016 18:37 7,1 C 64 % 1014,3 hPa 0,0 l/m 6,1 km/h (2 Bft) W 261 0 min 0,000 mm 0,0 UV-I 0 W/m 0,8 C 7,1 C 9,7 km/h (2 Bft) 95,65 %
21.03.2016 18:38 7,1 C 64 % 1014,4 hPa 0,0 l/m 5,8 km/h (2 Bft) W-SW 257 0 min 0,000 mm 0,0 UV-I 0 W/m 0,8 C 7,1 C 6,4 km/h (2 Bft) 100,00 %
21.03.2016 18:39 7,1 C 64 % 1014,4 hPa 0,0 l/m 5,4 km/h (1 Bft) W 261 0 min 0,000 mm 0,0 UV-I 0 W/m 0,8 C 7,1 C 6,4 km/h (2 Bft) 100,00 %
21.03.2016 18:40 7,1 C 64 % 1014,4 hPa 0,0 l/m 5,4 km/h (1 Bft) W 264 0 min 0,000 mm 0,0 UV-I 0 W/m 0,8 C 7,1 C 6,4 km/h (2 Bft) 100,00 %
21.03.2016 18:41 7,0 C 65 % 1014,4 hPa 0,0 l/m 6,1 km/h (2 Bft) W 259 0 min 0,000 mm 0,0 UV-I 0 W/m 0,9 C 7,0 C 9,7 km/h (2 Bft) 100,00 %
21.03.2016 18:42 7,0 C 65 % 1014,4 hPa 0,0 l/m 6,8 km/h (2 Bft) W 268 0 min 0,000 mm 0,0 UV-I 0 W/m 0,9 C 6,7 C 9,7 km/h (2 Bft) 100,00 %
21.03.2016 18:43 7,0 C 65 % 1014,4 hPa 0,0 l/m 5,6 km/h (1 Bft) W 264 0 min 0,000 mm 0,0 UV-I 0 W/m 0,9 C 7,0 C 9,7 km/h (2 Bft) 100,00 %
21.03.2016 18:44 7,0 C 65 % 1014,4 hPa 0,0 l/m 5,3 km/h (1 Bft) W 261 0 min 0,000 mm 0,0 UV-I 0 W/m 0,9 C 7,0 C 6,4 km/h (2 Bft) 95,65 %
21.03.2016 18:45 7,0 C 65 % 1014,4 hPa 0,0 l/m 6,1 km/h (2 Bft) W 261 0 min 0,000 mm 0,0 UV-I 0 W/m 0,9 C 7,0 C 9,7 km/h (2 Bft) 100,00 %
21.03.2016 18:46 7,0 C 65 % 1014,4 hPa 0,0 l/m 5,2 km/h (1 Bft) W 261 0 min 0,000 mm 0,0 UV-I 0 W/m 0,9 C 7,0 C 6,4 km/h (2 Bft) 100,00 %
21.03.2016 18:47 7,0 C 65 % 1014,4 hPa 0,0 l/m 5,5 km/h (1 Bft) W-SW 257 0 min 0,000 mm 0,0 UV-I 0 W/m 0,9 C 7,0 C 6,4 km/h (2 Bft) 100,00 %
21.03.2016 18:48 7,0 C 65 % 1014,4 hPa 0,0 l/m 6,0 km/h (2 Bft) W 263 0 min 0,000 mm 0,0 UV-I 0 W/m 0,9 C 7,0 C 9,7 km/h (2 Bft) 100,00 %
21.03.2016 18:49 7,0 C 65 % 1014,4 hPa 0,0 l/m 5,4 km/h (1 Bft) W-SW 252 0 min 0,000 mm 0,0 UV-I 0 W/m 0,9 C 7,0 C 8,0 km/h (2 Bft) 100,00 %
21.03.2016 18:50 6,9 C 65 % 1014,4 hPa 0,0 l/m 5,2 km/h (1 Bft) W-SW 256 0 min 0,000 mm 0,0 UV-I 0 W/m 0,8 C 6,9 C 6,4 km/h (2 Bft) 100,00 %
21.03.2016 18:51 7,0 C 65 % 1014,4 hPa 0,0 l/m 6,4 km/h (2 Bft) W-SW 245 0 min 0,000 mm 0,0 UV-I 0 W/m 0,9 C 7,0 C 9,7 km/h (2 Bft) 100,00 %
21.03.2016 18:52 6,9 C 65 % 1014,4 hPa 0,0 l/m 4,4 km/h (1 Bft) W-SW 246 0 min 0,000 mm 0,0 UV-I 0 W/m 0,8 C 6,9 C 6,4 km/h (2 Bft) 100,00 %
21.03.2016 18:53 6,9 C 65 % 1014,4 hPa 0,0 l/m 5,3 km/h (1 Bft) W-SW 253 0 min 0,000 mm 0,0 UV-I 0 W/m 0,8 C 6,9 C 6,4 km/h (2 Bft) 100,00 %
21.03.2016 18:54 6,9 C 65 % 1014,4 hPa 0,0 l/m 4,2 km/h (1 Bft) W-SW 252 0 min 0,000 mm 0,0 UV-I 0 W/m 0,8 C 6,9 C 6,4 km/h (2 Bft) 100,00 %
21.03.2016 18:55 6,9 C 65 % 1014,4 hPa 0,0 l/m 5,5 km/h (1 Bft) W-SW 248 0 min 0,000 mm 0,0 UV-I 0 W/m 0,8 C 6,9 C 6,4 km/h (2 Bft) 100,00 %
21.03.2016 18:56 6,9 C 65 % 1014,4 hPa 0,0 l/m 5,3 km/h (1 Bft) W-SW 242 0 min 0,000 mm 0,0 UV-I 0 W/m 0,8 C 6,9 C 6,4 km/h (2 Bft) 100,00 %
21.03.2016 18:57 6,8 C 65 % 1014,4 hPa 0,0 l/m 4,6 km/h (1 Bft) W-SW 250 0 min 0,000 mm 0,0 UV-I 0 W/m 0,7 C 6,8 C 8,0 km/h (2 Bft) 100,00 %
21.03.2016 18:58 6,8 C 65 % 1014,4 hPa 0,0 l/m 4,7 km/h (1 Bft) W-SW 238 0 min 0,000 mm 0,0 UV-I 0 W/m 0,7 C 6,8 C 6,4 km/h (2 Bft) 100,00 %
21.03.2016 18:59 6,8 C 66 % 1014,4 hPa 0,0 l/m 4,9 km/h (1 Bft) S-SW 204 0 min 0,000 mm 0,0 UV-I 0 W/m 0,9 C 6,8 C 8,0 km/h (2 Bft) 100,00 %
21.03.2016 19:00 6,7 C 66 % 1014,4 hPa 0,0 l/m 3,5 km/h (1 Bft) S-SW 204 0 min 0,000 mm 0,0 UV-I 0 W/m 0,8 C 6,7 C 4,8 km/h (1 Bft) 100,00 %
21.03.2016 19:01 6,7 C 66 % 1014,4 hPa 0,0 l/m 5,6 km/h (1 Bft) SW 217 0 min 0,025 mm 0,0 UV-I 0 W/m 0,8 C 6,7 C 8,0 km/h (2 Bft) 96,67 %
21.03.2016 19:02 6,6 C 66 % 1014,3 hPa 0,0 l/m 4,5 km/h (1 Bft) SW 223 0 min 0,000 mm 0,0 UV-I 0 W/m 0,7 C 6,6 C 6,4 km/h (2 Bft) 100,00 %
21.03.2016 19:03 6,6 C 66 % 1014,4 hPa 0,0 l/m 5,4 km/h (1 Bft) SW 227 0 min 0,000 mm 0,0 UV-I 0 W/m 0,7 C 6,6 C 8,0 km/h (2 Bft) 100,00 %
21.03.2016 19:04 6,6 C 67 % 1014,4 hPa 0,0 l/m 5,7 km/h (1 Bft) SW 219 0 min 0,000 mm 0,0 UV-I 0 W/m 0,9 C 6,6 C 6,4 km/h (2 Bft) 100,00 %
21.03.2016 19:05 6,5 C 67 % 1014,4 hPa 0,0 l/m 5,6 km/h (1 Bft) SW 214 0 min 0,000 mm 0,0 UV-I 0 W/m 0,8 C 6,5 C 6,4 km/h (2 Bft) 100,00 %
21.03.2016 19:06 6,5 C 67 % 1014,4 hPa 0,0 l/m 5,0 km/h (1 Bft) SW 215 0 min 0,000 mm 0,0 UV-I 0 W/m 0,8 C 6,5 C 8,0 km/h (2 Bft) 100,00 %
21.03.2016 19:07 6,5 C 67 % 1014,4 hPa 0,0 l/m 5,6 km/h (1 Bft) SW 225 0 min 0,000 mm 0,0 UV-I 0 W/m 0,8 C 6,5 C 6,4 km/h (2 Bft) 100,00 %
21.03.2016 19:08 6,4 C 67 % 1014,4 hPa 0,0 l/m 5,4 km/h (1 Bft) SW 214 0 min 0,000 mm 0,0 UV-I 0 W/m 0,7 C 6,4 C 6,4 km/h (2 Bft) 98,67 %
21.03.2016 19:09 6,4 C 67 % 1014,4 hPa 0,0 l/m 5,3 km/h (1 Bft) W-SW 238 0 min 0,000 mm 0,0 UV-I 0 W/m 0,7 C 6,4 C 6,4 km/h (2 Bft) 100,00 %
21.03.2016 19:10 6,4 C 67 % 1014,4 hPa 0,0 l/m 5,8 km/h (2 Bft) SW 220 0 min 0,000 mm 0,0 UV-I 0 W/m 0,7 C 6,4 C 8,0 km/h (2 Bft) 96,30 %
21.03.2016 19:11 6,4 C 67 % 1014,4 hPa 0,0 l/m 5,8 km/h (2 Bft) SW 217 0 min 0,000 mm 0,0 UV-I 0 W/m 0,7 C 6,4 C 8,0 km/h (2 Bft) 100,00 %
21.03.2016 19:12 6,3 C 67 % 1014,4 hPa 0,0 l/m 5,3 km/h (1 Bft) SW 228 0 min 0,000 mm 0,0 UV-I 0 W/m 0,6 C 6,3 C 6,4 km/h (2 Bft) 100,00 %
21.03.2016 19:13 6,3 C 68 % 1014,4 hPa 0,0 l/m 5,2 km/h (1 Bft) SW 236 0 min 0,000 mm 0,0 UV-I 0 W/m 0,8 C 6,3 C 6,4 km/h (2 Bft) 100,00 %
21.03.2016 19:14 6,3 C 68 % 1014,4 hPa 0,0 l/m 4,8 km/h (1 Bft) SW 236 0 min 0,000 mm 0,0 UV-I 0 W/m 0,8 C 6,3 C 6,4 km/h (2 Bft) 96,30 %
21.03.2016 19:15 6,2 C 68 % 1014,4 hPa 0,0 l/m 5,0 km/h (1 Bft) W-SW 246 0 min 0,000 mm 0,0 UV-I 0 W/m 0,7 C 6,2 C 6,4 km/h (2 Bft) 92,31 %
21.03.2016 19:16 6,2 C 68 % 1014,3 hPa 0,0 l/m 5,0 km/h (1 Bft) SW 221 0 min 0,000 mm 0,0 UV-I 0 W/m 0,7 C 6,2 C 6,4 km/h (2 Bft) 100,00 %
21.03.2016 19:17 6,2 C 68 % 1014,4 hPa 0,0 l/m 4,6 km/h (1 Bft) SW 221 0 min 0,000 mm 0,0 UV-I 0 W/m 0,7 C 6,2 C 6,4 km/h (2 Bft) 94,12 %
21.03.2016 19:18 6,2 C 68 % 1014,4 hPa 0,0 l/m 4,7 km/h (1 Bft) SW 218 0 min 0,000 mm 0,0 UV-I 0 W/m 0,7 C 6,2 C 6,4 km/h (2 Bft) 100,00 %
21.03.2016 19:19 6,2 C 69 % 1014,4 hPa 0,0 l/m 4,9 km/h (1 Bft) SW 217 0 min 0,000 mm 0,0 UV-I 0 W/m 0,9 C 6,2 C 6,4 km/h (2 Bft) 100,00 %
21.03.2016 19:20 6,1 C 68 % 1014,4 hPa 0,0 l/m 5,5 km/h (1 Bft) S-SW 200 0 min 0,000 mm 0,0 UV-I 0 W/m 0,6 C 6,1 C 6,4 km/h (2 Bft) 100,00 %
21.03.2016 19:21 6,1 C 69 % 1014,4 hPa 0,0 l/m 5,7 km/h (1 Bft) S-SW 200 0 min 0,000 mm 0,0 UV-I 0 W/m 0,8 C 6,1 C 8,0 km/h (2 Bft) 100,00 %
21.03.2016 19:22 6,1 C 69 % 1014,5 hPa 0,0 l/m 5,8 km/h (2 Bft) S 191 0 min 0,000 mm 0,0 UV-I 0 W/m 0,8 C 6,1 C 6,4 km/h (2 Bft) 100,00 %
21.03.2016 19:23 6,0 C 69 % 1014,4 hPa 0,0 l/m 5,5 km/h (1 Bft) S 191 0 min 0,000 mm 0,0 UV-I 0 W/m 0,8 C 6,0 C 6,4 km/h (2 Bft) 100,00 %
21.03.2016 19:24 5,9 C 69 % 1014,4 hPa 0,0 l/m 4,4 km/h (1 Bft) S-SW 192 0 min 0,000 mm 0,0 UV-I 0 W/m 0,7 C 5,9 C 4,8 km/h (1 Bft) 100,00 %
21.03.2016 19:25 5,8 C 70 % 1014,5 hPa 0,0 l/m 4,8 km/h (1 Bft) S-SW 192 0 min 0,000 mm 0,0 UV-I 0 W/m 0,8 C 5,8 C 6,4 km/h (2 Bft) 100,00 %
21.03.2016 19:26 5,8 C 70 % 1014,5 hPa 0,0 l/m 5,8 km/h (2 Bft) S-SW 193 0 min 0,000 mm 0,0 UV-I 0 W/m 0,8 C 5,8 C 8,0 km/h (2 Bft) 100,00 %
21.03.2016 19:27 5,7 C 71 % 1014,5 hPa 0,0 l/m 5,6 km/h (1 Bft) S-SW 194 0 min 0,000 mm 0,0 UV-I 0 W/m 0,9 C 5,7 C 8,0 km/h (2 Bft) 100,00 %
21.03.2016 19:28 5,7 C 71 % 1014,5 hPa 0,0 l/m 4,7 km/h (1 Bft) S-SW 194 0 min 0,000 mm 0,0 UV-I 0 W/m 0,9 C 5,7 C 8,0 km/h (2 Bft) 100,00 %
21.03.2016 19:29 5,7 C 71 % 1014,5 hPa 0,0 l/m 5,7 km/h (1 Bft) S-SW 196 0 min 0,000 mm 0,0 UV-I 0 W/m 0,9 C 5,7 C 6,4 km/h (2 Bft) 100,00 %
21.03.2016 19:30 5,6 C 72 % 1014,5 hPa 0,0 l/m 4,5 km/h (1 Bft) S 180 0 min 0,000 mm 0,0 UV-I 0 W/m 1,0 C 5,6 C 6,4 km/h (2 Bft) 100,00 %
21.03.2016 19:31 5,6 C 72 % 1014,5 hPa 0,0 l/m 5,2 km/h (1 Bft) S-SW 196 0 min 0,000 mm 0,0 UV-I 0 W/m 1,0 C 5,6 C 6,4 km/h (2 Bft) 100,00 %
21.03.2016 19:32 5,5 C 72 % 1014,5 hPa 0,0 l/m 5,6 km/h (1 Bft) S-SW 200 0 min 0,000 mm 0,0 UV-I 0 W/m 0,9 C 5,5 C 8,0 km/h (2 Bft) 100,00 %
21.03.2016 19:33 5,5 C 72 % 1014,5 hPa 0,0 l/m 4,6 km/h (1 Bft) S 190 0 min 0,000 mm 0,0 UV-I 0 W/m 0,9 C 5,5 C 6,4 km/h (2 Bft) 100,00 %
21.03.2016 19:34 5,4 C 72 % 1014,5 hPa 0,0 l/m 4,7 km/h (1 Bft) S 190 0 min 0,000 mm 0,0 UV-I 0 W/m 0,8 C 5,4 C 6,4 km/h (2 Bft) 100,00 %
21.03.2016 19:35 5,4 C 73 % 1014,5 hPa 0,0 l/m 4,1 km/h (1 Bft) S 189 0 min 0,000 mm 0,0 UV-I 0 W/m 1,0 C 5,4 C 4,8 km/h (1 Bft) 100,00 %
21.03.2016 19:36 5,4 C 73 % 1014,5 hPa 0,0 l/m 4,3 km/h (1 Bft) S 189 0 min 0,000 mm 0,0 UV-I 0 W/m 1,0 C 5,4 C 4,8 km/h (1 Bft) 100,00 %
21.03.2016 19:37 5,4 C 73 % 1014,5 hPa 0,0 l/m 4,2 km/h (1 Bft) S 189 0 min 0,000 mm 0,0 UV-I 0 W/m 1,0 C 5,4 C 4,8 km/h (1 Bft) 95,83 %
21.03.2016 19:38 5,4 C 73 % 1014,5 hPa 0,0 l/m 5,6 km/h (1 Bft) S 189 0 min 0,000 mm 0,0 UV-I 0 W/m 1,0 C 5,4 C 6,4 km/h (2 Bft) 100,00 %
21.03.2016 19:39 5,4 C 72 % 1014,5 hPa 0,0 l/m 5,0 km/h (1 Bft) S-SW 199 0 min 0,000 mm 0,0 UV-I 0 W/m 0,8 C 5,4 C 6,4 km/h (2 Bft) 100,00 %
21.03.2016 19:40 5,4 C 72 % 1014,5 hPa 0,0 l/m 5,8 km/h (2 Bft) S 185 0 min 0,000 mm 0,0 UV-I 0 W/m 0,8 C 5,4 C 6,4 km/h (2 Bft) 100,00 %
21.03.2016 19:41 5,5 C 72 % 1014,5 hPa 0,0 l/m 5,8 km/h (2 Bft) S-SW 201 0 min 0,000 mm 0,0 UV-I 0 W/m 0,9 C 5,5 C 8,0 km/h (2 Bft) 100,00 %
21.03.2016 19:42 5,5 C 72 % 1014,5 hPa 0,0 l/m 5,4 km/h (1 Bft) S 190 0 min 0,000 mm 0,0 UV-I 0 W/m 0,9 C 5,5 C 6,4 km/h (2 Bft) 100,00 %
21.03.2016 19:43 5,5 C 72 % 1014,5 hPa 0,0 l/m 6,1 km/h (2 Bft) S-SW 195 0 min 0,000 mm 0,0 UV-I 0 W/m 0,9 C 5,5 C 8,0 km/h (2 Bft) 96,55 %
21.03.2016 19:44 5,5 C 72 % 1014,5 hPa 0,0 l/m 6,1 km/h (2 Bft) S 183 0 min 0,000 mm 0,0 UV-I 0 W/m 0,9 C 5,5 C 8,0 km/h (2 Bft) 100,00 %
21.03.2016 19:45 5,6 C 72 % 1014,5 hPa 0,0 l/m 7,0 km/h (2 Bft) S 188 0 min 0,000 mm 0,0 UV-I 0 W/m 1,0 C 5,1 C 8,0 km/h (2 Bft) 100,00 %
21.03.2016 19:46 5,6 C 72 % 1014,5 hPa 0,0 l/m 6,4 km/h (2 Bft) S 189 0 min 0,000 mm 0,0 UV-I 0 W/m 1,0 C 5,6 C 8,0 km/h (2 Bft) 100,00 %
21.03.2016 19:47 5,6 C 72 % 1014,6 hPa 0,0 l/m 7,3 km/h (2 Bft) S-SW 198 0 min 0,000 mm 0,0 UV-I 0 W/m 1,0 C 4,8 C 9,7 km/h (2 Bft) 100,00 %
21.03.2016 19:48 5,6 C 72 % 1014,6 hPa 0,0 l/m 6,6 km/h (2 Bft) S 187 0 min 0,000 mm 0,0 UV-I 0 W/m 1,0 C 5,4 C 8,0 km/h (2 Bft) 100,00 %
21.03.2016 19:49 5,6 C 72 % 1014,6 hPa 0,0 l/m 6,2 km/h (2 Bft) S-SW 194 0 min 0,000 mm 0,0 UV-I 0 W/m 1,0 C 5,6 C 8,0 km/h (2 Bft) 100,00 %
21.03.2016 19:50 5,6 C 72 % 1014,6 hPa 0,0 l/m 7,6 km/h (2 Bft) SW 219 0 min 0,000 mm 0,0 UV-I 0 W/m 1,0 C 4,6 C 9,7 km/h (2 Bft) 100,00 %
21.03.2016 19:51 5,6 C 72 % 1014,6 hPa 0,0 l/m 6,0 km/h (2 Bft) SW 227 0 min 0,000 mm 0,0 UV-I 0 W/m 1,0 C 5,6 C 9,7 km/h (2 Bft) 100,00 %
21.03.2016 19:52 5,6 C 73 % 1014,6 hPa 0,0 l/m 6,0 km/h (2 Bft) S 188 0 min 0,000 mm 0,0 UV-I 0 W/m 1,2 C 5,6 C 9,7 km/h (2 Bft) 96,30 %
21.03.2016 19:53 5,6 C 73 % 1014,6 hPa 0,0 l/m 6,8 km/h (2 Bft) S 190 0 min 0,000 mm 0,0 UV-I 0 W/m 1,2 C 5,3 C 9,7 km/h (2 Bft) 100,00 %
21.03.2016 19:54 5,6 C 73 % 1014,7 hPa 0,0 l/m 5,3 km/h (1 Bft) S-SW 196 0 min 0,000 mm 0,0 UV-I 0 W/m 1,2 C 5,6 C 6,4 km/h (2 Bft) 100,00 %
21.03.2016 19:55 5,6 C 73 % 1014,7 hPa 0,0 l/m 7,0 km/h (2 Bft) S-SW 198 0 min 0,000 mm 0,0 UV-I 0 W/m 1,2 C 5,1 C 9,7 km/h (2 Bft) 100,00 %
21.03.2016 19:56 5,6 C 73 % 1014,6 hPa 0,0 l/m 7,8 km/h (2 Bft) S-SW 192 0 min 0,000 mm 0,0 UV-I 0 W/m 1,2 C 4,4 C 9,7 km/h (2 Bft) 100,00 %
21.03.2016 19:57 5,6 C 73 % 1014,7 hPa 0,0 l/m 8,0 km/h (2 Bft) S 184 0 min 0,000 mm 0,0 UV-I 0 W/m 1,2 C 4,2 C 11,3 km/h (2 Bft) 100,00 %
21.03.2016 19:58 5,6 C 73 % 1014,7 hPa 0,0 l/m 6,2 km/h (2 Bft) S-SW 197 0 min 0,000 mm 0,0 UV-I 0 W/m 1,2 C 5,6 C 11,3 km/h (2 Bft) 95,83 %
21.03.2016 19:59 5,6 C 73 % 1014,6 hPa 0,0 l/m 7,2 km/h (2 Bft) S-SW 196 0 min 0,000 mm 0,0 UV-I 0 W/m 1,2 C 4,9 C 8,0 km/h (2 Bft) 100,00 %
21.03.2016 20:00 5,6 C 73 % 1014,7 hPa 0,0 l/m 8,1 km/h (2 Bft) S-SW 193 0 min 0,000 mm 0,0 UV-I 0 W/m 1,2 C 4,2 C 12,9 km/h (3 Bft) 100,00 %
21.03.2016 20:01 5,6 C 73 % 1014,7 hPa 0,0 l/m 8,3 km/h (2 Bft) SW 235 0 min 0,026 mm 0,0 UV-I 0 W/m 1,2 C 4,0 C 11,3 km/h (2 Bft) 100,00 %
21.03.2016 20:02 5,6 C 72 % 1014,7 hPa 0,0 l/m 6,0 km/h (2 Bft) SW 224 0 min 0,000 mm 0,0 UV-I 0 W/m 1,0 C 5,6 C 11,3 km/h (2 Bft) 100,00 %
21.03.2016 20:03 5,6 C 73 % 1014,7 hPa 0,0 l/m 6,9 km/h (2 Bft) SW 215 0 min 0,000 mm 0,0 UV-I 0 W/m 1,2 C 5,2 C 8,0 km/h (2 Bft) 100,00 %
21.03.2016 20:04 5,7 C 73 % 1014,7 hPa 0,0 l/m 5,4 km/h (1 Bft) S-SW 213 0 min 0,000 mm 0,0 UV-I 0 W/m 1,2 C 5,7 C 9,7 km/h (2 Bft) 100,00 %
21.03.2016 20:05 5,7 C 73 % 1014,7 hPa 0,0 l/m 8,9 km/h (2 Bft) S-SW 195 0 min 0,000 mm 0,0 UV-I 0 W/m 1,2 C 3,6 C 11,3 km/h (2 Bft) 100,00 %
21.03.2016 20:06 5,7 C 72 % 1014,7 hPa 0,0 l/m 5,9 km/h (2 Bft) SW 219 0 min 0,000 mm 0,0 UV-I 0 W/m 1,1 C 5,7 C 8,0 km/h (2 Bft) 100,00 %
21.03.2016 20:07 5,7 C 72 % 1014,7 hPa 0,0 l/m 6,2 km/h (2 Bft) SW 226 0 min 0,000 mm 0,0 UV-I 0 W/m 1,1 C 5,7 C 8,0 km/h (2 Bft) 95,83 %
21.03.2016 20:08 5,7 C 72 % 1014,7 hPa 0,0 l/m 6,7 km/h (2 Bft) S 186 0 min 0,000 mm 0,0 UV-I 0 W/m 1,1 C 5,5 C 9,7 km/h (2 Bft) 100,00 %
21.03.2016 20:09 5,7 C 72 % 1014,7 hPa 0,0 l/m 6,0 km/h (2 Bft) S-SW 209 0 min 0,000 mm 0,0 UV-I 0 W/m 1,1 C 5,7 C 6,4 km/h (2 Bft) 95,83 %
21.03.2016 20:10 5,7 C 72 % 1014,6 hPa 0,0 l/m 6,6 km/h (2 Bft) S 190 0 min 0,000 mm 0,0 UV-I 0 W/m 1,1 C 5,6 C 8,0 km/h (2 Bft) 96,55 %
21.03.2016 20:11 5,7 C 72 % 1014,7 hPa 0,0 l/m 4,2 km/h (1 Bft) SW 215 0 min 0,000 mm 0,0 UV-I 0 W/m 1,1 C 5,7 C 6,4 km/h (2 Bft) 100,00 %
21.03.2016 20:12 5,7 C 72 % 1014,7 hPa 0,0 l/m 5,1 km/h (1 Bft) S-SW 200 0 min 0,000 mm 0,0 UV-I 0 W/m 1,1 C 5,7 C 8,0 km/h (2 Bft) 96,15 %
21.03.2016 20:13 5,7 C 72 % 1014,6 hPa 0,0 l/m 6,9 km/h (2 Bft) S-SW 204 0 min 0,000 mm 0,0 UV-I 0 W/m 1,1 C 5,3 C 9,7 km/h (2 Bft) 100,00 %
21.03.2016 20:14 5,7 C 72 % 1014,6 hPa 0,0 l/m 5,9 km/h (2 Bft) SW 221 0 min 0,000 mm 0,0 UV-I 0 W/m 1,1 C 5,7 C 6,4 km/h (2 Bft) 95,65 %
21.03.2016 20:15 5,7 C 72 % 1014,6 hPa 0,0 l/m 6,2 km/h (2 Bft) S-SW 205 0 min 0,000 mm 0,0 UV-I 0 W/m 1,1 C 5,7 C 8,0 km/h (2 Bft) 100,00 %
21.03.2016 20:16 5,7 C 73 % 1014,6 hPa 0,0 l/m 6,8 km/h (2 Bft) SW 217 0 min 0,000 mm 0,0 UV-I 0 W/m 1,2 C 5,4 C 9,7 km/h (2 Bft) 98,70 %
21.03.2016 20:17 5,7 C 73 % 1014,6 hPa 0,0 l/m 7,5 km/h (2 Bft) S-SW 201 0 min 0,000 mm 0,0 UV-I 0 W/m 1,2 C 4,8 C 9,7 km/h (2 Bft) 97,73 %
21.03.2016 20:18 5,6 C 73 % 1014,6 hPa 0,0 l/m 6,9 km/h (2 Bft) S-SW 201 0 min 0,000 mm 0,0 UV-I 0 W/m 1,2 C 5,2 C 8,0 km/h (2 Bft) 96,15 %
21.03.2016 20:19 5,6 C 73 % 1014,6 hPa 0,0 l/m 8,4 km/h (2 Bft) S-SW 210 0 min 0,000 mm 0,0 UV-I 0 W/m 1,2 C 3,9 C 11,3 km/h (2 Bft) 96,30 %
21.03.2016 20:20 5,6 C 73 % 1014,6 hPa 0,0 l/m 8,8 km/h (2 Bft) S-SW 211 0 min 0,000 mm 0,0 UV-I 0 W/m 1,2 C 3,6 C 12,9 km/h (3 Bft) 100,00 %
21.03.2016 20:21 5,6 C 73 % 1014,6 hPa 0,0 l/m 5,8 km/h (2 Bft) S-SW 196 0 min 0,000 mm 0,0 UV-I 0 W/m 1,2 C 5,6 C 9,7 km/h (2 Bft) 92,86 %
21.03.2016 20:22 5,6 C 73 % 1014,6 hPa 0,0 l/m 5,8 km/h (2 Bft) S-SW 213 0 min 0,000 mm 0,0 UV-I 0 W/m 1,2 C 5,6 C 8,0 km/h (2 Bft) 100,00 %
21.03.2016 20:23 5,6 C 73 % 1014,6 hPa 0,0 l/m 7,5 km/h (2 Bft) W-SW 246 0 min 0,000 mm 0,0 UV-I 0 W/m 1,2 C 4,6 C 9,7 km/h (2 Bft) 92,31 %
21.03.2016 20:24 5,6 C 73 % 1014,6 hPa 0,0 l/m 5,4 km/h (1 Bft) SW 215 0 min 0,000 mm 0,0 UV-I 0 W/m 1,2 C 5,6 C 8,0 km/h (2 Bft) 100,00 %
21.03.2016 20:25 5,6 C 73 % 1014,6 hPa 0,0 l/m 4,6 km/h (1 Bft) SW 218 0 min 0,000 mm 0,0 UV-I 0 W/m 1,2 C 5,6 C 6,4 km/h (2 Bft) 96,15 %
21.03.2016 20:26 5,6 C 73 % 1014,6 hPa 0,0 l/m 5,6 km/h (1 Bft) S-SW 210 0 min 0,000 mm 0,0 UV-I 0 W/m 1,2 C 5,6 C 11,3 km/h (2 Bft) 100,00 %
21.03.2016 20:27 5,6 C 73 % 1014,6 hPa 0,0 l/m 5,5 km/h (1 Bft) S-SW 203 0 min 0,000 mm 0,0 UV-I 0 W/m 1,2 C 5,6 C 6,4 km/h (2 Bft) 95,65 %
21.03.2016 20:28 5,6 C 73 % 1014,6 hPa 0,0 l/m 6,7 km/h (2 Bft) SW 224 0 min 0,000 mm 0,0 UV-I 0 W/m 1,2 C 5,4 C 9,7 km/h (2 Bft) 96,30 %
21.03.2016 20:29 5,6 C 73 % 1014,6 hPa 0,0 l/m 6,4 km/h (2 Bft) S-SW 204 0 min 0,000 mm 0,0 UV-I 0 W/m 1,2 C 5,6 C 8,0 km/h (2 Bft) 100,00 %
21.03.2016 20:30 5,6 C 73 % 1014,6 hPa 0,0 l/m 6,3 km/h (2 Bft) SW 221 0 min 0,000 mm 0,0 UV-I 0 W/m 1,2 C 5,6 C 8,0 km/h (2 Bft) 91,67 %
21.03.2016 20:31 5,6 C 73 % 1014,6 hPa 0,0 l/m 6,1 km/h (2 Bft) S-SW 209 0 min 0,000 mm 0,0 UV-I 0 W/m 1,2 C 5,6 C 8,0 km/h (2 Bft) 100,00 %
21.03.2016 20:32 5,6 C 73 % 1014,6 hPa 0,0 l/m 7,9 km/h (2 Bft) S-SW 202 0 min 0,000 mm 0,0 UV-I 0 W/m 1,2 C 4,3 C 9,7 km/h (2 Bft) 96,67 %
21.03.2016 20:33 5,6 C 73 % 1014,6 hPa 0,0 l/m 7,0 km/h (2 Bft) SW 227 0 min 0,000 mm 0,0 UV-I 0 W/m 1,2 C 5,1 C 11,3 km/h (2 Bft) 100,00 %
21.03.2016 20:34 5,5 C 74 % 1014,5 hPa 0,0 l/m 6,9 km/h (2 Bft) S-SW 200 0 min 0,000 mm 0,0 UV-I 0 W/m 1,2 C 5,1 C 9,7 km/h (2 Bft) 96,97 %
21.03.2016 20:35 5,5 C 74 % 1014,6 hPa 0,0 l/m 8,3 km/h (2 Bft) S 182 0 min 0,000 mm 0,0 UV-I 0 W/m 1,2 C 3,9 C 9,7 km/h (2 Bft) 96,15 %
21.03.2016 20:36 5,4 C 74 % 1014,5 hPa 0,0 l/m 5,7 km/h (1 Bft) SW 217 0 min 0,000 mm 0,0 UV-I 0 W/m 1,1 C 5,4 C 11,3 km/h (2 Bft) 100,00 %
21.03.2016 20:37 5,4 C 74 % 1014,5 hPa 0,0 l/m 8,1 km/h (2 Bft) S 178 0 min 0,000 mm 0,0 UV-I 0 W/m 1,1 C 3,9 C 11,3 km/h (2 Bft) 93,75 %
21.03.2016 20:38 5,4 C 74 % 1014,5 hPa 0,0 l/m 9,6 km/h (2 Bft) S 185 0 min 0,000 mm 0,0 UV-I 0 W/m 1,1 C 2,8 C 12,9 km/h (3 Bft) 100,00 %
21.03.2016 20:39 5,4 C 74 % 1014,5 hPa 0,0 l/m 6,8 km/h (2 Bft) SW 236 0 min 0,000 mm 0,0 UV-I 0 W/m 1,1 C 5,1 C 9,7 km/h (2 Bft) 93,33 %
21.03.2016 20:40 5,5 C 74 % 1014,5 hPa 0,0 l/m 5,5 km/h (1 Bft) SW 218 0 min 0,000 mm 0,0 UV-I 0 W/m 1,2 C 5,5 C 8,0 km/h (2 Bft) 100,00 %
21.03.2016 20:41 5,5 C 74 % 1014,5 hPa 0,0 l/m 6,0 km/h (2 Bft) S 182 0 min 0,000 mm 0,0 UV-I 0 W/m 1,2 C 5,5 C 9,7 km/h (2 Bft) 96,30 %
21.03.2016 20:42 5,5 C 74 % 1014,5 hPa 0,0 l/m 6,8 km/h (2 Bft) SW 216 0 min 0,000 mm 0,0 UV-I 0 W/m 1,2 C 5,2 C 9,7 km/h (2 Bft) 95,65 %
21.03.2016 20:43 5,6 C 74 % 1014,5 hPa 0,0 l/m 6,4 km/h (2 Bft) S-SW 198 0 min 0,000 mm 0,0 UV-I 0 W/m 1,3 C 5,6 C 11,3 km/h (2 Bft) 95,83 %
21.03.2016 20:44 5,6 C 74 % 1014,5 hPa 0,0 l/m 7,1 km/h (2 Bft) S-SW 195 0 min 0,000 mm 0,0 UV-I 0 W/m 1,3 C 5,0 C 11,3 km/h (2 Bft) 100,00 %
21.03.2016 20:45 5,6 C 74 % 1014,5 hPa 0,0 l/m 6,3 km/h (2 Bft) S-SW 203 0 min 0,000 mm 0,0 UV-I 0 W/m 1,3 C 5,6 C 11,3 km/h (2 Bft) 100,00 %
21.03.2016 20:46 5,6 C 74 % 1014,5 hPa 0,0 l/m 8,4 km/h (2 Bft) S-SW 196 0 min 0,000 mm 0,0 UV-I 0 W/m 1,3 C 3,9 C 11,3 km/h (2 Bft) 100,00 %
21.03.2016 20:47 5,7 C 74 % 1014,5 hPa 0,0 l/m 6,7 km/h (2 Bft) S-SW 192 0 min 0,000 mm 0,0 UV-I 0 W/m 1,4 C 5,5 C 8,0 km/h (2 Bft) 100,00 %
21.03.2016 20:48 5,7 C 74 % 1014,5 hPa 0,0 l/m 7,9 km/h (2 Bft) S-SW 202 0 min 0,000 mm 0,0 UV-I 0 W/m 1,4 C 4,4 C 12,9 km/h (3 Bft) 100,00 %
21.03.2016 20:49 5,7 C 74 % 1014,5 hPa 0,0 l/m 9,2 km/h (2 Bft) SW 231 0 min 0,000 mm 0,0 UV-I 0 W/m 1,4 C 3,4 C 12,9 km/h (3 Bft) 100,00 %
21.03.2016 20:50 5,7 C 74 % 1014,5 hPa 0,0 l/m 7,1 km/h (2 Bft) S-SW 207 0 min 0,000 mm 0,0 UV-I 0 W/m 1,4 C 5,1 C 14,5 km/h (3 Bft) 96,15 %
21.03.2016 20:51 5,7 C 74 % 1014,5 hPa 0,0 l/m 7,0 km/h (2 Bft) S-SW 205 0 min 0,000 mm 0,0 UV-I 0 W/m 1,4 C 5,2 C 11,3 km/h (2 Bft) 100,00 %
21.03.2016 20:52 5,6 C 74 % 1014,5 hPa 0,0 l/m 6,9 km/h (2 Bft) SW 227 0 min 0,000 mm 0,0 UV-I 0 W/m 1,3 C 5,2 C 11,3 km/h (2 Bft) 100,00 %
21.03.2016 20:53 5,6 C 74 % 1014,5 hPa 0,0 l/m 8,4 km/h (2 Bft) S-SW 211 0 min 0,000 mm 0,0 UV-I 0 W/m 1,3 C 3,9 C 11,3 km/h (2 Bft) 100,00 %
21.03.2016 20:54 5,7 C 74 % 1014,5 hPa 0,0 l/m 7,8 km/h (2 Bft) SW 216 0 min 0,000 mm 0,0 UV-I 0 W/m 1,4 C 4,5 C 9,7 km/h (2 Bft) 100,00 %
21.03.2016 20:55 5,7 C 74 % 1014,5 hPa 0,0 l/m 7,9 km/h (2 Bft) SW 232 0 min 0,000 mm 0,0 UV-I 0 W/m 1,4 C 4,4 C 11,3 km/h (2 Bft) 100,00 %
21.03.2016 20:56 5,7 C 74 % 1014,5 hPa 0,0 l/m 7,1 km/h (2 Bft) SW 215 0 min 0,000 mm 0,0 UV-I 0 W/m 1,4 C 5,1 C 9,7 km/h (2 Bft) 100,00 %
21.03.2016 20:57 5,7 C 74 % 1014,5 hPa 0,0 l/m 8,2 km/h (2 Bft) S 184 0 min 0,000 mm 0,0 UV-I 0 W/m 1,4 C 4,2 C 9,7 km/h (2 Bft) 100,00 %
21.03.2016 20:58 5,7 C 74 % 1014,5 hPa 0,0 l/m 10,2 km/h (2 Bft) S-SW 192 0 min 0,000 mm 0,0 UV-I 0 W/m 1,4 C 2,7 C 12,9 km/h (3 Bft) 100,00 %
21.03.2016 20:59 5,7 C 74 % 1014,5 hPa 0,0 l/m 9,4 km/h (2 Bft) S-SW 194 0 min 0,000 mm 0,0 UV-I 0 W/m 1,4 C 3,3 C 12,9 km/h (3 Bft) 100,00 %
21.03.2016 21:00 5,7 C 74 % 1014,5 hPa 0,0 l/m 8,0 km/h (2 Bft) S-SW 192 0 min 0,000 mm 0,0 UV-I 0 W/m 1,4 C 4,3 C 16,1 km/h (3 Bft) 100,00 %
21.03.2016 21:02 5,7 C 74 % 1014,5 hPa 0,0 l/m 8,4 km/h (2 Bft) W-SW 238 0 min 0,025 mm 0,0 UV-I 0 W/m 1,4 C 4,0 C 12,9 km/h (3 Bft) 98,04 %
21.03.2016 21:03 5,8 C 74 % 1014,5 hPa 0,0 l/m 8,7 km/h (2 Bft) SW 221 0 min 0,000 mm 0,0 UV-I 0 W/m 1,5 C 3,9 C 12,9 km/h (3 Bft) 100,00 %
21.03.2016 21:04 5,8 C 74 % 1014,5 hPa 0,0 l/m 7,0 km/h (2 Bft) W-SW 248 0 min 0,000 mm 0,0 UV-I 0 W/m 1,5 C 5,3 C 11,3 km/h (2 Bft) 98,67 %
21.03.2016 21:05 5,8 C 74 % 1014,5 hPa 0,0 l/m 7,6 km/h (2 Bft) SW 221 0 min 0,000 mm 0,0 UV-I 0 W/m 1,5 C 4,8 C 11,3 km/h (2 Bft) 100,00 %
21.03.2016 21:06 5,8 C 75 % 1014,5 hPa 0,0 l/m 8,2 km/h (2 Bft) SW 236 0 min 0,000 mm 0,0 UV-I 0 W/m 1,7 C 4,3 C 11,3 km/h (2 Bft) 100,00 %
21.03.2016 21:07 5,7 C 75 % 1014,5 hPa 0,0 l/m 8,0 km/h (2 Bft) SW 223 0 min 0,000 mm 0,0 UV-I 0 W/m 1,6 C 4,3 C 11,3 km/h (2 Bft) 100,00 %
21.03.2016 21:08 5,7 C 75 % 1014,5 hPa 0,0 l/m 7,2 km/h (2 Bft) S 191 0 min 0,000 mm 0,0 UV-I 0 W/m 1,6 C 5,0 C 9,7 km/h (2 Bft) 100,00 %
21.03.2016 21:09 5,7 C 75 % 1014,5 hPa 0,0 l/m 7,0 km/h (2 Bft) S-SW 211 0 min 0,000 mm 0,0 UV-I 0 W/m 1,6 C 5,2 C 11,3 km/h (2 Bft) 95,65 %
21.03.2016 21:10 5,7 C 75 % 1014,5 hPa 0,0 l/m 8,1 km/h (2 Bft) SW 215 0 min 0,000 mm 0,0 UV-I 0 W/m 1,6 C 4,3 C 9,7 km/h (2 Bft) 100,00 %
21.03.2016 21:11 5,7 C 75 % 1014,5 hPa 0,0 l/m 8,0 km/h (2 Bft) S-SW 209 0 min 0,000 mm 0,0 UV-I 0 W/m 1,6 C 4,3 C 11,3 km/h (2 Bft) 100,00 %
21.03.2016 21:12 5,7 C 75 % 1014,5 hPa 0,0 l/m 9,1 km/h (2 Bft) W-SW 245 0 min 0,000 mm 0,0 UV-I 0 W/m 1,6 C 3,5 C 12,9 km/h (3 Bft) 98,68 %
21.03.2016 21:13 5,7 C 75 % 1014,5 hPa 0,0 l/m 6,8 km/h (2 Bft) W-SW 248 0 min 0,000 mm 0,0 UV-I 0 W/m 1,6 C 5,4 C 11,3 km/h (2 Bft) 100,00 %
21.03.2016 21:14 5,7 C 75 % 1014,5 hPa 0,0 l/m 6,5 km/h (2 Bft) S-SW 208 0 min 0,000 mm 0,0 UV-I 0 W/m 1,6 C 5,6 C 8,0 km/h (2 Bft) 100,00 %
21.03.2016 21:15 5,7 C 75 % 1014,5 hPa 0,0 l/m 6,5 km/h (2 Bft) SW 217 0 min 0,000 mm 0,0 UV-I 0 W/m 1,6 C 5,6 C 9,7 km/h (2 Bft) 98,69 %
21.03.2016 21:16 5,7 C 75 % 1014,5 hPa 0,0 l/m 6,6 km/h (2 Bft) S-SW 205 0 min 0,000 mm 0,0 UV-I 0 W/m 1,6 C 5,6 C 8,0 km/h (2 Bft) 97,73 %
21.03.2016 21:17 5,7 C 75 % 1014,5 hPa 0,0 l/m 8,5 km/h (2 Bft) SW 219 0 min 0,000 mm 0,0 UV-I 0 W/m 1,6 C 3,9 C 16,1 km/h (3 Bft) 100,00 %
21.03.2016 21:18 5,7 C 75 % 1014,5 hPa 0,0 l/m 8,2 km/h (2 Bft) SW 217 0 min 0,000 mm 0,0 UV-I 0 W/m 1,6 C 4,2 C 11,3 km/h (2 Bft) 100,00 %
21.03.2016 21:19 5,7 C 75 % 1014,5 hPa 0,0 l/m 8,9 km/h (2 Bft) SW 225 0 min 0,000 mm 0,0 UV-I 0 W/m 1,6 C 3,6 C 12,9 km/h (3 Bft) 100,00 %
21.03.2016 21:20 5,7 C 75 % 1014,5 hPa 0,0 l/m 8,0 km/h (2 Bft) W-SW 244 0 min 0,000 mm 0,0 UV-I 0 W/m 1,6 C 4,3 C 12,9 km/h (3 Bft) 100,00 %
21.03.2016 21:21 5,7 C 75 % 1014,5 hPa 0,0 l/m 9,5 km/h (2 Bft) W-SW 252 0 min 0,000 mm 0,0 UV-I 0 W/m 1,6 C 3,2 C 12,9 km/h (3 Bft) 100,00 %
21.03.2016 21:22 5,7 C 76 % 1014,5 hPa 0,0 l/m 9,5 km/h (2 Bft) W-SW 248 0 min 0,000 mm 0,0 UV-I 0 W/m 1,8 C 3,2 C 12,9 km/h (3 Bft) 100,00 %
21.03.2016 21:23 5,7 C 76 % 1014,5 hPa 0,0 l/m 8,5 km/h (2 Bft) S-SW 209 0 min 0,000 mm 0,0 UV-I 0 W/m 1,8 C 3,9 C 11,3 km/h (2 Bft) 100,00 %
21.03.2016 21:24 5,6 C 76 % 1014,5 hPa 0,0 l/m 7,9 km/h (2 Bft) SW 236 0 min 0,000 mm 0,0 UV-I 0 W/m 1,7 C 4,3 C 11,3 km/h (2 Bft) 100,00 %
21.03.2016 21:25 5,6 C 76 % 1014,4 hPa 0,0 l/m 7,4 km/h (2 Bft) W-SW 238 0 min 0,000 mm 0,0 UV-I 0 W/m 1,7 C 4,7 C 11,3 km/h (2 Bft) 100,00 %
21.03.2016 21:26 5,6 C 76 % 1014,5 hPa 0,0 l/m 7,9 km/h (2 Bft) SW 221 0 min 0,000 mm 0,0 UV-I 0 W/m 1,7 C 4,3 C 11,3 km/h (2 Bft) 100,00 %
21.03.2016 21:27 5,6 C 76 % 1014,4 hPa 0,0 l/m 9,4 km/h (2 Bft) W-SW 247 0 min 0,000 mm 0,0 UV-I 0 W/m 1,7 C 3,2 C 14,5 km/h (3 Bft) 100,00 %
21.03.2016 21:28 5,5 C 76 % 1014,5 hPa 0,0 l/m 8,4 km/h (2 Bft) SW 236 0 min 0,000 mm 0,0 UV-I 0 W/m 1,6 C 3,8 C 11,3 km/h (2 Bft) 100,00 %
21.03.2016 21:29 5,5 C 77 % 1014,5 hPa 0,0 l/m 7,6 km/h (2 Bft) SW 225 0 min 0,000 mm 0,0 UV-I 0 W/m 1,8 C 4,5 C 11,3 km/h (2 Bft) 100,00 %
21.03.2016 21:30 5,4 C 77 % 1014,4 hPa 0,0 l/m 7,4 km/h (2 Bft) SW 227 0 min 0,000 mm 0,0 UV-I 0 W/m 1,7 C 4,5 C 11,3 km/h (2 Bft) 100,00 %
21.03.2016 21:31 5,4 C 77 % 1014,4 hPa 0,0 l/m 9,2 km/h (2 Bft) SW 234 0 min 0,000 mm 0,0 UV-I 0 W/m 1,7 C 3,1 C 12,9 km/h (3 Bft) 100,00 %
21.03.2016 21:32 5,4 C 77 % 1014,4 hPa 0,0 l/m 9,2 km/h (2 Bft) SW 229 0 min 0,000 mm 0,0 UV-I 0 W/m 1,7 C 3,1 C 12,9 km/h (3 Bft) 100,00 %
21.03.2016 21:33 5,4 C 77 % 1014,4 hPa 0,0 l/m 8,5 km/h (2 Bft) SW 224 0 min 0,000 mm 0,0 UV-I 0 W/m 1,7 C 3,6 C 9,7 km/h (2 Bft) 100,00 %
21.03.2016 21:34 5,4 C 77 % 1014,4 hPa 0,0 l/m 8,2 km/h (2 Bft) W-SW 244 0 min 0,000 mm 0,0 UV-I 0 W/m 1,7 C 3,9 C 11,3 km/h (2 Bft) 96,15 %
21.03.2016 21:35 5,4 C 77 % 1014,4 hPa 0,0 l/m 8,0 km/h (2 Bft) SW 226 0 min 0,000 mm 0,0 UV-I 0 W/m 1,7 C 4,0 C 11,3 km/h (2 Bft) 100,00 %
21.03.2016 21:36 5,3 C 77 % 1014,4 hPa 0,0 l/m 6,7 km/h (2 Bft) S-SW 206 0 min 0,000 mm 0,0 UV-I 0 W/m 1,6 C 5,1 C 8,0 km/h (2 Bft) 100,00 %
21.03.2016 21:37 5,3 C 77 % 1014,5 hPa 0,0 l/m 5,8 km/h (2 Bft) W-SW 240 0 min 0,000 mm 0,0 UV-I 0 W/m 1,6 C 5,3 C 8,0 km/h (2 Bft) 100,00 %
21.03.2016 21:38 5,3 C 77 % 1014,4 hPa 0,0 l/m 7,2 km/h (2 Bft) SW 226 0 min 0,000 mm 0,0 UV-I 0 W/m 1,6 C 4,6 C 9,7 km/h (2 Bft) 100,00 %
21.03.2016 21:39 5,3 C 78 % 1014,5 hPa 0,0 l/m 6,3 km/h (2 Bft) SW 229 0 min 0,000 mm 0,0 UV-I 0 W/m 1,8 C 5,3 C 9,7 km/h (2 Bft) 100,00 %
21.03.2016 21:40 5,3 C 78 % 1014,4 hPa 0,0 l/m 8,4 km/h (2 Bft) W-SW 238 0 min 0,000 mm 0,0 UV-I 0 W/m 1,8 C 3,6 C 12,9 km/h (3 Bft) 92,31 %
21.03.2016 21:41 5,3 C 78 % 1014,4 hPa 0,0 l/m 7,6 km/h (2 Bft) SW 231 0 min 0,000 mm 0,0 UV-I 0 W/m 1,8 C 4,3 C 11,3 km/h (2 Bft) 100,00 %
21.03.2016 21:42 5,3 C 78 % 1014,4 hPa 0,0 l/m 8,3 km/h (2 Bft) W-SW 242 0 min 0,000 mm 0,0 UV-I 0 W/m 1,8 C 3,7 C 11,3 km/h (2 Bft) 100,00 %
21.03.2016 21:43 5,3 C 78 % 1014,4 hPa 0,0 l/m 9,9 km/h (2 Bft) SW 218 0 min 0,000 mm 0,0 UV-I 0 W/m 1,8 C 2,5 C 14,5 km/h (3 Bft) 100,00 %
21.03.2016 21:44 5,3 C 77 % 1014,4 hPa 0,0 l/m 6,4 km/h (2 Bft) SW 236 0 min 0,000 mm 0,0 UV-I 0 W/m 1,6 C 5,3 C 8,0 km/h (2 Bft) 100,00 %
21.03.2016 21:45 5,3 C 78 % 1014,5 hPa 0,0 l/m 6,6 km/h (2 Bft) SW 219 0 min 0,000 mm 0,0 UV-I 0 W/m 1,8 C 5,1 C 11,3 km/h (2 Bft) 100,00 %
21.03.2016 21:46 5,3 C 78 % 1014,4 hPa 0,0 l/m 7,8 km/h (2 Bft) W-SW 251 0 min 0,000 mm 0,0 UV-I 0 W/m 1,8 C 4,1 C 14,5 km/h (3 Bft) 100,00 %
21.03.2016 21:47 5,3 C 77 % 1014,4 hPa 0,0 l/m 9,5 km/h (2 Bft) SW 227 0 min 0,000 mm 0,0 UV-I 0 W/m 1,6 C 2,8 C 14,5 km/h (3 Bft) 100,00 %
21.03.2016 21:48 5,3 C 78 % 1014,4 hPa 0,0 l/m 9,9 km/h (2 Bft) W-SW 244 0 min 0,000 mm 0,0 UV-I 0 W/m 1,8 C 2,5 C 12,9 km/h (3 Bft) 100,00 %
21.03.2016 21:49 5,3 C 78 % 1014,4 hPa 0,0 l/m 10,5 km/h (2 Bft) SW 223 0 min 0,000 mm 0,0 UV-I 0 W/m 1,8 C 2,1 C 14,5 km/h (3 Bft) 100,00 %
21.03.2016 21:50 5,3 C 77 % 1014,4 hPa 0,0 l/m 10,7 km/h (2 Bft) SW 228 0 min 0,000 mm 0,0 UV-I 0 W/m 1,6 C 1,9 C 14,5 km/h (3 Bft) 100,00 %
21.03.2016 21:51 5,4 C 77 % 1014,4 hPa 0,0 l/m 8,9 km/h (2 Bft) SW 226 0 min 0,000 mm 0,0 UV-I 0 W/m 1,7 C 3,3 C 14,5 km/h (3 Bft) 100,00 %
21.03.2016 21:52 5,3 C 77 % 1014,4 hPa 0,0 l/m 10,5 km/h (2 Bft) W-SW 240 0 min 0,000 mm 0,0 UV-I 0 W/m 1,6 C 2,1 C 16,1 km/h (3 Bft) 100,00 %
21.03.2016 21:53 5,3 C 77 % 1014,4 hPa 0,0 l/m 10,0 km/h (2 Bft) SW 233 0 min 0,000 mm 0,0 UV-I 0 W/m 1,6 C 2,4 C 14,5 km/h (3 Bft) 100,00 %
21.03.2016 21:54 5,3 C 77 % 1014,4 hPa 0,0 l/m 9,5 km/h (2 Bft) W-SW 237 0 min 0,000 mm 0,0 UV-I 0 W/m 1,6 C 2,8 C 12,9 km/h (3 Bft) 100,00 %
21.03.2016 21:55 5,3 C 77 % 1014,4 hPa 0,0 l/m 11,4 km/h (2 Bft) SW 233 0 min 0,000 mm 0,0 UV-I 0 W/m 1,6 C 1,5 C 16,1 km/h (3 Bft) 100,00 %
21.03.2016 21:56 5,3 C 78 % 1014,4 hPa 0,0 l/m 10,5 km/h (2 Bft) W-SW 238 0 min 0,000 mm 0,0 UV-I 0 W/m 1,8 C 2,1 C 14,5 km/h (3 Bft) 100,00 %
21.03.2016 21:57 5,3 C 78 % 1014,4 hPa 0,0 l/m 9,6 km/h (2 Bft) W-SW 240 0 min 0,000 mm 0,0 UV-I 0 W/m 1,8 C 2,7 C 14,5 km/h (3 Bft) 100,00 %
21.03.2016 21:58 5,3 C 78 % 1014,4 hPa 0,0 l/m 7,7 km/h (2 Bft) W-SW 238 0 min 0,000 mm 0,0 UV-I 0 W/m 1,8 C 4,2 C 11,3 km/h (2 Bft) 100,00 %
21.03.2016 21:59 5,3 C 78 % 1014,4 hPa 0,0 l/m 10,4 km/h (2 Bft) S-SW 210 0 min 0,000 mm 0,0 UV-I 0 W/m 1,8 C 2,1 C 14,5 km/h (3 Bft) 100,00 %
21.03.2016 22:00 5,3 C 78 % 1014,4 hPa 0,0 l/m 11,7 km/h (2 Bft) SW 228 0 min 0,000 mm 0,0 UV-I 0 W/m 1,8 C 1,3 C 16,1 km/h (3 Bft) 100,00 %
21.03.2016 22:02 5,2 C 78 % 1014,4 hPa 0,0 l/m 9,5 km/h (2 Bft) W-SW 247 0 min 0,025 mm 0,0 UV-I 0 W/m 1,7 C 2,7 C 16,1 km/h (3 Bft) 100,00 %
21.03.2016 22:03 5,2 C 78 % 1014,4 hPa 0,0 l/m 8,2 km/h (2 Bft) SW 226 0 min 0,000 mm 0,0 UV-I 0 W/m 1,7 C 3,6 C 16,1 km/h (3 Bft) 100,00 %
21.03.2016 22:04 5,2 C 78 % 1014,4 hPa 0,0 l/m 9,4 km/h (2 Bft) SW 217 0 min 0,000 mm 0,0 UV-I 0 W/m 1,7 C 2,7 C 11,3 km/h (2 Bft) 100,00 %
21.03.2016 22:05 5,2 C 79 % 1014,3 hPa 0,0 l/m 8,9 km/h (2 Bft) W-SW 251 0 min 0,000 mm 0,0 UV-I 0 W/m 1,9 C 3,1 C 12,9 km/h (3 Bft) 100,00 %
21.03.2016 22:06 5,2 C 78 % 1014,3 hPa 0,0 l/m 7,7 km/h (2 Bft) W-SW 238 0 min 0,000 mm 0,0 UV-I 0 W/m 1,7 C 4,1 C 11,3 km/h (2 Bft) 96,88 %
21.03.2016 22:07 5,2 C 79 % 1014,4 hPa 0,0 l/m 8,4 km/h (2 Bft) W-SW 244 0 min 0,000 mm 0,0 UV-I 0 W/m 1,9 C 3,5 C 11,3 km/h (2 Bft) 100,00 %
21.03.2016 22:08 5,2 C 79 % 1014,3 hPa 0,0 l/m 9,5 km/h (2 Bft) W-SW 245 0 min 0,000 mm 0,0 UV-I 0 W/m 1,9 C 2,7 C 11,3 km/h (2 Bft) 100,00 %
21.03.2016 22:09 5,2 C 78 % 1014,3 hPa 0,0 l/m 8,2 km/h (2 Bft) W-SW 246 0 min 0,000 mm 0,0 UV-I 0 W/m 1,7 C 3,6 C 14,5 km/h (3 Bft) 100,00 %
21.03.2016 22:10 5,2 C 78 % 1014,3 hPa 0,0 l/m 8,3 km/h (2 Bft) SW 234 0 min 0,000 mm 0,0 UV-I 0 W/m 1,7 C 3,6 C 14,5 km/h (3 Bft) 100,00 %
21.03.2016 22:11 5,2 C 78 % 1014,3 hPa 0,0 l/m 9,8 km/h (2 Bft) S-SW 210 0 min 0,000 mm 0,0 UV-I 0 W/m 1,7 C 2,4 C 14,5 km/h (3 Bft) 100,00 %
21.03.2016 22:12 5,2 C 78 % 1014,3 hPa 0,0 l/m 10,8 km/h (2 Bft) SW 230 0 min 0,000 mm 0,0 UV-I 0 W/m 1,7 C 1,7 C 14,5 km/h (3 Bft) 100,00 %
21.03.2016 22:13 5,2 C 79 % 1014,3 hPa 0,0 l/m 10,6 km/h (2 Bft) S-SW 212 0 min 0,000 mm 0,0 UV-I 0 W/m 1,9 C 1,9 C 16,1 km/h (3 Bft) 100,00 %
21.03.2016 22:14 5,2 C 78 % 1014,2 hPa 0,0 l/m 11,0 km/h (2 Bft) SW 234 0 min 0,000 mm 0,0 UV-I 0 W/m 1,7 C 1,6 C 16,1 km/h (3 Bft) 100,00 %
21.03.2016 22:15 5,2 C 79 % 1014,3 hPa 0,0 l/m 10,6 km/h (2 Bft) W-SW 251 0 min 0,000 mm 0,0 UV-I 0 W/m 1,9 C 1,9 C 16,1 km/h (3 Bft) 100,00 %
21.03.2016 22:16 5,2 C 79 % 1014,3 hPa 0,0 l/m 10,3 km/h (2 Bft) SW 226 0 min 0,000 mm 0,0 UV-I 0 W/m 1,9 C 2,1 C 14,5 km/h (3 Bft) 96,15 %
21.03.2016 22:17 5,2 C 79 % 1014,3 hPa 0,0 l/m 11,2 km/h (2 Bft) SW 227 0 min 0,000 mm 0,0 UV-I 0 W/m 1,9 C 1,5 C 14,5 km/h (3 Bft) 96,30 %
21.03.2016 22:18 5,2 C 79 % 1014,3 hPa 0,0 l/m 9,8 km/h (2 Bft) SW 236 0 min 0,000 mm 0,0 UV-I 0 W/m 1,9 C 2,4 C 14,5 km/h (3 Bft) 100,00 %
21.03.2016 22:19 5,2 C 79 % 1014,3 hPa 0,0 l/m 11,2 km/h (2 Bft) S-SW 202 0 min 0,000 mm 0,0 UV-I 0 W/m 1,9 C 1,5 C 17,7 km/h (3 Bft) 96,15 %
21.03.2016 22:20 5,1 C 79 % 1014,3 hPa 0,0 l/m 9,8 km/h (2 Bft) S-SW 207 0 min 0,000 mm 0,0 UV-I 0 W/m 1,8 C 2,3 C 12,9 km/h (3 Bft) 100,00 %
21.03.2016 22:21 5,1 C 79 % 1014,3 hPa 0,0 l/m 11,3 km/h (2 Bft) SW 223 0 min 0,000 mm 0,0 UV-I 0 W/m 1,8 C 1,3 C 14,5 km/h (3 Bft) 96,55 %
21.03.2016 22:22 5,1 C 79 % 1014,3 hPa 0,0 l/m 9,2 km/h (2 Bft) SW 236 0 min 0,000 mm 0,0 UV-I 0 W/m 1,8 C 2,8 C 14,5 km/h (3 Bft) 100,00 %
21.03.2016 22:23 5,1 C 79 % 1014,3 hPa 0,0 l/m 10,2 km/h (2 Bft) SW 227 0 min 0,000 mm 0,0 UV-I 0 W/m 1,8 C 2,0 C 11,3 km/h (2 Bft) 96,55 %
21.03.2016 22:24 5,1 C 79 % 1014,3 hPa 0,0 l/m 12,8 km/h (3 Bft) SW 225 0 min 0,000 mm 0,0 UV-I 0 W/m 1,8 C 0,4 C 16,1 km/h (3 Bft) 95,83 %
21.03.2016 22:25 5,1 C 79 % 1014,3 hPa 0,0 l/m 9,7 km/h (2 Bft) W-SW 241 0 min 0,000 mm 0,0 UV-I 0 W/m 1,8 C 2,4 C 12,9 km/h (3 Bft) 96,15 %
21.03.2016 22:26 5,1 C 79 % 1014,3 hPa 0,0 l/m 10,7 km/h (2 Bft) SW 223 0 min 0,000 mm 0,0 UV-I 0 W/m 1,8 C 1,7 C 14,5 km/h (3 Bft) 100,00 %
21.03.2016 22:27 5,1 C 79 % 1014,3 hPa 0,0 l/m 10,7 km/h (2 Bft) SW 224 0 min 0,000 mm 0,0 UV-I 0 W/m 1,8 C 1,7 C 17,7 km/h (3 Bft) 95,65 %
21.03.2016 22:28 5,1 C 79 % 1014,3 hPa 0,0 l/m 11,0 km/h (2 Bft) SW 215 0 min 0,000 mm 0,0 UV-I 0 W/m 1,8 C 1,5 C 16,1 km/h (3 Bft) 95,83 %
21.03.2016 22:29 5,1 C 79 % 1014,3 hPa 0,0 l/m 11,3 km/h (2 Bft) W-SW 239 0 min 0,000 mm 0,0 UV-I 0 W/m 1,8 C 1,3 C 16,1 km/h (3 Bft) 100,00 %
21.03.2016 22:30 5,1 C 79 % 1014,3 hPa 0,0 l/m 11,9 km/h (2 Bft) S-SW 204 0 min 0,000 mm 0,0 UV-I 0 W/m 1,8 C 0,9 C 14,5 km/h (3 Bft) 96,30 %
21.03.2016 22:31 5,1 C 79 % 1014,3 hPa 0,0 l/m 10,8 km/h (2 Bft) SW 231 0 min 0,000 mm 0,0 UV-I 0 W/m 1,8 C 1,6 C 14,5 km/h (3 Bft) 100,00 %
21.03.2016 22:32 5,1 C 79 % 1014,3 hPa 0,0 l/m 11,8 km/h (2 Bft) W 264 0 min 0,000 mm 0,0 UV-I 0 W/m 1,8 C 1,0 C 16,1 km/h (3 Bft) 94,44 %
21.03.2016 22:33 5,1 C 79 % 1014,3 hPa 0,0 l/m 9,3 km/h (2 Bft) W-SW 248 0 min 0,000 mm 0,0 UV-I 0 W/m 1,8 C 2,7 C 12,9 km/h (3 Bft) 96,15 %
21.03.2016 22:34 5,1 C 79 % 1014,3 hPa 0,0 l/m 9,7 km/h (2 Bft) S-SW 211 0 min 0,000 mm 0,0 UV-I 0 W/m 1,8 C 2,4 C 12,9 km/h (3 Bft) 96,67 %
21.03.2016 22:35 5,1 C 79 % 1014,4 hPa 0,0 l/m 10,8 km/h (2 Bft) SW 227 0 min 0,000 mm 0,0 UV-I 0 W/m 1,8 C 1,6 C 14,5 km/h (3 Bft) 100,00 %
21.03.2016 22:36 5,1 C 79 % 1014,3 hPa 0,0 l/m 11,7 km/h (2 Bft) SW 236 0 min 0,000 mm 0,0 UV-I 0 W/m 1,8 C 1,1 C 16,1 km/h (3 Bft) 94,12 %
21.03.2016 22:37 5,1 C 79 % 1014,4 hPa 0,0 l/m 10,2 km/h (2 Bft) SW 231 0 min 0,000 mm 0,0 UV-I 0 W/m 1,8 C 2,0 C 16,1 km/h (3 Bft) 97,37 %
21.03.2016 22:38 5,1 C 79 % 1014,4 hPa 0,0 l/m 11,6 km/h (2 Bft) SW 214 0 min 0,000 mm 0,0 UV-I 0 W/m 1,8 C 1,1 C 16,1 km/h (3 Bft) 100,00 %
21.03.2016 22:39 5,1 C 79 % 1014,3 hPa 0,0 l/m 12,3 km/h (3 Bft) SW 227 0 min 0,000 mm 0,0 UV-I 0 W/m 1,8 C 0,7 C 17,7 km/h (3 Bft) 91,30 %
21.03.2016 22:40 5,1 C 79 % 1014,3 hPa 0,0 l/m 11,4 km/h (2 Bft) W-SW 252 0 min 0,000 mm 0,0 UV-I 0 W/m 1,8 C 1,2 C 16,1 km/h (3 Bft) 100,00 %
21.03.2016 22:41 5,1 C 79 % 1014,3 hPa 0,0 l/m 13,5 km/h (3 Bft) S-SW 208 0 min 0,000 mm 0,0 UV-I 0 W/m 1,8 C -0,0 C 17,7 km/h (3 Bft) 91,67 %
21.03.2016 22:42 5,1 C 79 % 1014,3 hPa 0,0 l/m 12,1 km/h (2 Bft) S-SW 202 0 min 0,000 mm 0,0 UV-I 0 W/m 1,8 C 0,8 C 16,1 km/h (3 Bft) 100,00 %
21.03.2016 22:43 5,1 C 79 % 1014,3 hPa 0,0 l/m 12,6 km/h (3 Bft) SW 229 0 min 0,000 mm 0,0 UV-I 0 W/m 1,8 C 0,5 C 17,7 km/h (3 Bft) 96,30 %
21.03.2016 22:44 5,2 C 79 % 1014,3 hPa 0,0 l/m 10,7 km/h (2 Bft) SW 227 0 min 0,000 mm 0,0 UV-I 0 W/m 1,9 C 1,8 C 12,9 km/h (3 Bft) 92,31 %
21.03.2016 22:45 5,1 C 79 % 1014,3 hPa 0,0 l/m 14,9 km/h (3 Bft) SW 217 0 min 0,000 mm 0,0 UV-I 0 W/m 1,8 C -0,8 C 19,3 km/h (3 Bft) 100,00 %
21.03.2016 22:46 5,2 C 79 % 1014,3 hPa 0,0 l/m 11,6 km/h (2 Bft) S-SW 197 0 min 0,000 mm 0,0 UV-I 0 W/m 1,9 C 1,2 C 14,5 km/h (3 Bft) 94,12 %
21.03.2016 22:47 5,2 C 79 % 1014,4 hPa 0,0 l/m 12,0 km/h (2 Bft) W-SW 237 0 min 0,000 mm 0,0 UV-I 0 W/m 1,9 C 1,0 C 16,1 km/h (3 Bft) 100,00 %
21.03.2016 22:48 5,2 C 79 % 1014,3 hPa 0,0 l/m 11,9 km/h (2 Bft) W-SW 248 0 min 0,000 mm 0,0 UV-I 0 W/m 1,9 C 1,0 C 14,5 km/h (3 Bft) 92,86 %
21.03.2016 22:49 5,2 C 79 % 1014,4 hPa 0,0 l/m 13,3 km/h (3 Bft) SW 214 0 min 0,000 mm 0,0 UV-I 0 W/m 1,9 C 0,2 C 16,1 km/h (3 Bft) 100,00 %
21.03.2016 22:50 5,2 C 79 % 1014,4 hPa 0,0 l/m 11,3 km/h (2 Bft) W-SW 242 0 min 0,000 mm 0,0 UV-I 0 W/m 1,9 C 1,4 C 14,5 km/h (3 Bft) 96,15 %
21.03.2016 22:51 5,2 C 79 % 1014,4 hPa 0,0 l/m 11,1 km/h (2 Bft) SW 218 0 min 0,000 mm 0,0 UV-I 0 W/m 1,9 C 1,6 C 14,5 km/h (3 Bft) 100,00 %
21.03.2016 22:52 5,2 C 79 % 1014,3 hPa 0,0 l/m 11,3 km/h (2 Bft) SW 236 0 min 0,000 mm 0,0 UV-I 0 W/m 1,9 C 1,4 C 14,5 km/h (3 Bft) 100,00 %
21.03.2016 22:53 5,2 C 79 % 1014,4 hPa 0,0 l/m 11,3 km/h (2 Bft) SW 231 0 min 0,000 mm 0,0 UV-I 0 W/m 1,9 C 1,4 C 16,1 km/h (3 Bft) 100,00 %
21.03.2016 22:54 5,2 C 79 % 1014,4 hPa 0,0 l/m 14,2 km/h (3 Bft) SW 217 0 min 0,000 mm 0,0 UV-I 0 W/m 1,9 C -0,3 C 25,7 km/h (4 Bft) 100,00 %
21.03.2016 22:55 5,2 C 79 % 1014,4 hPa 0,0 l/m 13,6 km/h (3 Bft) W-SW 245 0 min 0,000 mm 0,0 UV-I 0 W/m 1,9 C 0,1 C 17,7 km/h (3 Bft) 95,83 %
21.03.2016 22:56 5,2 C 79 % 1014,4 hPa 0,0 l/m 12,5 km/h (3 Bft) W 270 0 min 0,000 mm 0,0 UV-I 0 W/m 1,9 C 0,7 C 17,7 km/h (3 Bft) 100,00 %
21.03.2016 22:57 5,3 C 79 % 1014,4 hPa 0,0 l/m 12,1 km/h (2 Bft) W-SW 254 0 min 0,000 mm 0,0 UV-I 0 W/m 2,0 C 1,0 C 14,5 km/h (3 Bft) 100,00 %
21.03.2016 22:58 5,3 C 78 % 1014,4 hPa 0,0 l/m 11,2 km/h (2 Bft) SW 219 0 min 0,000 mm 0,0 UV-I 0 W/m 1,8 C 1,6 C 14,5 km/h (3 Bft) 92,31 %
21.03.2016 22:59 5,3 C 78 % 1014,4 hPa 0,0 l/m 9,1 km/h (2 Bft) W-SW 244 0 min 0,000 mm 0,0 UV-I 0 W/m 1,8 C 3,1 C 14,5 km/h (3 Bft) 93,33 %
21.03.2016 23:00 5,3 C 78 % 1014,4 hPa 0,0 l/m 13,6 km/h (3 Bft) W-SW 256 0 min 0,000 mm 0,0 UV-I 0 W/m 1,8 C 0,2 C 17,7 km/h (3 Bft) 100,00 %
21.03.2016 23:01 5,3 C 78 % 1014,4 hPa 0,0 l/m 13,0 km/h (3 Bft) W-SW 252 0 min 0,026 mm 0,0 UV-I 0 W/m 1,8 C 0,5 C 17,7 km/h (3 Bft) 100,00 %
21.03.2016 23:02 5,3 C 78 % 1014,4 hPa 0,0 l/m 10,7 km/h (2 Bft) SW 226 0 min 0,000 mm 0,0 UV-I 0 W/m 1,8 C 1,9 C 16,1 km/h (3 Bft) 100,00 %
21.03.2016 23:03 5,3 C 78 % 1014,4 hPa 0,0 l/m 10,2 km/h (2 Bft) SW 233 0 min 0,000 mm 0,0 UV-I 0 W/m 1,8 C 2,3 C 16,1 km/h (3 Bft) 100,00 %
21.03.2016 23:04 5,3 C 78 % 1014,4 hPa 0,0 l/m 9,1 km/h (2 Bft) W-SW 245 0 min 0,000 mm 0,0 UV-I 0 W/m 1,8 C 3,1 C 14,5 km/h (3 Bft) 100,00 %
21.03.2016 23:05 5,3 C 78 % 1014,4 hPa 0,0 l/m 8,7 km/h (2 Bft) W-SW 242 0 min 0,000 mm 0,0 UV-I 0 W/m 1,8 C 3,4 C 12,9 km/h (3 Bft) 100,00 %
21.03.2016 23:06 5,3 C 78 % 1014,4 hPa 0,0 l/m 8,7 km/h (2 Bft) W 263 0 min 0,000 mm 0,0 UV-I 0 W/m 1,8 C 3,4 C 12,9 km/h (3 Bft) 100,00 %
21.03.2016 23:07 5,3 C 78 % 1014,4 hPa 0,0 l/m 10,9 km/h (2 Bft) W-SW 258 0 min 0,000 mm 0,0 UV-I 0 W/m 1,8 C 1,8 C 14,5 km/h (3 Bft) 100,00 %
21.03.2016 23:08 5,3 C 78 % 1014,4 hPa 0,0 l/m 9,2 km/h (2 Bft) SW 220 0 min 0,000 mm 0,0 UV-I 0 W/m 1,8 C 3,0 C 12,9 km/h (3 Bft) 100,00 %
21.03.2016 23:09 5,3 C 78 % 1014,4 hPa 0,0 l/m 7,0 km/h (2 Bft) W-SW 248 0 min 0,000 mm 0,0 UV-I 0 W/m 1,8 C 4,8 C 12,9 km/h (3 Bft) 100,00 %
21.03.2016 23:10 5,3 C 78 % 1014,4 hPa 0,0 l/m 9,8 km/h (2 Bft) SW 234 0 min 0,000 mm 0,0 UV-I 0 W/m 1,8 C 2,5 C 14,5 km/h (3 Bft) 100,00 %
21.03.2016 23:11 5,3 C 78 % 1014,4 hPa 0,0 l/m 12,5 km/h (3 Bft) W-SW 242 0 min 0,000 mm 0,0 UV-I 0 W/m 1,8 C 0,8 C 17,7 km/h (3 Bft) 100,00 %
21.03.2016 23:12 5,3 C 78 % 1014,4 hPa 0,0 l/m 9,7 km/h (2 Bft) SW 222 0 min 0,000 mm 0,0 UV-I 0 W/m 1,8 C 2,6 C 14,5 km/h (3 Bft) 96,30 %
21.03.2016 23:13 5,3 C 78 % 1014,4 hPa 0,0 l/m 7,2 km/h (2 Bft) W-SW 240 0 min 0,000 mm 0,0 UV-I 0 W/m 1,8 C 4,6 C 9,7 km/h (2 Bft) 100,00 %
21.03.2016 23:14 5,3 C 78 % 1014,4 hPa 0,0 l/m 10,0 km/h (2 Bft) SW 222 0 min 0,000 mm 0,0 UV-I 0 W/m 1,8 C 2,4 C 12,9 km/h (3 Bft) 98,70 %
21.03.2016 23:15 5,3 C 78 % 1014,4 hPa 0,0 l/m 7,6 km/h (2 Bft) W-SW 250 0 min 0,000 mm 0,0 UV-I 0 W/m 1,8 C 4,3 C 12,9 km/h (3 Bft) 100,00 %
21.03.2016 23:16 5,3 C 78 % 1014,4 hPa 0,0 l/m 8,8 km/h (2 Bft) W-SW 248 0 min 0,000 mm 0,0 UV-I 0 W/m 1,8 C 3,3 C 11,3 km/h (2 Bft) 100,00 %
21.03.2016 23:17 5,3 C 78 % 1014,4 hPa 0,0 l/m 8,6 km/h (2 Bft) SW 235 0 min 0,000 mm 0,0 UV-I 0 W/m 1,8 C 3,4 C 14,5 km/h (3 Bft) 100,00 %
21.03.2016 23:18 5,3 C 78 % 1014,3 hPa 0,0 l/m 8,9 km/h (2 Bft) W-SW 254 0 min 0,000 mm 0,0 UV-I 0 W/m 1,8 C 3,2 C 12,9 km/h (3 Bft) 100,00 %
21.03.2016 23:19 5,3 C 78 % 1014,3 hPa 0,0 l/m 10,1 km/h (2 Bft) W-SW 246 0 min 0,000 mm 0,0 UV-I 0 W/m 1,8 C 2,3 C 14,5 km/h (3 Bft) 100,00 %
21.03.2016 23:20 5,3 C 78 % 1014,3 hPa 0,0 l/m 13,5 km/h (3 Bft) W-SW 240 0 min 0,000 mm 0,0 UV-I 0 W/m 1,8 C 0,2 C 16,1 km/h (3 Bft) 100,00 %
21.03.2016 23:21 5,3 C 78 % 1014,3 hPa 0,0 l/m 10,3 km/h (2 Bft) SW 225 0 min 0,000 mm 0,0 UV-I 0 W/m 1,8 C 2,2 C 12,9 km/h (3 Bft) 100,00 %
21.03.2016 23:22 5,3 C 78 % 1014,3 hPa 0,0 l/m 10,2 km/h (2 Bft) W 270 0 min 0,000 mm 0,0 UV-I 0 W/m 1,8 C 2,3 C 14,5 km/h (3 Bft) 100,00 %
21.03.2016 23:23 5,3 C 78 % 1014,3 hPa 0,0 l/m 10,1 km/h (2 Bft) W-SW 257 0 min 0,000 mm 0,0 UV-I 0 W/m 1,8 C 2,3 C 12,9 km/h (3 Bft) 100,00 %
21.03.2016 23:24 5,3 C 78 % 1014,3 hPa 0,0 l/m 8,2 km/h (2 Bft) W-SW 256 0 min 0,000 mm 0,0 UV-I 0 W/m 1,8 C 3,8 C 11,3 km/h (2 Bft) 100,00 %
21.03.2016 23:25 5,3 C 78 % 1014,3 hPa 0,0 l/m 10,9 km/h (2 Bft) W-SW 250 0 min 0,000 mm 0,0 UV-I 0 W/m 1,8 C 1,8 C 16,1 km/h (3 Bft) 100,00 %
21.03.2016 23:26 5,3 C 78 % 1014,3 hPa 0,0 l/m 8,9 km/h (2 Bft) W-SW 246 0 min 0,000 mm 0,0 UV-I 0 W/m 1,8 C 3,2 C 11,3 km/h (2 Bft) 100,00 %
21.03.2016 23:27 5,3 C 78 % 1014,3 hPa 0,0 l/m 12,6 km/h (3 Bft) W 262 0 min 0,000 mm 0,0 UV-I 0 W/m 1,8 C 0,7 C 14,5 km/h (3 Bft) 100,00 %
21.03.2016 23:28 5,3 C 78 % 1014,2 hPa 0,0 l/m 10,6 km/h (2 Bft) W 265 0 min 0,000 mm 0,0 UV-I 0 W/m 1,8 C 2,0 C 12,9 km/h (3 Bft) 100,00 %
21.03.2016 23:29 5,3 C 78 % 1014,2 hPa 0,0 l/m 9,4 km/h (2 Bft) W-SW 246 0 min 0,000 mm 0,0 UV-I 0 W/m 1,8 C 2,8 C 14,5 km/h (3 Bft) 96,30 %
21.03.2016 23:30 5,3 C 78 % 1014,2 hPa 0,0 l/m 9,7 km/h (2 Bft) W-SW 248 0 min 0,000 mm 0,0 UV-I 0 W/m 1,8 C 2,6 C 12,9 km/h (3 Bft) 100,00 %
21.03.2016 23:31 5,3 C 78 % 1014,2 hPa 0,0 l/m 10,3 km/h (2 Bft) SW 226 0 min 0,000 mm 0,0 UV-I 0 W/m 1,8 C 2,2 C 12,9 km/h (3 Bft) 100,00 %
21.03.2016 23:32 5,3 C 78 % 1014,2 hPa 0,0 l/m 6,8 km/h (2 Bft) W-SW 252 0 min 0,000 mm 0,0 UV-I 0 W/m 1,8 C 5,0 C 9,7 km/h (2 Bft) 96,15 %
21.03.2016 23:33 5,3 C 78 % 1014,2 hPa 0,0 l/m 8,3 km/h (2 Bft) W-SW 242 0 min 0,000 mm 0,0 UV-I 0 W/m 1,8 C 3,7 C 11,3 km/h (2 Bft) 100,00 %
21.03.2016 23:34 5,3 C 78 % 1014,2 hPa 0,0 l/m 6,8 km/h (2 Bft) SW 222 0 min 0,000 mm 0,0 UV-I 0 W/m 1,8 C 5,0 C 9,7 km/h (2 Bft) 100,00 %
21.03.2016 23:35 5,3 C 78 % 1014,2 hPa 0,0 l/m 7,0 km/h (2 Bft) SW 236 0 min 0,000 mm 0,0 UV-I 0 W/m 1,8 C 4,8 C 12,9 km/h (3 Bft) 100,00 %
21.03.2016 23:36 5,3 C 78 % 1014,2 hPa 0,0 l/m 7,6 km/h (2 Bft) W 259 0 min 0,000 mm 0,0 UV-I 0 W/m 1,8 C 4,3 C 11,3 km/h (2 Bft) 100,00 %
21.03.2016 23:37 5,3 C 78 % 1014,2 hPa 0,0 l/m 6,4 km/h (2 Bft) SW 235 0 min 0,000 mm 0,0 UV-I 0 W/m 1,8 C 5,3 C 11,3 km/h (2 Bft) 100,00 %
21.03.2016 23:38 5,3 C 78 % 1014,2 hPa 0,0 l/m 6,1 km/h (2 Bft) W 265 0 min 0,000 mm 0,0 UV-I 0 W/m 1,8 C 5,3 C 9,7 km/h (2 Bft) 100,00 %
21.03.2016 23:39 5,3 C 78 % 1014,2 hPa 0,0 l/m 7,4 km/h (2 Bft) W 267 0 min 0,000 mm 0,0 UV-I 0 W/m 1,8 C 4,4 C 11,3 km/h (2 Bft) 100,00 %
21.03.2016 23:40 5,2 C 79 % 1014,2 hPa 0,0 l/m 8,6 km/h (2 Bft) W-SW 240 0 min 0,000 mm 0,0 UV-I 0 W/m 1,9 C 3,3 C 11,3 km/h (2 Bft) 96,67 %
21.03.2016 23:41 5,2 C 79 % 1014,2 hPa 0,0 l/m 8,6 km/h (2 Bft) W-SW 241 0 min 0,000 mm 0,0 UV-I 0 W/m 1,9 C 3,3 C 12,9 km/h (3 Bft) 100,00 %
21.03.2016 23:42 5,2 C 79 % 1014,2 hPa 0,0 l/m 4,9 km/h (1 Bft) W-SW 252 0 min 0,000 mm 0,0 UV-I 0 W/m 1,9 C 5,2 C 8,0 km/h (2 Bft) 100,00 %
21.03.2016 23:43 5,2 C 79 % 1014,1 hPa 0,0 l/m 10,1 km/h (2 Bft) W-SW 244 0 min 0,000 mm 0,0 UV-I 0 W/m 1,9 C 2,2 C 14,5 km/h (3 Bft) 100,00 %
21.03.2016 23:44 5,2 C 79 % 1014,1 hPa 0,0 l/m 9,5 km/h (2 Bft) W-SW 246 0 min 0,000 mm 0,0 UV-I 0 W/m 1,9 C 2,7 C 12,9 km/h (3 Bft) 100,00 %
21.03.2016 23:45 5,2 C 79 % 1014,1 hPa 0,0 l/m 8,7 km/h (2 Bft) SW 229 0 min 0,000 mm 0,0 UV-I 0 W/m 1,9 C 3,3 C 12,9 km/h (3 Bft) 98,72 %
21.03.2016 23:46 5,2 C 79 % 1014,1 hPa 0,0 l/m 6,5 km/h (2 Bft) SW 216 0 min 0,000 mm 0,0 UV-I 0 W/m 1,9 C 5,1 C 8,0 km/h (2 Bft) 100,00 %
21.03.2016 23:47 5,2 C 79 % 1014,1 hPa 0,0 l/m 6,9 km/h (2 Bft) W-SW 240 0 min 0,000 mm 0,0 UV-I 0 W/m 1,9 C 4,8 C 9,7 km/h (2 Bft) 100,00 %
21.03.2016 23:48 5,2 C 79 % 1014,1 hPa 0,0 l/m 6,2 km/h (2 Bft) W-SW 248 0 min 0,000 mm 0,0 UV-I 0 W/m 1,9 C 5,2 C 9,7 km/h (2 Bft) 100,00 %
21.03.2016 23:49 5,2 C 79 % 1014,1 hPa 0,0 l/m 5,5 km/h (1 Bft) W-SW 257 0 min 0,000 mm 0,0 UV-I 0 W/m 1,9 C 5,2 C 6,4 km/h (2 Bft) 100,00 %
21.03.2016 23:50 5,2 C 79 % 1014,1 hPa 0,0 l/m 7,2 km/h (2 Bft) SW 225 0 min 0,000 mm 0,0 UV-I 0 W/m 1,9 C 4,5 C 9,7 km/h (2 Bft) 100,00 %
21.03.2016 23:51 5,2 C 79 % 1014,0 hPa 0,0 l/m 5,5 km/h (1 Bft) W-SW 254 0 min 0,000 mm 0,0 UV-I 0 W/m 1,9 C 5,2 C 8,0 km/h (2 Bft) 100,00 %
21.03.2016 23:52 5,2 C 79 % 1014,1 hPa 0,0 l/m 6,2 km/h (2 Bft) SW 232 0 min 0,000 mm 0,0 UV-I 0 W/m 1,9 C 5,2 C 9,7 km/h (2 Bft) 100,00 %
21.03.2016 23:53 5,2 C 79 % 1014,0 hPa 0,0 l/m 5,5 km/h (1 Bft) W-SW 253 0 min 0,000 mm 0,0 UV-I 0 W/m 1,9 C 5,2 C 8,0 km/h (2 Bft) 100,00 %
21.03.2016 23:54 5,2 C 79 % 1014,0 hPa 0,0 l/m 6,5 km/h (2 Bft) W-SW 254 0 min 0,000 mm 0,0 UV-I 0 W/m 1,9 C 5,1 C 11,3 km/h (2 Bft) 100,00 %
21.03.2016 23:55 5,2 C 79 % 1014,0 hPa 0,0 l/m 8,0 km/h (2 Bft) W-SW 252 0 min 0,000 mm 0,0 UV-I 0 W/m 1,9 C 3,8 C 11,3 km/h (2 Bft) 100,00 %
21.03.2016 23:56 5,2 C 79 % 1014,0 hPa 0,0 l/m 7,2 km/h (2 Bft) SW 234 0 min 0,000 mm 0,0 UV-I 0 W/m 1,9 C 4,5 C 11,3 km/h (2 Bft) 96,55 %
21.03.2016 23:57 5,2 C 79 % 1014,0 hPa 0,0 l/m 9,0 km/h (2 Bft) W-SW 254 0 min 0,000 mm 0,0 UV-I 0 W/m 1,9 C 3,0 C 12,9 km/h (3 Bft) 100,00 %
21.03.2016 23:58 5,2 C 79 % 1014,0 hPa 0,0 l/m 7,9 km/h (2 Bft) W-SW 257 0 min 0,000 mm 0,0 UV-I 0 W/m 1,9 C 3,9 C 12,9 km/h (3 Bft) 100,00 %
21.03.2016 23:59 5,2 C 79 % 1014,0 hPa 0,0 l/m 6,4 km/h (2 Bft) W 261 0 min 0,000 mm 0,0 UV-I 0 W/m 1,9 C 5,2 C 9,7 km/h (2 Bft) 100,00 %
_ Min-Zeit 04:45 14:36 23:51 - 15:34 - - - - - - 03:30 02:01 10:59 00:02
Minimum _ 3,1 C 56 % 1014,0 hPa - 0,5 km/h (0 Bft) - - - - - - -0,1 C -3,5 C 1,6 km/h (1 Bft) 11,76 %
_ Max-Zeit 14:32 06:43 09:48 00:00 14:15 - - 10:02 14:00 12:06 12:07 15:41 14:31 14:15 00:00
Maximum _ 9,8 C 83 % 1018,0 hPa 0,0 l/m 21,7 km/h
SW (4 Bft)
- - 2 min 0,304 mm 2,8 UV-I 809 W/m 2,7 C 9,7 C 25,7 km/h
W-SW (4 Bft)
100,00 %
Durchschnitt _ 5,6 C 73 % 1015,8 hPa #0,0 l/m 7,3 km/h (2 Bft) W-SW - #4:02 h #1,829 mm 1,5 UV-I 253 W/m 1,0 C 4,3 C 10,9 km/h (2 Bft) 98,58 %